[[{"header":{"parameterUnit":"m.s-1","parameterCategory":1,"la1":31.0,"la2":29.5877,"lo1":-88.7671,"lo2":-86.6584,"dy":0.0162,"dx":0.0185,"nx":115,"ny":88,"refTime":"2026-04-12T12:00:00:Z","depth":0,"parameterNumber":2,"parameterNumberName":"U-component_of_WINDS"},"data":[0.0,0.0,0.0,0.0,0.0,0.0,0.0,0.0,0.0,0.0,0.0,0.0,0.0,0.0,0.0,0.0,0.0,0.0,0.0,0.0,0.0,0.0,0.0,0.0,0.0,0.0,0.0,0.0,0.0,0.0,0.0,0.0,0.0,0.0,0.0,0.0,0.0,0.0,0.0,0.0,0.0,0.0,0.0,0.0,0.0,0.0,0.0,0.0,0.0,0.0,0.0,0.0,0.0,0.0,0.0,0.0,0.0,0.0,0.0,0.0,0.0,0.0,0.0,0.0,0.0,0.0,0.0,0.0,0.0,0.0,0.0,0.0,0.0,0.0,0.0,0.0,0.0,0.0,0.0,0.0,0.0,0.0,0.0,0.0,0.0,0.0,0.0,0.0,0.0,0.0,0.0,0.0,0.0,0.0,0.0,0.0,0.0,0.0,0.0,0.0,0.0,0.0,0.0,0.0,0.0,0.0,0.0,0.0,0.0,0.0,0.0,0.0,0.0,0.0,0.0,0.0,0.0,0.0,0.0,0.0,0.0,0.0,0.0,0.0,0.0,0.0,0.0,0.0,0.0,0.0,0.0,0.0,0.0,0.0,0.0,0.0,0.0,0.0,0.0,0.0,0.0,0.0,0.0,0.0,0.0,0.0,0.0,0.0,0.0,0.0,0.0,0.0,0.0,0.0,0.0,0.0,0.0,0.0,0.0,0.0,0.0,0.0,0.0,0.0,0.0,0.0,0.0,0.0,0.0,0.0,0.0,0.0,0.0,0.0,0.0,0.0,0.0,0.0,0.0,0.0,0.0,0.0,0.0,0.0,0.0,0.0,0.0,0.0,0.0,0.0,0.0,0.0,0.0,0.0,0.0,0.0,0.0,0.0,0.0,0.0,0.0,0.0,0.0,0.0,0.0,0.0,0.0,0.0,0.0,0.0,0.0,0.0,0.0,0.0,0.0,0.0,0.0,0.0,0.0,0.0,0.0,0.0,0.0,0.0,0.0,0.0,0.0,0.0,0.0,0.0,0.0,0.0,0.0,0.0,0.0,0.0,0.0,0.0,0.0,0.0,0.0,0.0,0.0,0.0,0.0,0.0,0.0,0.0,0.0,0.0,0.0,0.0,0.0,0.0,0.0,0.0,0.0,0.0,0.0,0.0,0.0,0.0,0.0,0.0,0.0,0.0,0.0,0.0,0.0,0.0,0.0,0.0,0.0,0.0,0.0,0.0,0.0,0.0,0.0,0.0,0.0,0.0,0.0,0.0,0.0,0.0,0.0,0.0,0.0,0.0,0.0,0.0,0.0,0.0,0.0,0.0,0.0,0.0,0.0,0.0,0.0,0.0,0.0,0.0,0.0,0.0,0.0,0.0,0.0,0.0,0.0,0.0,0.0,0.0,0.0,0.0,0.0,0.0,0.0,0.0,0.0,0.0,0.0,0.0,0.0,0.0,0.0,0.0,0.0,0.0,0.0,0.0,0.0,0.0,0.0,0.0,0.0,0.0,0.0,0.0,0.0,0.0,0.0,0.0,0.0,0.0,0.0,0.0,0.0,0.0,0.0,0.0,0.0,0.0,0.0,0.0,0.0,0.0,0.0,0.0,0.0,0.0,0.0,0.0,0.0,0.0,0.0,0.0,0.0,0.0,0.0,0.0,0.0,0.0,0.0,0.0,0.0,0.0,0.0,0.0,0.0,0.0,0.0,0.0,0.0,0.0,0.0,0.0,0.0,0.0,0.0,0.0,0.0,0.0,0.0,0.0,0.0,0.0,0.0,0.0,0.0,0.0,0.0,0.0,0.0,0.0,0.0,0.0,0.0,0.0,0.0,0.0,0.0,0.0,0.0,0.0,0.0,0.0,0.0,0.0,0.0,0.0,0.0,0.0,0.0,0.0,0.0,0.0,0.0,0.0,0.0,0.0,0.0,0.0,0.0,0.0,0.0,0.0,0.0,0.0,0.0,0.0,0.0,0.0,0.0,0.0,0.0,0.0,0.0,0.0,0.0,0.0,0.0,0.0,0.0,0.0,0.0,0.0,0.0,0.0,0.0,0.0,0.0,0.0,0.0,0.0,0.0,0.0,0.0,0.0,0.0,0.0,0.0,0.0,0.0,0.0,0.0,0.0,0.0,0.0,0.0,0.0,0.0,0.0,0.0,0.0,0.0,0.0,0.0,0.0,0.0,0.0,0.0,0.0,0.0,0.0,0.0,0.0,0.0,0.0,0.0,0.0,0.0,0.0,0.0,0.0,0.0,0.0,0.0,0.0,0.0,0.0,0.0,0.0,0.0,0.0,0.0,0.0,0.0,0.0,0.0,0.0,0.0,0.0,0.0,0.0,0.0,0.0,0.0,0.0,0.0,0.0,0.0,0.0,0.0,0.0,0.0,0.0,0.0,0.0,0.0,0.0,0.0,0.0,0.0,0.0,0.0,0.0,0.0,0.0,0.0,0.0,0.0,0.0,0.0,0.0,0.0,0.0,0.0,0.0,0.0,0.0,0.0,0.0,0.0,0.0,0.0,0.0,0.0,0.0,0.0,0.0,0.0,0.0,0.0,0.0,0.0,0.0,0.0,0.0,0.0,0.0,0.0,0.0,0.0,0.0,0.0,0.0,0.0,0.0,0.0,0.0,0.0,0.0,0.0,0.0,0.0,0.0,0.0,0.0,0.0,0.0,0.0,0.0,0.0,0.0,0.0,0.0,0.0,0.0,0.0,0.0,0.0,0.0,0.0,0.0,0.0,0.0,0.0,0.0,0.0,0.0,0.0,0.0,0.0,0.0,0.0,0.0,0.0,0.0,0.0,0.0,0.0,0.0,0.0,0.0,0.0,0.0,0.0,0.0,0.0,0.0,0.0,0.0,0.0,0.0,0.0,0.0,0.0,0.0,0.0,0.0,0.0,0.0,0.0,0.0,0.0,0.0,0.0,0.0,0.0,0.0,0.0,0.0,0.0,0.0,0.0,0.0,0.0,0.0,0.0,0.0,0.0,0.0,0.0,0.0,0.0,0.0,0.0,0.0,0.0,0.0,0.0,0.0,0.0,0.0,0.0,0.0,0.0,0.0,0.0,0.0,0.0,0.0,0.0,0.0,0.0,0.0,0.0,0.0,0.0,0.0,0.0,0.0,0.0,0.0,0.0,0.0,0.0,0.0,0.0,0.0,0.0,0.0,0.0,0.0,0.0,0.0,0.0,0.0,0.0,0.0,0.0,0.0,0.0,0.0,0.0,0.0,0.0,0.0,0.0,0.0,0.0,0.0,0.0,0.0,0.0,0.0,0.0,0.0,0.0,0.0,0.0,0.0,0.0,0.0,0.0,0.0,0.0,0.0,0.0,0.0,0.0,0.0,0.0,0.0,0.0,0.0,0.0,0.0,0.0,0.0,0.0,0.0,0.0,0.0,0.0,0.0,0.0,0.0,0.0,0.0,0.0,0.0,0.0,0.0,0.0,0.0,0.0,0.0,0.0,0.0,0.0,0.0,0.0,0.0,0.0,0.0,0.0,0.0,0.0,0.0,0.0,0.0,0.0,0.0,0.0,0.0,0.0,0.0,0.0,0.0,0.0,0.0,0.0,0.0,0.0,0.0,0.0,0.0,0.0,0.0,0.0,0.0,0.0,0.0,0.0,0.0,0.0,0.0,0.0,0.0,0.0,0.0,0.0,0.0,0.0,0.0,0.0,0.0,0.0,0.0,0.0,0.0,0.0,0.0,0.0,0.0,0.0,0.0,0.0,0.0,0.0,0.0,0.0,0.0,0.0,0.0,0.0,0.0,0.0,0.0,0.0,0.0,0.0,0.0,0.0,0.0,0.0,0.0,0.0,0.0,0.0,0.0,0.0,0.0,0.0,0.0,0.0,0.0,0.0,0.0,0.0,0.0,0.0,0.0,0.0,0.0,0.0,0.0,0.0,0.0,0.0,0.0,0.0,0.0,0.0,0.0,0.0,0.0,0.0,0.0,0.0,0.0,0.0,0.0,0.0,0.0,0.0,0.0,0.0,0.0,0.0,0.0,0.0,0.0,0.0,0.0,0.0,0.0,0.0,0.0,0.0,0.0,0.0,0.0,0.0,0.0,0.0,0.0,0.0,0.0,0.0,0.0,0.0,0.0,0.0,0.0,0.0,0.0,0.0,0.0,0.0,0.0,0.0,0.0,0.0,0.0,0.0,0.0,0.0,0.0,0.0,0.0,0.0,0.0,0.0,0.0,0.0,0.0,0.0,0.0,0.0,0.0,0.0,0.0,0.0,0.0,0.0,0.0,0.0,0.0,0.0,0.0,0.0,0.0,-4.5914,0.0,0.0,0.0,0.0,0.0,0.0,0.0,0.0,0.0,0.0,0.0,0.0,0.0,0.0,0.0,0.0,0.0,0.0,0.0,0.0,0.0,0.0,0.0,0.0,0.0,0.0,0.0,0.0,0.0,0.0,0.0,0.0,0.0,0.0,0.0,0.0,0.0,0.0,0.0,0.0,0.0,0.0,0.0,0.0,0.0,0.0,0.0,0.0,0.0,0.0,0.0,0.0,0.0,0.0,0.0,0.0,0.0,0.0,0.0,0.0,0.0,0.0,0.0,0.0,0.0,0.0,0.0,0.0,0.0,0.0,0.0,0.0,0.0,0.0,0.0,0.0,0.0,0.0,0.0,0.0,0.0,0.0,0.0,0.0,0.0,0.0,0.0,0.0,0.0,0.0,0.0,0.0,0.0,0.0,0.0,0.0,0.0,0.0,0.0,0.0,0.0,0.0,0.0,0.0,0.0,0.0,0.0,0.0,0.0,0.0,-4.7303,-4.6921,-4.7093,-4.6771,-4.5892,0.0,0.0,0.0,0.0,0.0,0.0,0.0,0.0,0.0,0.0,0.0,0.0,0.0,0.0,0.0,0.0,0.0,0.0,0.0,0.0,0.0,0.0,0.0,0.0,0.0,0.0,0.0,0.0,0.0,0.0,0.0,0.0,0.0,0.0,0.0,0.0,0.0,0.0,0.0,0.0,0.0,0.0,0.0,0.0,0.0,0.0,0.0,0.0,0.0,0.0,0.0,0.0,0.0,0.0,0.0,0.0,0.0,0.0,0.0,0.0,0.0,0.0,0.0,0.0,0.0,0.0,0.0,0.0,0.0,0.0,0.0,0.0,0.0,0.0,0.0,0.0,0.0,0.0,0.0,0.0,0.0,0.0,0.0,0.0,0.0,0.0,0.0,0.0,0.0,0.0,0.0,0.0,0.0,0.0,0.0,0.0,0.0,0.0,0.0,0.0,0.0,0.0,0.0,0.0,0.0,0.0,0.0,0.0,0.0,0.0,0.0,0.0,-4.7365,-4.6867,-4.5536,0.0,0.0,0.0,0.0,0.0,0.0,0.0,0.0,0.0,0.0,0.0,0.0,0.0,0.0,0.0,0.0,0.0,0.0,0.0,0.0,0.0,0.0,0.0,0.0,0.0,0.0,0.0,0.0,0.0,0.0,0.0,0.0,0.0,0.0,0.0,0.0,0.0,0.0,0.0,0.0,0.0,0.0,0.0,0.0,0.0,0.0,0.0,0.0,0.0,0.0,0.0,0.0,0.0,0.0,0.0,0.0,0.0,0.0,0.0,0.0,0.0,0.0,0.0,0.0,0.0,0.0,0.0,0.0,0.0,0.0,0.0,0.0,0.0,0.0,0.0,0.0,0.0,0.0,0.0,0.0,0.0,0.0,0.0,0.0,0.0,0.0,0.0,0.0,0.0,0.0,0.0,0.0,0.0,0.0,0.0,0.0,0.0,0.0,0.0,0.0,0.0,0.0,0.0,0.0,0.0,0.0,0.0,0.0,0.0,0.0,-4.7826,-4.6308,-4.7618,0.0,-4.468,0.0,0.0,0.0,0.0,0.0,0.0,0.0,0.0,0.0,0.0,0.0,0.0,0.0,0.0,0.0,0.0,0.0,0.0,0.0,0.0,0.0,0.0,0.0,0.0,0.0,0.0,0.0,0.0,0.0,0.0,0.0,0.0,0.0,0.0,0.0,0.0,0.0,0.0,0.0,0.0,0.0,0.0,0.0,0.0,0.0,0.0,0.0,0.0,0.0,0.0,0.0,0.0,0.0,0.0,0.0,0.0,0.0,0.0,0.0,0.0,0.0,0.0,0.0,0.0,0.0,0.0,0.0,0.0,0.0,0.0,0.0,0.0,0.0,0.0,0.0,0.0,0.0,0.0,0.0,0.0,0.0,0.0,0.0,0.0,0.0,0.0,0.0,0.0,0.0,0.0,0.0,0.0,0.0,0.0,0.0,0.0,0.0,0.0,0.0,0.0,0.0,0.0,0.0,0.0,0.0,0.0,0.0,0.0,0.0,0.0,-4.7721,-4.7515,-4.7031,-4.5769,0.0,0.0,0.0,0.0,0.0,0.0,0.0,0.0,0.0,0.0,0.0,0.0,0.0,0.0,0.0,0.0,0.0,0.0,0.0,0.0,0.0,0.0,0.0,0.0,0.0,0.0,0.0,0.0,0.0,0.0,0.0,0.0,0.0,0.0,0.0,0.0,0.0,0.0,0.0,0.0,0.0,0.0,0.0,0.0,0.0,0.0,0.0,0.0,0.0,0.0,0.0,0.0,0.0,0.0,0.0,0.0,0.0,0.0,0.0,0.0,0.0,0.0,0.0,0.0,0.0,0.0,0.0,0.0,0.0,0.0,0.0,0.0,0.0,0.0,0.0,0.0,0.0,0.0,0.0,0.0,0.0,0.0,0.0,0.0,0.0,0.0,0.0,0.0,0.0,0.0,0.0,0.0,0.0,0.0,0.0,0.0,0.0,0.0,0.0,0.0,0.0,0.0,0.0,0.0,0.0,0.0,0.0,0.0,0.0,0.0,-4.7391,-4.7497,-4.8015,-4.6489,-4.4816,-4.3162,0.0,0.0,0.0,0.0,0.0,0.0,0.0,0.0,0.0,0.0,0.0,0.0,0.0,0.0,0.0,0.0,0.0,0.0,0.0,0.0,0.0,0.0,0.0,0.0,0.0,0.0,0.0,0.0,0.0,0.0,0.0,0.0,0.0,0.0,0.0,0.0,0.0,0.0,0.0,0.0,0.0,0.0,0.0,0.0,0.0,0.0,0.0,0.0,0.0,0.0,0.0,0.0,0.0,0.0,0.0,0.0,0.0,0.0,0.0,0.0,0.0,0.0,0.0,0.0,0.0,0.0,0.0,0.0,0.0,0.0,0.0,0.0,0.0,0.0,0.0,0.0,0.0,0.0,0.0,0.0,0.0,0.0,0.0,0.0,0.0,0.0,0.0,0.0,0.0,0.0,0.0,0.0,0.0,0.0,0.0,0.0,0.0,0.0,0.0,0.0,0.0,0.0,0.0,0.0,0.0,0.0,0.0,0.0,0.0,-4.6807,-4.7206,-4.7248,-4.6192,-4.4797,0.0,0.0,0.0,0.0,0.0,0.0,0.0,0.0,0.0,0.0,0.0,0.0,0.0,0.0,0.0,0.0,0.0,0.0,0.0,0.0,0.0,0.0,0.0,0.0,0.0,0.0,0.0,0.0,0.0,0.0,0.0,0.0,0.0,0.0,0.0,0.0,0.0,0.0,0.0,0.0,0.0,0.0,0.0,0.0,0.0,0.0,0.0,0.0,0.0,0.0,0.0,0.0,0.0,0.0,0.0,0.0,0.0,0.0,0.0,0.0,0.0,0.0,0.0,0.0,0.0,0.0,0.0,0.0,0.0,0.0,0.0,0.0,0.0,0.0,0.0,0.0,0.0,0.0,0.0,0.0,0.0,0.0,0.0,0.0,0.0,0.0,0.0,0.0,0.0,0.0,0.0,0.0,0.0,0.0,0.0,0.0,0.0,0.0,0.0,0.0,0.0,0.0,0.0,0.0,0.0,0.0,0.0,0.0,0.0,-4.6681,-4.7026,-4.693,-4.6351,-4.5171,-4.3953,0.0,0.0,0.0,0.0,0.0,0.0,0.0,0.0,0.0,0.0,0.0,0.0,0.0,0.0,0.0,0.0,0.0,0.0,0.0,0.0,0.0,0.0,0.0,0.0,0.0,0.0,0.0,0.0,0.0,0.0,0.0,0.0,0.0,0.0,0.0,0.0,0.0,0.0,0.0,0.0,0.0,0.0,0.0,0.0,0.0,0.0,0.0,0.0,0.0,0.0,0.0,0.0,0.0,0.0,0.0,0.0,0.0,0.0,0.0,0.0,0.0,0.0,0.0,0.0,0.0,0.0,0.0,0.0,0.0,0.0,0.0,0.0,0.0,0.0,0.0,0.0,0.0,0.0,0.0,0.0,0.0,0.0,0.0,0.0,0.0,0.0,0.0,0.0,0.0,0.0,0.0,0.0,0.0,0.0,0.0,0.0,0.0,0.0,0.0,0.0,0.0,0.0,0.0,0.0,0.0,0.0,0.0,0.0,0.0,-4.672,0.0,-4.6485,0.0,-4.485,-4.3755,0.0,0.0,0.0,0.0,0.0,0.0,0.0,0.0,0.0,0.0,0.0,0.0,0.0,0.0,0.0,0.0,0.0,0.0,0.0,0.0,0.0,0.0,0.0,0.0,0.0,0.0,0.0,0.0,0.0,0.0,0.0,0.0,0.0,0.0,0.0,0.0,0.0,0.0,0.0,0.0,0.0,0.0,0.0,0.0,0.0,0.0,0.0,0.0,0.0,0.0,0.0,0.0,0.0,0.0,0.0,0.0,0.0,0.0,0.0,0.0,0.0,0.0,0.0,0.0,0.0,0.0,0.0,0.0,0.0,0.0,0.0,0.0,0.0,0.0,0.0,0.0,0.0,0.0,0.0,0.0,0.0,0.0,0.0,0.0,0.0,0.0,0.0,0.0,0.0,0.0,0.0,0.0,0.0,0.0,0.0,0.0,0.0,0.0,0.0,0.0,0.0,0.0,0.0,0.0,0.0,0.0,0.0,0.0,-4.5072,-4.587,-4.5859,-4.5858,-4.5879,-4.5325,-4.4276,0.0,0.0,0.0,0.0,0.0,0.0,0.0,0.0,0.0,0.0,0.0,0.0,0.0,0.0,0.0,0.0,0.0,0.0,0.0,0.0,0.0,0.0,0.0,0.0,0.0,0.0,0.0,0.0,0.0,0.0,0.0,0.0,0.0,0.0,0.0,0.0,0.0,0.0,0.0,0.0,0.0,0.0,0.0,0.0,0.0,0.0,0.0,0.0,0.0,0.0,0.0,0.0,0.0,0.0,0.0,0.0,0.0,0.0,0.0,0.0,0.0,0.0,0.0,0.0,0.0,0.0,0.0,0.0,0.0,0.0,0.0,0.0,0.0,0.0,0.0,0.0,0.0,0.0,0.0,0.0,0.0,0.0,0.0,0.0,0.0,0.0,0.0,0.0,0.0,0.0,0.0,0.0,0.0,0.0,0.0,0.0,0.0,0.0,0.0,0.0,0.0,0.0,0.0,0.0,0.0,0.0,0.0,0.0,0.0,-4.5875,-4.584,-4.5841,-4.5855,-4.4575,-4.3601,0.0,0.0,0.0,0.0,0.0,0.0,0.0,0.0,0.0,0.0,0.0,0.0,0.0,0.0,0.0,0.0,0.0,0.0,0.0,0.0,0.0,0.0,0.0,0.0,0.0,0.0,0.0,0.0,0.0,0.0,0.0,0.0,0.0,0.0,0.0,0.0,0.0,0.0,0.0,0.0,0.0,0.0,0.0,0.0,0.0,0.0,0.0,0.0,0.0,0.0,0.0,0.0,0.0,0.0,0.0,0.0,0.0,0.0,0.0,0.0,0.0,0.0,0.0,0.0,0.0,0.0,0.0,0.0,0.0,0.0,0.0,0.0,0.0,0.0,0.0,0.0,0.0,0.0,0.0,0.0,0.0,0.0,0.0,0.0,0.0,0.0,0.0,0.0,0.0,0.0,0.0,0.0,0.0,0.0,0.0,0.0,0.0,0.0,0.0,0.0,0.0,0.0,0.0,0.0,0.0,0.0,0.0,0.0,0.0,-4.6346,-4.6286,-4.6258,-4.6374,-4.4978,-4.3945,-4.3303,0.0,0.0,0.0,0.0,0.0,0.0,0.0,0.0,0.0,0.0,0.0,0.0,0.0,0.0,0.0,0.0,0.0,0.0,0.0,0.0,0.0,0.0,0.0,0.0,0.0,0.0,0.0,0.0,0.0,0.0,0.0,0.0,0.0,0.0,0.0,0.0,0.0,0.0,0.0,0.0,0.0,0.0,0.0,0.0,0.0,0.0,0.0,0.0,0.0,0.0,0.0,0.0,0.0,0.0,0.0,0.0,0.0,0.0,0.0,0.0,0.0,0.0,0.0,0.0,0.0,0.0,0.0,0.0,0.0,0.0,0.0,0.0,0.0,0.0,0.0,0.0,0.0,0.0,0.0,0.0,0.0,0.0,0.0,0.0,0.0,0.0,0.0,0.0,0.0,0.0,0.0,0.0,0.0,0.0,0.0,0.0,0.0,0.0,0.0,0.0,0.0,0.0,0.0,0.0,0.0,0.0,0.0,0.0,-4.7237,-4.7108,-4.7129,-4.7255,-4.6319,-4.5085,0.0,0.0,0.0,0.0,0.0,0.0,0.0,0.0,0.0,0.0,0.0,0.0,0.0,0.0,0.0,0.0,0.0,0.0,0.0,0.0,0.0,0.0,0.0,0.0,0.0,0.0,0.0,0.0,0.0,0.0,0.0,0.0,0.0,0.0,0.0,0.0,0.0,0.0,0.0,0.0,0.0,0.0,0.0,0.0,0.0,0.0,0.0,0.0,0.0,0.0,0.0,0.0,0.0,0.0,0.0,0.0,0.0,0.0,0.0,0.0,0.0,0.0,0.0,0.0,0.0,0.0,0.0,0.0,0.0,0.0,0.0,0.0,0.0,0.0,0.0,0.0,0.0,0.0,0.0,0.0,0.0,0.0,0.0,0.0,0.0,0.0,0.0,0.0,0.0,0.0,0.0,0.0,0.0,0.0,0.0,0.0,0.0,0.0,0.0,0.0,0.0,0.0,0.0,0.0,0.0,0.0,0.0,0.0,0.0,-4.7739,-4.8512,-4.8651,-4.8169,-4.6866,-4.5966,0.0,0.0,0.0,0.0,0.0,0.0,0.0,0.0,0.0,0.0,0.0,0.0,0.0,0.0,0.0,0.0,0.0,0.0,0.0,0.0,0.0,0.0,0.0,0.0,0.0,0.0,0.0,0.0,0.0,0.0,0.0,0.0,0.0,0.0,0.0,0.0,0.0,0.0,0.0,0.0,0.0,0.0,0.0,0.0,0.0,0.0,0.0,0.0,0.0,0.0,0.0,0.0,0.0,0.0,0.0,0.0,0.0,0.0,0.0,0.0,0.0,0.0,0.0,0.0,0.0,0.0,0.0,0.0,0.0,0.0,0.0,0.0,0.0,0.0,0.0,0.0,0.0,0.0,0.0,0.0,0.0,0.0,0.0,0.0,0.0,0.0,0.0,0.0,0.0,0.0,0.0,0.0,0.0,0.0,0.0,0.0,0.0,0.0,0.0,0.0,0.0,0.0,0.0,0.0,0.0,0.0,0.0,0.0,-4.631,-4.7349,-4.8456,-4.8847,-4.8424,-4.7457,-4.6717,0.0,0.0,0.0,0.0,0.0,0.0,0.0,0.0,0.0,0.0,0.0,0.0,0.0,0.0,0.0,0.0,0.0,0.0,0.0,0.0,0.0,0.0,0.0,0.0,0.0,0.0,0.0,0.0,0.0,0.0,0.0,0.0,0.0,0.0,0.0,0.0,0.0,0.0,0.0,0.0,0.0,0.0,0.0,0.0,0.0,0.0,0.0,0.0,0.0,0.0,0.0,0.0,0.0,0.0,0.0,0.0,0.0,0.0,0.0,0.0,0.0,0.0,0.0,0.0,0.0,0.0,0.0,0.0,0.0,0.0,0.0,0.0,0.0,0.0,0.0,0.0,0.0,0.0,0.0,0.0,0.0,0.0,0.0,0.0,0.0,0.0,0.0,0.0,0.0,0.0,0.0,0.0,0.0,0.0,0.0,0.0,0.0,0.0,0.0,0.0,0.0,0.0,0.0,0.0,0.0,0.0,0.0,0.0,-4.6014,-4.6442,-4.766,-4.8312,-4.83,-4.7921,-4.728,0.0,0.0,0.0,0.0,0.0,0.0,0.0,0.0,0.0,0.0,0.0,0.0,0.0,0.0,0.0,0.0,0.0,0.0,0.0,0.0,0.0,0.0,0.0,0.0,0.0,0.0,0.0,0.0,0.0,0.0,0.0,0.0,0.0,0.0,0.0,0.0,0.0,0.0,0.0,0.0,0.0,0.0,0.0,0.0,0.0,0.0,0.0,0.0,0.0,0.0,0.0,0.0,0.0,0.0,0.0,0.0,0.0,0.0,0.0,0.0,0.0,0.0,0.0,0.0,0.0,0.0,0.0,0.0,0.0,0.0,0.0,0.0,0.0,0.0,0.0,0.0,0.0,0.0,0.0,0.0,0.0,0.0,0.0,0.0,0.0,0.0,0.0,0.0,0.0,0.0,0.0,0.0,0.0,0.0,0.0,0.0,0.0,0.0,0.0,0.0,0.0,0.0,0.0,0.0,0.0,0.0,0.0,0.0,-4.5905,-4.6143,-4.7643,-4.846,-4.8453,-4.7612,-4.7047,0.0,0.0,0.0,0.0,0.0,0.0,0.0,0.0,0.0,0.0,0.0,0.0,0.0,0.0,0.0,0.0,0.0,0.0,0.0,0.0,0.0,0.0,0.0,0.0,0.0,0.0,0.0,0.0,0.0,0.0,0.0,0.0,0.0,0.0,0.0,0.0,0.0,0.0,0.0,0.0,0.0,0.0,0.0,0.0,0.0,0.0,0.0,0.0,-4.6217,0.0,0.0,0.0,0.0,0.0,0.0,0.0,0.0,0.0,0.0,0.0,0.0,0.0,0.0,0.0,0.0,0.0,0.0,0.0,0.0,0.0,0.0,0.0,0.0,0.0,0.0,0.0,0.0,0.0,0.0,0.0,0.0,0.0,0.0,0.0,0.0,0.0,0.0,0.0,0.0,0.0,0.0,0.0,0.0,0.0,0.0,0.0,0.0,0.0,0.0,0.0,0.0,0.0,0.0,0.0,0.0,0.0,0.0,0.0,-4.5092,-4.5375,-4.6422,-4.7067,-4.7217,-4.7129,-4.7062,0.0,0.0,0.0,0.0,0.0,0.0,0.0,0.0,0.0,0.0,0.0,0.0,0.0,0.0,0.0,0.0,0.0,0.0,0.0,0.0,0.0,0.0,0.0,0.0,0.0,0.0,0.0,0.0,0.0,0.0,0.0,0.0,0.0,0.0,0.0,0.0,0.0,0.0,0.0,0.0,0.0,0.0,0.0,0.0,0.0,0.0,0.0,0.0,0.0,0.0,0.0,0.0,0.0,0.0,0.0,0.0,0.0,0.0,0.0,0.0,0.0,0.0,0.0,0.0,0.0,0.0,0.0,0.0,0.0,0.0,0.0,0.0,0.0,0.0,0.0,0.0,0.0,0.0,0.0,0.0,0.0,0.0,0.0,0.0,0.0,0.0,0.0,0.0,0.0,0.0,0.0,0.0,0.0,0.0,0.0,0.0,0.0,0.0,0.0,0.0,0.0,0.0,0.0,0.0,0.0,0.0,0.0,-4.3786,-4.4161,-4.4514,-4.5031,-4.5439,-4.5722,-4.6551,-4.6962,-4.6829,0.0,0.0,0.0,0.0,0.0,0.0,0.0,0.0,0.0,0.0,0.0,0.0,0.0,0.0,0.0,0.0,0.0,0.0,0.0,0.0,0.0,0.0,0.0,0.0,0.0,0.0,0.0,0.0,0.0,0.0,0.0,0.0,0.0,0.0,0.0,0.0,0.0,0.0,-4.1,-4.2391,0.0,0.0,0.0,0.0,0.0,0.0,0.0,0.0,-4.5929,0.0,0.0,0.0,0.0,0.0,0.0,0.0,0.0,0.0,0.0,0.0,0.0,0.0,0.0,0.0,0.0,0.0,0.0,0.0,0.0,0.0,0.0,0.0,0.0,0.0,0.0,0.0,0.0,0.0,0.0,0.0,0.0,0.0,0.0,0.0,0.0,0.0,0.0,0.0,0.0,0.0,0.0,0.0,0.0,0.0,0.0,0.0,0.0,0.0,0.0,0.0,0.0,0.0,0.0,0.0,0.0,-4.2827,-4.3603,-4.4028,-4.4102,-4.4897,-4.5329,-4.5399,-4.5852,-4.6093,-4.6102,0.0,0.0,0.0,0.0,0.0,0.0,0.0,0.0,0.0,0.0,0.0,0.0,0.0,0.0,0.0,0.0,0.0,0.0,0.0,0.0,0.0,0.0,0.0,0.0,0.0,0.0,0.0,0.0,0.0,0.0,0.0,0.0,0.0,0.0,0.0,0.0,0.0,0.0,0.0,-4.3092,-4.3942,0.0,0.0,0.0,0.0,0.0,0.0,0.0,0.0,-4.5935,0.0,0.0,0.0,0.0,0.0,0.0,0.0,0.0,0.0,0.0,0.0,0.0,0.0,0.0,0.0,0.0,0.0,0.0,0.0,0.0,0.0,0.0,0.0,0.0,0.0,0.0,0.0,0.0,0.0,0.0,0.0,0.0,0.0,0.0,0.0,0.0,0.0,0.0,0.0,0.0,0.0,0.0,0.0,0.0,0.0,0.0,0.0,0.0,0.0,0.0,0.0,0.0,0.0,0.0,0.0,-4.2693,-4.3388,-4.3818,-4.4016,-4.4823,-4.5464,-4.5923,-4.6512,-4.6769,0.0,0.0,0.0,0.0,0.0,0.0,0.0,0.0,0.0,0.0,0.0,0.0,0.0,0.0,0.0,0.0,0.0,0.0,0.0,0.0,0.0,0.0,0.0,0.0,0.0,0.0,0.0,0.0,0.0,0.0,0.0,0.0,0.0,0.0,0.0,0.0,0.0,0.0,0.0,0.0,-4.2672,-4.3276,-4.3886,0.0,0.0,0.0,0.0,0.0,0.0,-4.5317,-4.5406,0.0,0.0,0.0,0.0,0.0,0.0,0.0,0.0,0.0,0.0,0.0,0.0,0.0,0.0,0.0,0.0,0.0,0.0,0.0,0.0,0.0,0.0,0.0,0.0,0.0,0.0,0.0,0.0,0.0,0.0,0.0,0.0,0.0,0.0,0.0,0.0,0.0,0.0,0.0,0.0,0.0,0.0,0.0,0.0,0.0,0.0,0.0,0.0,0.0,0.0,0.0,0.0,0.0,0.0,0.0,-4.2519,-4.305,-4.3528,-4.3899,-4.4585,-4.5334,-4.609,-4.6848,-4.7021,0.0,0.0,0.0,0.0,0.0,0.0,0.0,0.0,0.0,0.0,0.0,0.0,0.0,0.0,0.0,0.0,0.0,0.0,0.0,0.0,0.0,0.0,0.0,0.0,0.0,0.0,0.0,0.0,0.0,0.0,0.0,0.0,0.0,0.0,0.0,0.0,0.0,0.0,0.0,0.0,0.0,-4.304,-4.3803,-4.3379,0.0,0.0,0.0,0.0,-4.4253,-4.4635,0.0,0.0,0.0,0.0,0.0,0.0,0.0,0.0,0.0,0.0,0.0,0.0,0.0,0.0,0.0,0.0,0.0,0.0,0.0,0.0,0.0,0.0,0.0,0.0,0.0,0.0,0.0,0.0,0.0,0.0,0.0,0.0,0.0,0.0,0.0,0.0,0.0,0.0,0.0,0.0,0.0,0.0,0.0,0.0,0.0,0.0,0.0,0.0,0.0,0.0,0.0,0.0,0.0,0.0,0.0,0.0,-4.1877,-4.25,-4.3032,-4.3546,-4.3942,-4.4364,-4.4821,-4.5311,-4.5337,0.0,0.0,0.0,0.0,0.0,0.0,0.0,0.0,0.0,0.0,0.0,0.0,0.0,0.0,0.0,0.0,0.0,0.0,0.0,0.0,0.0,0.0,0.0,0.0,0.0,0.0,0.0,0.0,0.0,0.0,0.0,0.0,0.0,0.0,0.0,0.0,0.0,0.0,0.0,0.0,0.0,-4.4662,-4.3464,-4.3277,-4.3179,0.0,0.0,-4.3489,-4.4046,-4.4707,0.0,0.0,0.0,0.0,0.0,0.0,0.0,0.0,0.0,0.0,0.0,0.0,0.0,0.0,0.0,0.0,0.0,0.0,0.0,0.0,0.0,0.0,0.0,0.0,0.0,0.0,0.0,0.0,0.0,0.0,0.0,0.0,0.0,0.0,0.0,0.0,0.0,0.0,0.0,0.0,0.0,0.0,0.0,0.0,0.0,0.0,0.0,0.0,0.0,0.0,0.0,0.0,0.0,0.0,0.0,-4.0398,-4.0683,-4.1682,-4.2304,-4.256,-4.3451,-4.4113,-4.4473,-4.4963,-4.5099,0.0,0.0,0.0,0.0,0.0,0.0,0.0,0.0,0.0,0.0,0.0,0.0,0.0,0.0,0.0,0.0,0.0,0.0,0.0,0.0,0.0,0.0,0.0,0.0,0.0,0.0,0.0,0.0,0.0,0.0,0.0,0.0,0.0,0.0,0.0,0.0,0.0,0.0,0.0,0.0,0.0,0.0,-4.1438,-4.1338,0.0,0.0,0.0,-4.1567,-4.2194,0.0,0.0,0.0,0.0,0.0,0.0,0.0,0.0,0.0,0.0,0.0,0.0,0.0,0.0,0.0,0.0,0.0,0.0,0.0,0.0,0.0,0.0,0.0,0.0,0.0,0.0,0.0,0.0,0.0,0.0,0.0,0.0,0.0,0.0,0.0,0.0,0.0,0.0,0.0,0.0,0.0,0.0,0.0,0.0,0.0,0.0,0.0,0.0,0.0,0.0,0.0,0.0,0.0,0.0,0.0,0.0,0.0,-3.9811,-4.0972,-4.1643,-4.181,-4.2836,-4.3549,-4.3869,-4.4208,0.0,0.0,0.0,0.0,0.0,0.0,0.0,0.0,0.0,0.0,0.0,0.0,0.0,0.0,0.0,0.0,0.0,0.0,0.0,0.0,0.0,0.0,0.0,0.0,0.0,0.0,0.0,-3.625,0.0,0.0,0.0,0.0,0.0,0.0,0.0,0.0,0.0,0.0,0.0,0.0,0.0,0.0,-4.0108,-3.9932,-3.99,-3.995,0.0,0.0,-4.013,-4.079,-4.1927,-4.2661,0.0,0.0,0.0,0.0,0.0,0.0,0.0,0.0,0.0,0.0,0.0,0.0,0.0,0.0,0.0,0.0,0.0,0.0,0.0,0.0,0.0,0.0,0.0,0.0,0.0,0.0,0.0,0.0,0.0,0.0,0.0,0.0,0.0,0.0,0.0,0.0,0.0,0.0,0.0,0.0,0.0,0.0,0.0,0.0,0.0,0.0,0.0,0.0,0.0,0.0,0.0,0.0,0.0,0.0,0.0,-3.9806,-4.0585,-4.1223,-4.1789,-4.1885,-4.2088,-4.2426,-4.2282,-4.1646,0.0,0.0,0.0,0.0,0.0,0.0,0.0,0.0,0.0,0.0,0.0,0.0,0.0,0.0,0.0,0.0,0.0,0.0,0.0,0.0,0.0,0.0,0.0,0.0,0.0,0.0,0.0,0.0,0.0,0.0,0.0,0.0,0.0,0.0,0.0,0.0,0.0,0.0,0.0,0.0,0.0,-4.0669,-3.9996,-3.99,-4.0126,0.0,0.0,-4.0124,-4.0795,-4.1532,-4.1795,-4.0979,0.0,0.0,0.0,0.0,0.0,0.0,0.0,0.0,0.0,0.0,0.0,0.0,0.0,0.0,0.0,0.0,0.0,0.0,0.0,0.0,0.0,0.0,0.0,0.0,0.0,0.0,0.0,0.0,0.0,0.0,0.0,0.0,0.0,0.0,0.0,0.0,0.0,0.0,0.0,0.0,0.0,0.0,0.0,0.0,0.0,0.0,0.0,0.0,0.0,0.0,0.0,0.0,0.0,-3.8431,-3.8634,-3.9819,-4.0538,-4.0744,-4.1082,-4.1288,-4.1458,-4.1272,-4.0709,0.0,0.0,0.0,0.0,0.0,0.0,0.0,0.0,0.0,0.0,0.0,0.0,0.0,0.0,0.0,0.0,0.0,0.0,0.0,0.0,0.0,0.0,0.0,0.0,0.0,0.0,0.0,0.0,-3.6354,-3.5758,-3.5906,0.0,0.0,0.0,0.0,0.0,0.0,0.0,0.0,0.0,0.0,-3.8813,-3.8967,-3.8998,0.0,0.0,-3.9133,-3.9087,-3.95,-4.013,-4.0372,-3.9702,-3.942,0.0,0.0,0.0,0.0,0.0,0.0,0.0,0.0,0.0,0.0,0.0,0.0,0.0,0.0,0.0,0.0,0.0,0.0,0.0,0.0,0.0,0.0,0.0,0.0,0.0,0.0,0.0,0.0,0.0,0.0,0.0,0.0,0.0,0.0,0.0,0.0,0.0,0.0,0.0,0.0,0.0,0.0,0.0,0.0,0.0,0.0,0.0,0.0,0.0,0.0,0.0,0.0,-3.7655,-3.7898,-3.8891,-3.9514,-3.9791,-3.9901,-4.0001,-4.0008,-3.9826,-3.9359,0.0,0.0,0.0,0.0,0.0,0.0,0.0,0.0,0.0,0.0,0.0,0.0,0.0,0.0,0.0,0.0,0.0,0.0,0.0,0.0,0.0,0.0,0.0,0.0,0.0,0.0,0.0,0.0,-3.6444,-3.5399,-3.5671,0.0,0.0,0.0,0.0,0.0,0.0,0.0,0.0,0.0,0.0,-3.7225,-3.7212,-3.722,-3.722,-3.7256,-3.708,-3.7107,-3.7402,-3.8015,-3.8217,-3.7658,0.0,0.0,0.0,0.0,0.0,0.0,0.0,0.0,0.0,0.0,0.0,0.0,0.0,0.0,0.0,0.0,0.0,0.0,0.0,0.0,0.0,0.0,0.0,0.0,0.0,0.0,0.0,0.0,0.0,0.0,-3.958,0.0,0.0,0.0,0.0,0.0,0.0,0.0,0.0,0.0,0.0,0.0,0.0,0.0,0.0,0.0,0.0,0.0,0.0,0.0,0.0,0.0,0.0,-3.7087,-3.7858,-3.7859,-3.8242,-3.8963,-3.8335,-3.8014,-3.7997,-3.7715,-3.7192,-3.6374,0.0,0.0,0.0,0.0,0.0,0.0,0.0,0.0,0.0,0.0,0.0,0.0,0.0,0.0,0.0,0.0,0.0,0.0,0.0,0.0,0.0,0.0,0.0,0.0,0.0,0.0,-3.7482,-3.5767,-3.4896,0.0,0.0,0.0,0.0,0.0,0.0,0.0,0.0,0.0,0.0,-3.6007,-3.6245,-3.4775,-3.4505,-3.4659,-3.4761,-3.421,-3.3987,-3.4646,-3.5207,-3.5287,0.0,0.0,0.0,0.0,0.0,0.0,0.0,0.0,0.0,0.0,0.0,0.0,0.0,0.0,0.0,0.0,0.0,0.0,0.0,0.0,0.0,0.0,0.0,0.0,0.0,0.0,0.0,-4.1673,-4.1602,0.0,0.0,0.0,0.0,0.0,0.0,0.0,0.0,0.0,0.0,0.0,-3.5535,-3.6178,0.0,0.0,0.0,0.0,0.0,0.0,0.0,0.0,0.0,0.0,0.0,0.0,-3.5941,-3.5813,-3.6673,-3.7283,-3.7528,-3.7773,-3.7663,-3.7186,-3.6623,-3.5599,-3.4172,0.0,0.0,0.0,0.0,0.0,0.0,0.0,0.0,0.0,0.0,0.0,0.0,0.0,0.0,0.0,0.0,0.0,0.0,0.0,0.0,0.0,0.0,0.0,0.0,0.0,-3.7363,0.0,0.0,0.0,0.0,0.0,0.0,0.0,0.0,0.0,0.0,0.0,-3.4209,-3.4078,-3.4413,-3.4626,-3.4552,-3.4542,-3.4657,0.0,0.0,0.0,0.0,0.0,0.0,0.0,0.0,0.0,0.0,0.0,0.0,0.0,0.0,-3.7301,-3.6951,-3.6697,-3.6314,-3.5563,0.0,0.0,0.0,0.0,0.0,0.0,0.0,0.0,0.0,0.0,0.0,0.0,0.0,0.0,-4.028,0.0,-3.9804,0.0,0.0,0.0,0.0,0.0,0.0,0.0,0.0,-3.4955,-3.4949,-3.475,-3.4865,-3.4559,0.0,-3.4376,-3.488,0.0,0.0,0.0,0.0,0.0,0.0,0.0,0.0,-3.4874,-3.4723,-3.5336,-3.5903,-3.638,-3.6398,-3.629,-3.6042,-3.5332,-3.4292,-3.2872,-3.3753,-3.3794,0.0,0.0,0.0,0.0,0.0,0.0,0.0,0.0,0.0,0.0,0.0,0.0,0.0,0.0,0.0,0.0,0.0,0.0,0.0,0.0,0.0,0.0,0.0,-3.639,0.0,0.0,0.0,0.0,0.0,0.0,0.0,0.0,0.0,-3.2742,-3.2911,-3.3023,-3.3295,-3.3516,-3.3577,-3.3235,0.0,0.0,0.0,0.0,0.0,0.0,0.0,-3.3095,-3.2294,-3.2804,-3.322,-3.3006,-3.3832,-3.446,-3.4259,0.0,0.0,-3.5606,-3.5506,-3.5208,-3.4748,-3.5002,-3.5154,-3.473,-3.5154,-3.5427,0.0,0.0,0.0,0.0,0.0,0.0,0.0,0.0,-3.7606,-3.7525,0.0,-3.7535,0.0,0.0,0.0,0.0,0.0,-3.4187,0.0,0.0,-3.4072,-3.3619,-3.2992,-3.208,-3.1347,-3.095,-3.2386,-3.2807,-3.2373,-3.3528,0.0,0.0,0.0,0.0,0.0,0.0,-3.385,-3.4484,-3.3877,-3.4173,-3.5489,-3.4309,-3.3928,-3.4496,-3.3928,-3.3227,-3.254,-3.3535,-3.3465,-3.1985,-3.3389,0.0,0.0,0.0,0.0,0.0,0.0,0.0,0.0,0.0,0.0,0.0,0.0,0.0,0.0,0.0,0.0,0.0,0.0,0.0,0.0,-3.4638,0.0,0.0,0.0,0.0,0.0,0.0,0.0,0.0,0.0,0.0,-3.289,-3.3331,-3.3278,-3.275,0.0,0.0,0.0,0.0,-3.1009,-3.003,-2.9867,-2.9917,-2.9839,-3.0678,-3.1358,-3.1279,0.0,0.0,-3.2189,-3.2637,-3.288,-3.2311,-3.2777,-3.3755,-3.5667,-3.5519,-3.5151,-3.5151,-3.5125,-3.5189,-3.5269,-3.543,-3.5728,-3.776,0.0,0.0,0.0,0.0,-3.7822,-3.8094,-3.8552,-3.7958,-3.7693,-3.7645,-3.7145,0.0,0.0,0.0,0.0,0.0,0.0,-3.3437,-3.2861,-3.2778,-3.2325,-3.1578,-3.133,-3.1088,-3.0928,-3.0934,-3.0831,-3.0664,-3.0554,-3.1339,-3.2887,0.0,0.0,0.0,0.0,-3.2715,-3.2435,-3.2699,-3.3068,-3.3472,-3.3581,-3.3469,-3.3198,-3.3002,-3.2498,-3.1743,-3.2813,-3.294,-3.1961,-3.2665,0.0,0.0,0.0,0.0,0.0,0.0,0.0,0.0,0.0,0.0,0.0,0.0,0.0,0.0,0.0,0.0,0.0,0.0,0.0,-3.3912,-3.3396,-3.2984,0.0,0.0,0.0,0.0,0.0,0.0,0.0,0.0,0.0,-3.0592,-3.0866,-3.0829,0.0,0.0,-3.0749,-3.0107,-3.0495,-3.0565,-2.9774,-3.0704,0.0,0.0,-2.9936,-3.0264,-2.8966,-2.9378,-2.9931,-3.0151,-3.1039,-3.1685,-3.1516,-3.2358,-3.3313,-3.3814,-3.3866,-3.3762,-3.3749,-3.3708,-3.3708,-3.3733,-3.3891,-3.3985,-3.6418,-3.6906,-3.6906,-3.689,-3.689,-3.689,-3.7154,-3.7513,-3.7092,-3.689,-3.6905,-3.6719,-3.6095,-3.5134,-3.4589,0.0,0.0,0.0,-3.2462,-3.2187,-3.1476,-3.0865,-3.0392,-3.0029,-2.9736,-2.9529,-2.9436,-2.9318,-2.9086,-2.9022,-2.9611,-3.077,0.0,0.0,-3.0623,-3.1311,-3.129,-3.0569,-3.129,-3.1819,-3.2084,-3.2821,-3.2853,-3.2188,-3.2176,-3.1949,-3.1479,-3.2394,-3.2523,-3.175,-3.241,-3.2841,0.0,0.0,0.0,0.0,0.0,0.0,0.0,0.0,0.0,0.0,0.0,-3.3195,0.0,0.0,0.0,0.0,-3.1199,-3.2105,-3.2105,-3.184,0.0,0.0,0.0,0.0,0.0,0.0,0.0,-2.7912,-2.7368,-2.7377,-2.8379,-2.8483,-2.8863,-2.991,-2.9605,-2.9234,-2.9018,0.0,-2.9558,-2.8951,-2.9733,-2.9902,-2.8497,-2.9064,-2.9376,-2.8522,-2.8656,-2.8992,-2.9329,-3.0033,-3.0631,-3.1178,-3.1821,-3.2525,-3.2982,-3.3124,-3.3124,-3.3124,-3.3124,-3.3124,-3.3124,-3.3124,-3.3124,-3.5439,-3.5392,-3.5392,-3.5439,-3.5504,-3.5489,-3.5489,-3.5489,-3.5489,-3.5489,-3.5554,-3.6212,-3.5752,-3.4429,-3.3095,0.0,-3.3317,-3.1866,-3.1441,-3.1876,-3.0188,-2.9359,-2.9215,-2.838,-2.7708,-2.7266,-2.7967,-2.8103,-2.7663,-2.8409,-2.8506,-2.7954,-2.9346,-2.9707,-2.8996,-2.9768,-2.9782,-2.9034,-2.9782,-3.0511,-3.1215,-3.2,-3.2117,-3.1524,-3.1496,-3.1496,-3.1524,-3.2148,-3.218,-3.148,-3.2407,-3.2619,-3.1913,0.0,0.0,0.0,0.0,0.0,0.0,0.0,0.0,0.0,0.0,0.0,0.0,0.0,0.0,0.0,-2.9273,0.0,-2.9657,-3.001,0.0,0.0,0.0,-2.7532,-2.7619,-2.6426,-2.5561,-2.5525,0.0,0.0,-2.6404,-2.6373,-2.7211,-2.9746,-2.9142,-2.8266,-2.7787,-2.8265,-2.8366,-2.7745,-2.781,-2.7832,-2.7568,-2.7975,-2.8405,-2.869,-2.9085,-2.8936,-2.8993,-2.9361,-2.9863,-3.0765,-3.1223,-3.1733,-3.2884,-3.3124,-3.3124,-3.3124,-3.3124,-3.3124,-3.3124,-3.3124,-3.3124,-3.5067,-3.4361,-3.4361,-3.4806,-3.5489,-3.5489,-3.5489,-3.5489,-3.5489,-3.5489,-3.5489,-3.5668,-3.5292,-3.4427,-3.2952,-3.2375,-3.2428,-3.147,-3.051,-2.9537,-2.9099,-2.8307,-2.7223,-2.6993,-2.6813,-2.67,-2.6869,-2.6909,-2.6816,-2.7007,-2.6997,-2.6915,-2.7821,-2.8293,-2.826,-2.8955,-2.9223,-2.8989,-2.9192,-2.9707,-3.0496,-3.0719,-3.1058,-3.1496,-3.1496,-3.1496,-3.1496,-3.1653,-3.166,-3.1416,-3.168,-3.1715,-3.1514,-3.1034,0.0,0.0,0.0,0.0,0.0,0.0,0.0,0.0,0.0,-3.081,-2.8911,0.0,-2.8746,0.0,-2.7473,-2.7855,-2.851,-2.7731,0.0,0.0,-2.6429,-2.5837,-2.6674,-2.6068,-2.5451,-2.5038,-2.5135,-2.5349,-2.5733,-2.5028,-2.5155,-2.6984,-2.7392,-2.7496,-2.7644,-2.821,-2.8186,-2.7297,-2.8023,-2.8274,-2.6634,-2.6282,-2.6479,-2.6542,-2.66,-2.6562,-2.661,-2.8168,-2.951,-2.9897,-3.1424,-3.2624,-3.3025,-3.3124,-3.3124,-3.3124,-3.3124,-3.3124,-3.3124,-3.3124,-3.3124,-3.4259,-3.3394,-3.3394,-3.3705,-3.4225,-3.4673,-3.4839,-3.4872,-3.5311,-3.5489,-3.5489,-3.519,-3.446,-3.3414,-3.2297,-3.1535,-3.1136,-3.0055,-2.9073,-2.8245,-2.7887,-2.7267,-2.6487,-2.6487,-2.6487,-2.6487,-2.6235,-2.6097,-2.6097,-2.5871,-2.5883,-2.6097,-2.6542,-2.6967,-2.7326,-2.8053,-2.8247,-2.7887,-2.801,-2.8508,-2.9296,-2.9118,-2.9346,-3.0087,-3.0075,-3.0061,-3.013,-3.0366,-3.0219,-2.9637,-2.9884,-3.0003,-2.9948,-2.9567,-2.9368,0.0,0.0,0.0,0.0,0.0,0.0,0.0,0.0,0.0,0.0,0.0,-2.7542,-2.6341,-2.6129,-2.6345,-2.7005,-2.6585,-2.6419,-2.6685,-2.5554,-2.5044,-2.5659,-2.4986,-2.4388,-2.4104,-2.4049,-2.414,-2.4418,-2.3919,-2.391,-2.5025,-2.5438,-2.5864,-2.6462,-2.6978,-2.705,-2.6425,-2.7081,-2.7342,-2.5878,-2.5684,-2.5684,-2.5684,-2.5684,-2.5684,-2.5732,-2.6791,-2.8085,-2.9223,-3.0553,-3.1833,-3.284,-3.3124,-3.3124,-3.3124,-3.3124,-3.3124,-3.3124,-3.3124,-3.3124,-3.3276,-3.2429,-3.2429,-3.2343,-3.2321,-3.3241,-3.3774,-3.4061,-3.492,-3.5347,-3.5325,-3.4452,-3.3326,-3.2014,-3.1131,-3.0372,-2.9618,-2.8212,-2.7537,-2.7517,-2.6816,-2.6487,-2.6487,-2.6487,-2.6461,-2.6361,-2.5871,-2.5561,-2.5473,-2.5046,-2.5059,-2.5473,-2.5498,-2.5749,-2.6294,-2.6976,-2.6976,-2.6307,-2.6518,-2.7032,-2.7889,-2.7412,-2.7505,-2.8211,-2.814,-2.8138,-2.8254,-2.877,-2.855,-2.7511,-2.801,-2.8312,-2.824,-2.8126,-2.7954,0.0,-2.7583,0.0,0.0,0.0,0.0,0.0,0.0,0.0,0.0,-2.5924,-2.6152,-2.5499,-2.5009,-2.4948,-2.5355,-2.5801,-2.6058,-2.6016,-2.5179,-2.4585,-2.4542,-2.3724,-2.3101,-2.3101,-2.3101,-2.3101,-2.3154,-2.3101,-2.3257,-2.3722,-2.3939,-2.425,-2.483,-2.5407,-2.5731,-2.5664,-2.5684,-2.5927,-2.5732,-2.5684,-2.5684,-2.5684,-2.5684,-2.5684,-2.5684,-2.61,-2.6982,-2.8901,-2.9863,-3.0777,-3.2754,-3.3124,-3.3124,-3.3124,-3.3124,-3.3124,-3.3124,-3.3124,-3.3124,-3.2321,-3.1462,-3.1462,-3.1007,-3.0419,-3.1328,-3.2607,-3.4027,-3.4211,-3.4431,-3.4513,-3.2671,-3.1652,-3.1228,-2.9256,-2.8277,-2.808,-2.7146,-2.6726,-2.6714,-2.6568,-2.6487,-2.6487,-2.6487,-2.6248,-2.5774,-2.5682,-2.5385,-2.4971,-2.487,-2.4838,-2.4938,-2.4926,-2.4976,-2.5121,0.0,0.0,0.0,-2.5183,-2.5607,-2.6432,-2.6386,-2.6714,-2.749,-2.7484,0.0,-2.7519,-2.7617,-2.778,-2.8019,-2.8154,0.0,0.0,0.0,0.0,0.0,0.0,0.0,0.0,0.0,0.0,0.0,-2.3455,-2.324,-2.4006,-2.412,-2.4236,-2.4435,-2.3955,-2.3803,-2.4249,-2.3965,-2.3724,-2.3724,-2.356,-2.343,-2.343,-2.3222,-2.3101,-2.3101,-2.3101,-2.3101,-2.3101,-2.3101,-2.313,-2.3247,-2.3574,-2.3828,-2.4014,-2.4736,-2.5312,-2.5644,-2.5645,-2.5674,-2.5684,-2.5664,-2.5645,-2.5684,-2.5684,-2.5684,-2.582,-2.7352,-2.8577,-2.9407,-3.1057,-3.2382,-3.3025,-3.3124,-3.3124,-3.3124,-3.3124,-3.3124,-3.3124,-3.3124,-3.3124,-3.1365,0.0,-3.0482,-3.0241,0.0,-3.0317,-3.1304,-3.2629,-3.3087,-3.3075,-3.2591,-3.1198,-3.0189,-2.9417,-2.8237,-2.7484,-2.7108,-2.6692,-2.6487,-2.6487,-2.6487,-2.6487,-2.6487,-2.6487,-2.6185,-2.5586,-2.5335,-2.4901,-2.4418,-2.4086,-2.4111,-2.4418,-2.4387,-2.4544,-2.4775,-2.4114,-2.4102,-2.4788,-2.4556,-2.4614,-2.5027,-2.4378,-2.4598,-2.5745,0.0,0.0,0.0,0.0,0.0,0.0,0.0,0.0,0.0,0.0,0.0,-2.4451,-2.4307,-2.3863,-2.3136,-2.2957,-2.2776,-2.2522,-2.1713,-2.1822,-2.3142,-2.2557,-2.2454,-2.3345,-2.2932,-2.2797,-2.32,-2.3173,-2.3101,-2.3101,-2.3101,-2.3101,-2.3101,-2.3101,-2.3101,-2.3101,-2.3101,-2.3101,-2.3101,-2.3101,-2.3101,-2.3101,-2.3276,-2.3555,-2.3828,-2.4521,-2.5166,-2.5371,-2.54,-2.54,-2.541,-2.541,-2.5518,-2.5615,-2.5684,-2.5684,-2.5684,-2.6696,-2.7945,-2.9131,-3.0463,-3.1569,-3.2853,-3.3124,-3.3124,-3.3124,-3.3124,-3.3124,-3.3124,-3.3124,-3.3124,-3.0482,-2.9792,-2.9779,-2.9779,-2.9779,-2.9679,-3.0024,-3.0729,0.0,0.0,0.0,-2.9912,-2.8888,-2.7703,-2.7537,-2.7129,-2.6521,-2.6487,-2.6487,-2.6487,-2.6487,-2.6487,-2.6487,-2.6487,-2.6067,-2.5236,-2.478,-2.4149,-2.3423,-2.3046,-2.312,-2.3586,-2.3779,-2.4004,-2.4201,-2.2971,-2.2907,-2.3976,-2.3601,-2.338,-2.338,-2.226,-2.2274,-2.361,-2.2773,-2.2735,-2.3607,-2.406,-2.3847,-2.285,-2.2763,-2.2676,-2.2595,-2.224,-2.2203,-2.251,-2.2864,-2.2786,-2.2237,-2.2612,-2.2379,-2.116,-2.0801,-2.108,-2.2259,-2.1274,-2.1123,-2.2319,-2.2089,-2.2051,-2.248,-2.2847,-2.3101,-2.3101,-2.3101,-2.3101,-2.3101,-2.3101,-2.3101,-2.3101,-2.3101,-2.3101,-2.3101,-2.3101,-2.3101,-2.3101,-2.312,-2.3301,-2.3779,-2.4568,-2.5039,-2.4971,-2.5127,-2.5205,-2.5098,-2.5205,-2.5322,-2.5625,-2.5684,-2.5684,-2.5732,-2.6052,-2.7163,-2.905,-2.9681,-3.1,-3.2667,-3.3124,-3.3124,-3.3124,-3.3124,-3.3124,-3.3124,-3.3124,-3.3124,-2.9934,-2.9779,-2.9779,-2.9779,-2.9754,-2.9264,-2.8837,-2.8689,-3.0319,-3.0707,-3.0016,-2.8623,-2.7901,-2.767,-2.696,-2.6589,-2.6487,-2.6487,-2.6487,-2.6487,-2.6487,-2.6487,-2.6487,-2.6487,-2.5549,-2.3869,-2.3703,-2.2772,-2.1328,-2.1745,-2.2111,-2.2277,-2.2874,-2.2923,-2.2267,-2.1377,-2.0982,-2.119,-2.1111,-2.1088,-2.1076,-2.088,-2.0867,-2.1089,-2.0999,-2.0946,-2.1121,-2.121,-2.1365,-2.1611,-2.1634,-2.1829,-2.2219,-2.2173,-2.185,-2.1157,-2.1161,-2.0937,-2.0359,-2.0364,-2.0506,-2.0671,-2.0605,-2.0682,-2.0854,-2.0711,-2.083,-2.1381,-2.1693,-2.206,-2.248,-2.2847,-2.3101,-2.3101,-2.3101,-2.3101,-2.3101,-2.3101,-2.3101,-2.3101,-2.3101,-2.3101,-2.3101,-2.3101,-2.3101,-2.3101,-2.3101,-2.3247,-2.375,-2.4568,-2.4844,-2.4717,-2.5118,-2.541,-2.5137,-2.5391,-2.5557,-2.5664,-2.5684,-2.5732,-2.5868,-2.7247,-2.8623,-2.9361,-3.0923,-3.2339,-3.3081,-3.3124,-3.3124,-3.3124,-3.3124,-3.3124,-3.3124,-3.3124,-3.3124,-2.9779,-2.9754,-2.9453,-2.9503,-2.9741,-2.9139,-2.8436,-2.7742,-2.8516,-2.8776,-2.8452,-2.7475,-2.704,-2.7007,-2.6645,-2.6487,-2.6487,-2.6487,-2.6487,-2.6487,-2.6487,-2.6323,-2.5966,-2.5521,-2.4493,-2.3099,-2.2568,-2.1758,-2.0743,-2.1005,-2.1195,-2.1195,-2.1573,-2.1542,-2.1164,-2.0333,-1.9879,-1.9911,-2.0365,-2.059,-2.0602,-2.0139,-2.0107,-2.059,-2.0171,-2.0139,-2.059,-2.059,-2.0723,-2.0948,-2.0534,-2.0367,-2.0584,-2.039,-2.0176,-2.0017,-2.0214,-2.0326,-2.0282,-2.0273,-2.0352,-2.0586,-2.0615,-2.0615,-2.0615,-2.0615,-2.0693,-2.0879,-2.1475,-2.1963,-2.2168,-2.2711,-2.3101,-2.3101,-2.3101,-2.3101,-2.3101,-2.3101,-2.3101,-2.3101,-2.3101,-2.3101,-2.3101,-2.3101,-2.3101,-2.3101,-2.3101,-2.3188,-2.3418,-2.3965,-2.4316,-2.415,-2.4434,-2.4658,-2.4707,-2.4873,-2.5157,-2.5586,-2.5684,-2.6014,-2.6534,-2.7898,-2.8855,-3.0135,-3.1424,-3.2239,-3.2884,-3.3124,-3.3124,-3.3124,-3.3124,-3.3124,-3.3124,-3.3124,-3.3124,-2.9716,-2.9553,-2.9076,-2.9051,-2.9189,-2.875,-2.7996,-2.7165,-2.7128,-2.714,-2.7065,-2.6675,-2.6487,-2.6487,-2.6487,-2.6487,-2.6487,-2.6487,-2.6487,-2.6487,-2.6487,-2.6083,-2.5323,-2.4582,-2.3524,-2.218,-2.1418,-2.0732,-2.0129,-2.0204,-2.043,-2.0558,-2.043,-2.0301,-2.0268,-1.9441,-1.9,-1.9044,-1.9683,-2.0009,-2.0009,-1.9332,-1.9342,-1.9911,-1.9365,-1.9332,-1.9977,-2.002,-2.0009,-1.9987,-1.9365,-1.9,-1.8988,-1.8635,-1.8646,-1.9111,-1.9541,-2.001,-2.0546,-2.0615,-2.0615,-2.0615,-2.0615,-2.0615,-2.0615,-2.0615,-2.0615,-2.0693,-2.1269,-2.1768,-2.1963,-2.2539,-2.2984,-2.3071,-2.3101,-2.3101,-2.3101,-2.3101,-2.3101,-2.3101,-2.3101,-2.3101,-2.3101,-2.3101,-2.3101,-2.3101,-2.3101,-2.3101,-2.314,-2.3447,-2.3623,-2.3701,-2.3867,-2.4199,-2.4414,-2.4668,-2.5001,-2.5615,-2.5684,-2.6245,-2.7183,-2.7731,-2.8773,-3.0631,-3.1444,-3.2096,-3.2939,-3.3124,-3.3124,-3.3124,-3.3124,-3.3124,-3.3124,-3.3124,-3.3124,-2.9478,-2.9001,-2.8888,-2.8373,-2.7618,-2.7494,-2.713,-2.6625,-2.6575,-2.6575,-2.6587,-2.6512,-2.6487,-2.6487,-2.6487,-2.6487,-2.6487,-2.6487,-2.6487,-2.6487,-2.6487,-2.575,-2.4492,-2.4285,-2.2902,-2.0624,-2.0266,-1.956,-1.8482,-1.9077,-1.9792,-2.043,-1.9824,-1.9431,-1.9332,-1.8563,-1.8134,-1.8134,-1.8202,-1.8236,-1.8236,-1.8168,-1.8134,-1.8236,-1.8168,-1.8134,-1.8327,-1.8236,-1.8236,-1.8236,-1.8202,-1.8144,-1.8154,-1.8081,-1.8227,-1.8646,-1.9121,-1.9734,-2.0498,-2.0615,-2.0615,-2.0615,-2.0615,-2.0615,-2.0615,-2.0615,-2.0615,-2.0693,-2.1016,-2.1475,-2.1846,-2.2314,-2.2744,-2.3003,-2.3081,-2.3101,-2.3101,-2.3101,-2.3101,-2.3101,-2.3101,-2.3101,-2.3101,-2.3101,-2.3101,-2.3101,-2.3101,-2.312,-2.3169,-2.3169,-2.3257,-2.3457,-2.4121,-2.4648,-2.459,-2.507,-2.5382,-2.5615,-2.5732,-2.6438,-2.7494,-2.8634,-2.9772,-3.1178,-3.214,-3.284,-3.2982,-3.3124,-3.3124,-3.3124,-3.3124,-3.3124,-3.3124,-3.3124,-3.3124,-2.8662,-2.8374,-2.8097,-2.7507,-2.6914,-2.7178,-2.7002,-2.6512,-2.6487,-2.6487,-2.6487,-2.6487,-2.6487,-2.6487,-2.6487,-2.6487,-2.6487,-2.6487,-2.6487,-2.6427,-2.5645,-2.4701,-2.3778,-2.2366,-2.1002,-1.9658,-1.9131,-1.8574,-1.8139,-1.8371,-1.8721,-1.9011,-1.8687,-1.8529,-1.8496,-1.8168,-1.8008,-1.8008,-1.8008,-1.8008,-1.8008,-1.8008,-1.8008,-1.8008,-1.8008,-1.8008,-1.8008,-1.8008,-1.8008,-1.8008,-1.8008,-1.8008,-1.8008,-1.8008,-1.8193,-1.8598,-1.9287,-1.9805,-2.0156,-2.042,-2.0615,-2.0615,-2.0615,-2.0615,-2.0615,-2.0615,-2.0615,-2.0654,-2.0967,-2.1278,-2.1533,-2.21,-2.2588,-2.273,-2.2935,-2.3101,-2.3101,-2.3101,-2.3101,-2.3101,-2.3101,-2.3101,-2.3101,-2.3101,-2.3101,-2.3101,-2.3101,-2.3188,-2.3447,-2.3266,-2.3218,-2.3555,-2.4209,-2.4541,-2.4492,-2.4668,-2.5156,-2.5673,-2.6342,-2.7268,-2.8448,-2.9636,-3.0866,-3.2052,-3.2698,-3.3081,-3.3081,-3.3124,-3.3124,-3.3124,-3.3124,-3.3124,-3.3124,-3.3124,-3.3124,-2.8009,-2.7808,-2.7316,-2.6864,-2.6537,-2.6914,-2.6864,-2.6512,-2.6487,-2.6487,-2.6487,-2.6487,-2.6487,-2.6487,-2.6487,-2.6411,-2.6273,-2.626,-2.6024,-2.5623,-2.457,-2.3528,-2.2465,-2.0936,-1.9682,-1.8939,-1.8347,-1.8008,-1.8008,-1.8008,-1.8008,-1.8008,-1.8008,-1.8008,-1.8008,-1.8008,-1.8008,-1.8008,-1.8008,-1.8008,-1.8008,-1.8008,-1.8008,-1.8008,-1.8008,-1.8008,-1.8008,-1.8008,-1.8008,-1.8008,-1.8008,-1.8008,-1.8008,-1.8008,-1.8169,-1.8607,-1.9336,-1.9795,-1.9912,-2.0322,-2.0615,-2.0615,-2.0615,-2.0615,-2.0615,-2.0615,-2.0615,-2.0635,-2.0859,-2.1034,-2.1268,-2.1904,-2.2353,-2.251,-2.2847,-2.3091,-2.3101,-2.3101,-2.3101,-2.3101,-2.3101,-2.3101,-2.3101,-2.3101,-2.312,-2.3266,-2.3296,-2.3467,-2.3818,-2.3676,-2.3588,-2.3916,-2.4238,-2.4394,-2.4443,-2.4729,-2.5125,-2.6022,-2.7078,-2.7992,-2.9453,-3.0676,-3.1601,-3.2382,-3.2896,-3.3124,-3.3124,-3.3124,-3.3124,-3.3124,-3.3124,-3.3124,-3.3124,-3.3124,-3.3124,-2.7808,-2.7268,-2.6751,-2.6537,-2.6499,-2.6537,-2.6537,-2.6487,-2.6487,-2.6487,-2.6487,-2.6487,-2.6487,-2.6487,-2.6487,-2.6197,-2.5699,-2.5649,-2.4987,-2.386,-2.3573,-2.2341,-2.033,-2.0117,-1.9377,-1.8265,-1.8076,-1.8008,-1.8008,-1.8008,-1.8008,-1.8008,-1.8008,-1.8008,-1.8008,-1.8008,-1.8008,-1.8008,-1.8008,-1.8008,-1.8008,-1.8008,-1.8008,-1.8008,-1.8008,-1.8008,-1.8008,-1.8008,-1.8008,-1.8008,-1.8008,-1.8008,-1.8008,-1.8008,-1.8203,-1.8568,-1.9062,-1.9502,-1.9873,-2.0351,-2.0615,-2.0615,-2.0615,-2.0615,-2.0615,-2.0615,-2.0615,-2.0615,-2.0654,-2.0801,-2.1162,-2.166,-2.21,-2.2441,-2.2828,-2.3062,-2.3101,-2.3101,-2.3101,-2.3101,-2.3101,-2.3101,-2.3101,-2.3101,-2.3266,-2.3564,-2.3711,-2.3877,-2.4199,-2.4307,-2.4307,-2.4355,-2.4434,-2.4434,-2.4502,-2.4873,-2.5916,-2.6962,-2.7589,-2.8412,-2.9954,-3.1311,-3.2052,-3.2599,-3.2927,-3.3111,-3.3124,-3.3124,-3.3124,-3.3124,-3.3124,-3.3124,-3.3124,-3.3124,-3.3124,-2.6964,-2.6776,-2.6575,-2.6487,-2.6487,-2.6487,-2.6487,-2.6487,-2.6487,-2.6487,-2.6487,-2.6487,-2.6487,-2.6487,-2.6487,-2.6172,-2.5598,-2.5259,-2.4513,-2.3466,-2.2595,-2.142,-2.0141,-1.9209,-1.854,-1.8095,-1.8008,-1.8008,-1.8008,-1.8008,-1.8008,-1.8008,-1.8008,-1.8008,-1.8008,-1.8008,-1.8008,-1.8008,-1.8008,-1.8008,-1.8008,-1.8008,-1.8008,-1.8008,-1.8008,-1.8008,-1.8008,-1.8008,-1.8008,-1.8008,-1.8008,-1.8008,-1.8008,-1.8008,-1.8066,-1.8281,-1.8896,-1.9355,-1.9561,-2.0224,-2.0615,-2.0615,-2.0615,-2.0615,-2.0615,-2.0615,-2.0615,-2.0615,-2.0615,-2.0664,-2.0879,-2.1445,-2.1943,-2.2148,-2.2672,-2.3101,-2.3101,-2.3101,-2.3101,-2.3101,-2.3101,-2.3101,-2.3101,-2.3101,-2.3159,-2.3359,-2.3613,-2.3984,-2.4307,-2.4424,-2.4551,-2.4766,-2.4834,-2.4834,-2.4834,-2.5029,-2.5761,-2.718,-2.8226,-2.9361,-3.0765,-3.1965,-3.2797,-3.2448,-3.2767,-3.2842,-3.2792,-3.2968,-3.3036,-3.3124,-3.3124,-3.3124,-3.3124,-3.3124,-3.3124,-2.6487,-2.6487,-2.6487,-2.6487,-2.6487,-2.6487,-2.6487,-2.6487,-2.6487,-2.6487,-2.6487,-2.6487,-2.6399,-2.6197,-2.6013,-2.5624,-2.5076,-2.4611,-2.3741,-2.2519,-2.1273,-2.0265,-1.939,-1.8442,-1.8008,-1.8008,-1.8008,-1.8008,-1.8008,-1.8008,-1.8008,-1.8008,-1.8008,-1.8008,-1.8008,-1.8008,-1.8008,-1.8008,-1.8008,-1.8008,-1.8008,-1.8008,-1.8008,-1.8008,-1.8008,-1.8008,-1.8008,-1.8008,-1.8008,-1.8008,-1.8008,-1.8008,-1.8008,-1.8008,-1.8008,-1.8096,-1.8809,-1.9277,-1.9385,-2.0126,-2.0615,-2.0615,-2.0615,-2.0615,-2.0615,-2.0615,-2.0615,-2.0615,-2.0615,-2.0615,-2.0772,-2.1357,-2.1885,-2.1992,-2.2637,-2.3081,-2.3101,-2.3101,-2.3101,-2.3101,-2.3101,-2.3101,-2.3101,-2.3101,-2.3247,-2.3442,-2.3828,-2.4189,-2.4697,-2.4806,-2.4922,-2.5215,-2.5283,-2.5559,-2.5872,-2.6256,-2.6806,-2.8093,-2.9177,-3.0316,-3.1368,-3.2481,-3.2825,-3.2449,-3.2365,-3.2453,-3.2604,-3.2792,-3.2943,-3.3099,-3.3124,-3.3124,-3.3124,-3.3124,-3.3124,-2.6487,-2.6487,-2.6487,-2.6487,-2.6487,-2.6487,-2.6487,-2.6487,-2.6449,-2.6424,-2.6474,-2.6461,-2.6172,-2.5686,-2.5298,-2.4598,-2.4089,-2.3589,-2.2453,-2.0878,-1.9889,-1.8996,-1.8183,-1.8095,-1.8008,-1.8008,-1.8008,-1.8008,-1.8008,-1.8008,-1.8008,-1.8008,-1.8008,-1.8008,-1.8008,-1.8008,-1.8008,-1.8008,-1.8008,-1.8008,-1.8008,-1.8008,-1.8008,-1.8008,-1.8008,-1.8008,-1.8008,-1.8008,-1.8008,-1.8008,-1.8008,-1.8008,-1.8008,-1.8008,-1.8008,-1.8135,-1.8809,-1.9238,-1.9375,-2.0126,-2.0615,-2.0615,-2.0615,-2.0615,-2.0615,-2.0615,-2.0615,-2.0615,-2.0615,-2.0615,-2.0772,-2.1387,-2.1926,-2.1973,-2.2637,-2.3071,-2.3101,-2.3101,-2.3101,-2.3101,-2.3101,-2.3101,-2.3101,-2.3159,-2.3422,-2.4004,-2.4346,-2.4648,-2.5273,-2.5401,-2.5606,-2.5635,-2.5673,-2.5846,-2.6758,-2.7673,-2.838,-2.9166,-3.0181,-3.1223,-3.2108,-3.3056,-3.2679,-3.2303,-3.2026,-3.2102,-3.2428,-3.2641,-3.2955,-3.3124,-3.3124,-3.3124,-3.3124,-3.3124,-3.3124,-2.6487,-2.6487,-2.6487,-2.6487,-2.6487,-2.6487,-2.6487,-2.6436,-2.6097,-2.6122,-2.6373,-2.6072,-2.6009,-2.5977,-2.5316,-2.4437,-2.3598,-2.2321,-2.1229,-2.0542,-1.9694,-1.8821,-1.8134,-1.8008,-1.8008,-1.8008,-1.8008,-1.8008,-1.8008,-1.8008,-1.8008,-1.8008,-1.8008,-1.8008,-1.8008,-1.8008,-1.8008,-1.8008,-1.8008,-1.8008,-1.8008,-1.8008,-1.8008,-1.8008,-1.8008,-1.8008,-1.8008,-1.8008,-1.8008,-1.8008,-1.8008,-1.8008,-1.8008,-1.8008,-1.8008,-1.8086,-1.8809,-1.9277,-1.9385,-2.0096,-2.0615,-2.0615,-2.0615,-2.0615,-2.0615,-2.0615,-2.0615,-2.0615,-2.0615,-2.0703,-2.1045,-2.1533,-2.1885,-2.1936,-2.2627,-2.3101,-2.3101,-2.3101,-2.3101,-2.3101,-2.3101,-2.3101,-2.3159,-2.333,-2.3672,-2.4014,-2.4482,-2.5019,-2.5244,-2.5596,-2.5674,-2.5684,-2.583,-2.6332,-2.74,-2.8541,-2.9498,-3.0181,-3.1089,-3.1777,-3.2655,-3.3061,-3.2604,-3.2114,-3.1838,-3.1851,-3.2177,-3.2591,-3.2986,-3.3124,-3.3124,-3.3124,-3.3124,-3.3124,-3.3124,-2.6487,-2.6487,-2.6487,-2.6487,-2.6487,-2.6487,-2.6487,-2.6411,-2.5883,-2.5946,-2.6273,-2.5636,-2.5319,-2.5219,-2.4506,-2.3599,-2.2541,-2.0942,-2.0279,-2.0138,-1.9252,-1.8496,-1.8042,-1.8008,-1.8008,-1.8008,-1.8008,-1.8008,-1.8008,-1.8008,-1.8008,-1.8008,-1.8008,-1.8008,-1.8008,-1.8008,-1.8008,-1.8008,-1.8008,-1.8008,-1.8008,-1.8008,-1.8008,-1.8008,-1.8008,-1.8008,-1.8008,-1.8008,-1.8008,-1.8008,-1.8008,-1.8008,-1.8008,-1.8008,-1.8008,-1.8164,-1.876,-1.9277,-1.9365,-2.0126,-2.0615,-2.0615,-2.0615,-2.0615,-2.0615,-2.0615,-2.0615,-2.0615,-2.0772,-2.0928,-2.12,-2.1787,-2.208,-2.2129,-2.2682,-2.3062,-2.3101,-2.3101,-2.3101,-2.3101,-2.3101,-2.3101,-2.3179,-2.3506,-2.3848,-2.4062,-2.4619,-2.5185,-2.5293,-2.5576,-2.5674,-2.5917,-2.6342,-2.7125,-2.8168,-2.9315,-3.0496,-3.1267,-3.1965,-3.2382,-3.297,-3.3056,-3.2792,-3.1976,-3.1524,-3.1562,-3.1851,-3.2604,-3.3124,-3.3124,-3.3124,-3.3124,-3.3124,-3.3124,-3.3124,-2.6487,-2.6487,-2.6487,-2.6487,-2.6487,-2.6487,-2.6487,-2.6386,-2.5774,-2.5845,-2.6097,-2.5222,-2.4341,-2.3595,-2.3143,-2.2288,-2.1097,-1.9956,-1.9463,-1.9349,-1.8642,-1.8042,-1.8008,-1.8008,-1.8008,-1.8008,-1.8008,-1.8008,-1.8008,-1.8008,-1.8008,-1.8008,-1.8008,-1.8008,-1.8008,-1.8008,-1.8008,-1.8008,-1.7969,-1.7939,-1.7988,-1.7949,-1.7978,-1.7998,-1.8008,-1.8008,-1.8008,-1.8008,-1.8008,-1.8008,-1.8008,-1.8008,-1.8008,-1.8008,-1.8008,-1.8047,-1.8809,-1.9199,-1.9453,-2.0126,-2.0605,-2.0615,-2.0615,-2.0615,-2.0615,-2.0615,-2.0644,-2.0693,-2.0977,-2.12,-2.1434,-2.2002,-2.2432,-2.2588,-2.2867,-2.3081,-2.3101,-2.3101,-2.3101,-2.3101,-2.3101,-2.3149,-2.3227,-2.3652,-2.4082,-2.4424,-2.4863,-2.5293,-2.5537,-2.5693,-2.5771,-2.6207,-2.6897,-2.7992,-2.9085,-2.9897,-3.1089,-3.1965,-3.2568,-3.2754,-3.2875,-3.2842,-3.2767,-3.1964,-3.1436,-3.1436,-3.1763,-3.2608,-3.3074,-3.3124,-3.3124,-3.3124,-3.3124,-3.3124,-3.3124,-2.6487,-2.6487,-2.6487,-2.6487,-2.6487,-2.6487,-2.6487,-2.6361,-2.5435,-2.536,-2.5511,-2.4695,-2.3882,-2.3421,-2.2533,-2.1531,-2.0343,-1.9263,-1.8645,-1.8462,-1.8213,-1.8008,-1.8008,-1.8008,-1.8008,-1.8008,-1.8008,-1.8008,-1.8008,-1.8008,-1.7998,-1.8008,-1.7998,-1.7998,-1.8008,-1.7998,-1.8008,-1.7959,-1.7686,-1.7734,-1.793,-1.7715,-1.7705,-1.7988,-1.8008,-1.8008,-1.8008,-1.8008,-1.8008,-1.8008,-1.8008,-1.8008,-1.8008,-1.8027,-1.8047,-1.8174,-1.8799,-1.9297,-1.9463,-2.0088,-2.0576,-2.0615,-2.0615,-2.0615,-2.0615,-2.0615,-2.0723,-2.0967,-2.1161,-2.1514,-2.2041,-2.2415,-2.2637,-2.2886,-2.3023,-2.3101,-2.3101,-2.3101,-2.3101,-2.312,-2.3398,-2.3545,-2.3711,-2.4189,-2.4687,-2.4893,-2.5215,-2.5557,-2.5645,-2.5732,-2.5781,-2.6802,-2.7673,-2.8855,-2.9954,-3.0676,-3.1545,-3.2568,-3.2982,-3.2939,-3.2767,-3.2403,-3.2277,-3.1901,-3.165,-3.1574,-3.2026,-3.2667,-3.2898,-3.3124,-3.3124,-3.3124,-3.3124,-3.3124,-3.3124,-2.6487,-2.6487,-2.6487,-2.6487,-2.6487,-2.6487,-2.6487,-2.6273,-2.5322,-2.5109,-2.5156,-2.3801,-2.2927,-2.2515,-2.1375,-2.0362,-1.943,-1.8691,-1.834,-1.8301,-1.8096,-1.8018,-1.8008,-1.8008,-1.8008,-1.8008,-1.8008,-1.8008,-1.8008,-1.8008,-1.792,-1.7803,-1.793,-1.792,-1.7744,-1.7939,-1.8008,-1.7969,-1.7764,-1.7783,-1.7959,-1.7783,-1.7783,-1.7978,-1.8008,-1.8008,-1.8008,-1.8008,-1.8008,-1.8008,-1.8008,-1.8008,-1.8027,-1.8159,-1.8227,-1.8311,-1.9072,-1.9551,-1.9668,-2.0233,-2.0576,-2.0615,-2.0615,-2.0615,-2.0654,-2.0713,-2.1006,-2.1142,-2.1492,-2.2231,-2.2994,-2.335,-2.3325,-2.3153,-2.3101,-2.3101,-2.3101,-2.3101,-2.3101,-2.3188,-2.3496,-2.3789,-2.3818,-2.456,-2.4998,-2.5137,-2.541,-2.5615,-2.5684,-2.5781,-2.6235,-2.74,-2.8402,-2.9498,-3.0687,-3.15,-3.1965,-3.2896,-3.2998,-3.3023,-3.2792,-3.2303,-3.2177,-3.2077,-3.1863,-3.1851,-3.229,-3.2679,-3.2973,-3.3124,-3.3124,-3.3124,-3.3124,-3.3124,-3.3124,-2.6487,-2.6487,-2.6487,-2.6487,-2.6487,-2.6487,-2.6424,-2.6185,-2.5259,-2.4911,-2.4665,-2.2846,-2.1798,-2.1119,-2.0104,-1.909,-1.856,-1.8247,-1.8281,-1.8256,-1.8184,-1.8008,-1.8008,-1.8008,-1.8008,-1.8008,-1.8008,-1.8008,-1.8008,-1.8008,-1.7822,-1.7705,-1.7891,-1.7803,-1.7705,-1.7852,-1.7988,-1.7988,-1.7871,-1.7871,-1.7949,-1.7881,-1.7852,-1.7978,-1.8008,-1.8008,-1.8027,-1.8057,-1.8086,-1.8008,-1.8008,-1.8047,-1.8115,-1.8432,-1.8607,-1.8773,-1.9394,-1.9853,-1.9961,-2.0283,-2.0615,-2.0615,-2.0615,-2.0654,-2.0723,-2.0986,-2.121,-2.1473,-2.2048,-2.2782,-2.3604,-2.4272,-2.3935,-2.3299,-2.3101,-2.3101,-2.3101,-2.3101,-2.311,-2.3188,-2.3603,-2.3818,-2.4121,-2.456,-2.5204,-2.5322,-2.5605,-2.5896,-2.6149,-2.639,-2.721,-2.8402,-2.9315,-3.009,-3.1235,-3.2339,-3.2655,-3.3111,-3.2855,-3.2805,-3.2905,-3.2604,-3.239,-3.2227,-3.2114,-3.2177,-3.2428,-3.2754,-3.3048,-3.3124,-3.3124,-3.3124,-3.3124,-3.3124,-3.3124,-2.6487,-2.6487,-2.6487,-2.6487,-2.6487,-2.6487,-2.6223,-2.5724,-2.5096,-2.4265,-2.3289,-2.2281,-2.1097,-1.9788,-1.9395,-1.8872,-1.8208,-1.8057,-1.8052,-1.8096,-1.8086,-1.8008,-1.8008,-1.8008,-1.8008,-1.8008,-1.8008,-1.8008,-1.8008,-1.7998,-1.7969,-1.7891,-1.7891,-1.7959,-1.7881,-1.79,-1.8008,-1.7959,-1.7725,-1.7754,-1.791,-1.7734,-1.7734,-1.7969,-1.8008,-1.8008,-1.8086,-1.833,-1.8305,-1.8105,-1.8057,-1.8223,-1.8403,-1.8578,-1.8812,-1.9189,-1.9609,-1.9932,-1.999,-2.0322,-2.0615,-2.0615,-2.0625,-2.0762,-2.1074,-2.1132,-2.1541,-2.1999,-2.2422,-2.2837,-2.3332,-2.3428,-2.342,-2.3222,-2.3101,-2.311,-2.311,-2.311,-2.3266,-2.3613,-2.4004,-2.4404,-2.4783,-2.5156,-2.5498,-2.5528,-2.5818,-2.6177,-2.6572,-2.6993,-2.8085,-2.9269,-3.0,-3.0822,-3.1833,-3.2673,-3.2796,-3.3023,-3.2805,-3.2629,-3.2717,-3.283,-3.2604,-3.2491,-3.2441,-3.2554,-3.2692,-3.283,-3.3124,-3.3124,-3.3124,-3.3124,-3.3124,-3.3124,-3.3124,-2.6487,-2.6487,-2.6487,-2.6336,-2.6076,-2.6072,-2.5749,-2.5197,-2.4637,-2.3767,-2.2655,-2.1756,-2.0537,-1.9309,-1.8877,-1.8405,-1.811,-1.8008,-1.8008,-1.8018,-1.8008,-1.8008,-1.8008,-1.8008,-1.8008,-1.8008,-1.8008,-1.8008,-1.8008,-1.7988,-1.79,-1.7764,-1.79,-1.7861,-1.7793,-1.791,-1.7998,-1.7988,-1.7812,-1.7803,-1.792,-1.7812,-1.7734,-1.7969,-1.8008,-1.8008,-1.8037,-1.8383,-1.8477,-1.8408,-1.8496,-1.8584,-1.8685,-1.8978,-1.9309,-1.959,-1.998,-2.0205,-2.0312,-2.0458,-2.0615,-2.0615,-2.0615,-2.083,-2.1182,-2.1366,-2.1785,-2.2373,-2.2643,-2.2877,-2.3105,-2.3757,-2.3671,-2.3178,-2.3101,-2.3179,-2.3344,-2.3447,-2.3516,-2.3867,-2.4326,-2.4707,-2.5127,-2.5518,-2.5615,-2.5606,-2.5761,-2.6159,-2.704,-2.7542,-2.8808,-2.9909,-3.0631,-3.15,-3.2525,-3.2963,-3.2782,-3.2842,-3.278,-3.2591,-3.2528,-3.2667,-3.2767,-3.2729,-3.2717,-3.2805,-3.2973,-3.3099,-3.3124,-3.3124,-3.3124,-3.3124,-3.3124,-3.3124,-3.3124,-2.6449,-2.6373,-2.6461,-2.6109,-2.5548,-2.5561,-2.5272,-2.4657,-2.4205,-2.3364,-2.2312,-2.1049,-2.0107,-1.911,-1.8361,-1.8042,-1.8008,-1.8008,-1.8008,-1.8008,-1.8008,-1.8008,-1.8008,-1.8008,-1.8008,-1.8008,-1.8008,-1.8008,-1.8008,-1.7988,-1.7891,-1.7627,-1.7822,-1.7871,-1.7676,-1.7803,-1.8008,-1.7998,-1.7969,-1.7959,-1.7998,-1.7969,-1.7988,-1.7998,-1.8008,-1.8008,-1.8115,-1.8432,-1.8676,-1.8637,-1.918,-1.9199,-1.9131,-1.9387,-1.998,-2.0,-2.038,-2.0507,-2.0527,-2.0586,-2.0615,-2.0615,-2.0713,-2.0898,-2.1318,-2.1758,-2.2187,-2.2559,-2.2857,-2.3042,-2.3178,-2.3671,-2.38,-2.3363,-2.314,-2.3408,-2.3746,-2.3992,-2.4405,-2.4141,-2.459,-2.498,-2.5244,-2.5557,-2.5606,-2.5732,-2.5878,-2.6342,-2.7268,-2.8412,-2.9772,-3.0866,-3.1645,-3.1965,-3.284,-3.286,-3.2692,-3.2817,-3.2767,-3.2641,-3.2516,-3.2729,-3.2918,-3.3036,-3.3061,-3.3086,-3.3086,-3.3111,-3.3124,-3.3124,-3.3124,-3.3124,-3.3124,-3.3124,-3.3174,-2.621,-2.5774,-2.6298,-2.5908,-2.5064,-2.5398,-2.4996,-2.4217,-2.3973,-2.2793,-2.1101,-2.0667,-1.9661,-1.8563,-1.8134,-1.8008,-1.8008,-1.8008,-1.8008,-1.8008,-1.8008,-1.8008,-1.8008,-1.8008,-1.8008,-1.8008,-1.8008,-1.8008,-1.8008,-1.7998,-1.7949,-1.791,-1.7959,-1.792,-1.791,-1.7978,-1.8008,-1.8008,-1.8008,-1.8008,-1.8008,-1.8008,-1.8008,-1.8008,-1.8008,-1.8037,-1.8213,-1.873,-1.9023,-1.8763,-1.9746,-1.9971,-1.9805,-1.9853,-2.0098,-2.0342,-2.0527,-2.0615,-2.0615,-2.0615,-2.0615,-2.0683,-2.0869,-2.1309,-2.1738,-2.2139,-2.25,-2.2808,-2.3003,-2.3101,-2.3101,-2.342,-2.3387,-2.3213,-2.356,-2.3895,-2.4302,-2.5199,-2.59,-2.551,-2.5434,-2.5205,-2.543,-2.5596,-2.5615,-2.6014,-2.6476,-2.7258,-2.8366,-2.9647,-3.1045,-3.1965,-3.2754,-3.2884,-3.3081,-3.2704,-3.2491,-3.2792,-3.283,-3.278,-3.2742,-3.293,-3.3068,-3.3124,-3.3124,-3.3111,-3.3111,-3.3124,-3.3124,-3.3124,-3.3124,-3.3124,-3.3124,-3.3149,-3.337,-2.5883,-2.5611,-2.5624,-2.5146,-2.4519,-2.4644,-2.4318,-2.3535,-2.3065,-2.2052,-2.0839,-2.0107,-1.9243,-1.8269,-1.8008,-1.8008,-1.8008,-1.8008,-1.8008,-1.8008,-1.8008,-1.8008,-1.8008,-1.8008,-1.8008,-1.8008,-1.8008,-1.8008,-1.8008,-1.8008,-1.8008,-1.7998,-1.8008,-1.8008,-1.8008,-1.7998,-1.8008,-1.8008,-1.8008,-1.8008,-1.8008,-1.8008,-1.8008,-1.8008,-1.8037,-1.8125,-1.8437,-1.8896,-1.9297,-1.9463,-2.0107,-2.039,-2.0351,-2.0264,-2.0332,-2.0566,-2.0615,-2.0615,-2.0615,-2.0625,-2.0693,-2.0918,-2.1143,-2.1522,-2.2041,-2.2422,-2.2715,-2.2964,-2.3101,-2.3101,-2.3101,-2.3178,-2.3387,-2.3957,-2.4466,-2.5067,-2.592,-2.713,-2.7278,-2.7055,-2.6936,-2.652,-2.5596,-2.5654,-2.5674,-2.6197,-2.6945,-2.8132,-2.9407,-3.0643,-3.1909,-3.2469,-3.3081,-3.3081,-3.3124,-3.2885,-3.2566,-3.2792,-3.2918,-3.2867,-3.288,-3.3031,-3.3124,-3.3124,-3.3124,-3.3124,-3.3124,-3.3124,-3.3124,-3.3124,-3.3124,-3.3124,-3.3124,-3.3212,-3.3407,-2.5473,-2.5247,-2.4946,-2.4412,-2.3904,-2.3966,-2.3567,-2.2837,-2.2211,-2.1356,-2.029,-1.9617,-1.8844,-1.8168,-1.8008,-1.8008,-1.8008,-1.8008,-1.8008,-1.8008,-1.8008,-1.8008,-1.8008,-1.8008,-1.8008,-1.8008,-1.8008,-1.8008,-1.8008,-1.8008,-1.8008,-1.8008,-1.8008,-1.8008,-1.8008,-1.8008,-1.8008,-1.8008,-1.8008,-1.8008,-1.8008,-1.8008,-1.8008,-1.8037,-1.8052,-1.8276,-1.8559,-1.917,-1.9561,-1.9863,-2.0264,-2.0605,-2.0605,-2.0605,-2.0605,-2.0615,-2.0615,-2.0615,-2.0615,-2.0615,-2.0732,-2.1123,-2.1299,-2.1787,-2.2243,-2.2598,-2.276,-2.3023,-2.343,-2.3551,-2.3637,-2.3724,-2.4325,-2.5146,-2.5851,-2.6541,-2.7646,-2.8556,-2.897,-2.8805,-2.8555,-2.7804,-2.6839,-2.6935,-2.7163,-2.72,-2.7992,-2.9039,-3.0271,-3.1223,-3.2239,-3.2754,-3.3124,-3.3124,-3.3124,-3.3124,-3.2948,-3.2986,-3.3061,-3.3036,-3.3061,-3.3111,-3.3124,-3.3124,-3.3124,-3.3124,-3.3124,-3.3124,-3.3124,-3.3124,-3.3124,-3.3124,-3.3124,-3.3199,-3.3332,-2.5046,-2.423,-2.46,-2.4186,-2.3371,-2.3766,-2.3238,-2.213,-2.1908,-2.0942,-1.9552,-1.9299,-1.8754,-1.8168,-1.8008,-1.8008,-1.8008,-1.8008,-1.8008,-1.8008,-1.8008,-1.8008,-1.8008,-1.8008,-1.8008,-1.8008,-1.8008,-1.8008,-1.8008,-1.8008,-1.8008,-1.8008,-1.8008,-1.8008,-1.8008,-1.8008,-1.8008,-1.8008,-1.8018,-1.8027,-1.8027,-1.8047,-1.8096,-1.8135,-1.8334,-1.8607,-1.8812,-1.9404,-1.9844,-1.9961,-2.038,-2.0586,-2.0615,-2.0615,-2.0615,-2.0615,-2.0615,-2.0615,-2.0615,-2.0674,-2.084,-2.1299,-2.1602,-2.2021,-2.248,-2.2808,-2.2984,-2.3096,-2.3877,-2.4414,-2.4553,-2.5389,-2.6237,-2.6801,-2.7307,-2.7951,-2.8875,-3.0144,-3.0533,-3.0481,-3.0169,-2.9143,-2.8085,-2.8448,-2.8773,-2.8762,-2.9028,-3.0079,-3.0989,-3.1865,-3.2469,-3.2939,-3.3124,-3.3124,-3.3124,-3.3124,-3.3124,-3.3124,-3.3124,-3.3124,-3.3124,-3.3124,-3.3124,-3.3124,-3.3124,-3.3124,-3.3124,-3.3124,-3.3124,-3.3124,-3.3124,-3.3124,-3.3124,-3.3224,-3.3282,-2.4707,-2.4004,-2.3873,-2.3559,-2.3158,-2.3384,-2.2893,-2.1956,-2.1365,-2.0462,-1.9332,-1.8754,-1.8337,-1.8042,-1.8008,-1.8008,-1.8008,-1.8008,-1.8008,-1.8008,-1.8008,-1.8008,-1.8008,-1.8008,-1.8008,-1.8008,-1.8008,-1.8008,-1.8008,-1.8008,-1.8008,-1.8008,-1.8008,-1.8008,-1.8008,-1.8008,-1.8008,-1.8076,-1.8169,-1.8223,-1.8159,-1.8428,-1.8613,-1.8373,-1.8754,-1.9036,-1.9348,-1.9602,-2.0059,-2.0215,-2.0546,-2.0595,-2.0615,-2.0615,-2.0615,-2.0615,-2.0615,-2.0615,-2.0635,-2.0801,-2.1143,-2.1572,-2.2002,-2.2432,-2.2793,-2.2964,-2.3101,-2.3091,-2.4125,-2.4755,-2.5083,-2.5839,-2.7001,-2.787,-2.8742,-2.9628,-3.0407,-3.1395,-3.2115,-3.1952,-3.1689,-3.0643,-2.9681,-2.9544,-2.9636,-2.9453,-2.9818,-3.0721,-3.15,-3.2183,-3.2655,-3.3025,-3.3124,-3.3124,-3.3124,-3.3124,-3.3124,-3.3124,-3.3124,-3.3124,-3.3124,-3.3124,-3.3124,-3.3124,-3.3124,-3.3124,-3.3124,-3.3124,-3.3124,-3.3124,-3.3124,-3.3124,-3.3124,-3.3174,-3.3382,-2.4293,-2.374,-2.3283,-2.3095,-2.3065,-2.2884,-2.2322,-2.1491,-2.0666,-1.9781,-1.9011,-1.8327,-1.8042,-1.8008,-1.8008,-1.8008,-1.8008,-1.8008,-1.8008,-1.8008,-1.8008,-1.8008,-1.8008,-1.8008,-1.8008,-1.8008,-1.8008,-1.8008,-1.8008,-1.8008,-1.8008,-1.8008,-1.8008,-1.8008,-1.8008,-1.8008,-1.8008,-1.8037,-1.8364,-1.8393,-1.8369,-1.8887,-1.8984,-1.9023,-1.9209,-1.959,-1.9826,-2.0068,-2.0303,-2.0498,-2.0586,-2.0615,-2.0615,-2.0615,-2.0615,-2.0615,-2.0615,-2.0693,-2.0801,-2.1045,-2.1445,-2.1885,-2.2393,-2.275,-2.2974,-2.3101,-2.3387,-2.3594,-2.4681,-2.5294,-2.5808,-2.6891,-2.8275,-2.9366,-3.012,-3.1176,-3.2062,-3.2511,-3.2797,-3.2612,-3.2426,-3.237,-3.15,-3.081,-3.0496,-3.0181,-3.0643,-3.1456,-3.2008,-3.2556,-3.2797,-3.3124,-3.3124,-3.3124,-3.3124,-3.3124,-3.3124,-3.3124,-3.3124,-3.3124,-3.3124,-3.3124,-3.3124,-3.3124,-3.3124,-3.3124,-3.3124,-3.3124,-3.3124,-3.3124,-3.3124,-3.3124,-3.3136,-3.3212,-3.3545,-2.3684,-2.3158,-2.312,-2.3095,-2.3047,-2.2292,-2.1522,-2.0762,-1.9857,-1.9054,-1.8269,-1.8042,-1.8008,-1.8008,-1.8008,-1.8008,-1.8008,-1.8008,-1.8008,-1.8008,-1.8008,-1.8008,-1.8008,-1.8008,-1.8008,-1.8008,-1.8008,-1.8008,-1.8008,-1.8008,-1.8008,-1.8008,-1.8008,-1.8008,-1.8008,-1.8008,-1.8066,-1.811,-1.8432,-1.8627,-1.8685,-1.9062,-1.9287,-1.9365,-1.9619,-1.9865,-1.9951,-2.0264,-2.0469,-2.0615,-2.0615,-2.0615,-2.0615,-2.0615,-2.0615,-2.0615,-2.0664,-2.0801,-2.1045,-2.12,-2.1484,-2.1973,-2.2529,-2.2984,-2.3081,-2.3135,-2.3584,-2.4542,-2.5546,-2.6666,-2.7795,-2.9205,-2.9942,-3.0556,-3.1079,-3.1816,-3.2494,-3.2744,-3.3025,-3.3081,-3.2982,-3.2797,-3.2742,-3.1965,-3.1601,-3.1323,-3.1601,-3.2382,-3.2525,-3.2939,-3.2982,-3.3124,-3.3124,-3.3124,-3.3124,-3.3124,-3.3124,-3.3124,-3.3124,-3.3124,-3.3124,-3.3124,-3.3124,-3.3124,-3.3124,-3.3124,-3.3124,-3.3124,-3.3124,-3.3124,-3.3136,-3.3174,-3.3382,-3.3621,-3.4022,-2.3653,-2.3108,-2.3095,-2.3095,-2.3078,-2.2763,-2.1865,-2.0687,-2.0236,-1.9266,-1.8008,-1.8008,-1.8008,-1.8008,-1.8008,-1.8008,-1.8008,-1.8008,-1.8008,-1.8008,-1.8008,-1.8008,-1.8008,-1.8008,-1.8008,-1.8008,-1.8008,-1.8008,-1.8008,-1.8008,-1.8008,-1.8008,-1.8008,-1.8008,-1.8008,-1.8057,-1.813,-1.8344,-1.8539,-1.8705,-1.9102,-1.9434,-1.9678,-1.9707,-2.0098,-2.0293,-2.039,-2.0507,-2.0586,-2.0615,-2.0615,-2.0615,-2.0615,-2.0615,-2.0615,-2.0664,-2.0771,-2.1045,-2.1229,-2.1483,-2.1924,-2.2506,-2.2916,-2.3101,-2.3178,-2.3671,-2.4168,-2.5168,-2.6461,-2.7654,-2.8139,-2.9518,-3.0651,-3.1283,-3.1901,-3.2491,-3.2817,-3.3061,-3.3124,-3.3124,-3.3124,-3.3025,-3.3025,-3.2982,-3.2711,-3.2525,-3.2853,-3.3124,-3.3124,-3.3124,-3.3124,-3.3124,-3.3124,-3.3124,-3.3124,-3.3124,-3.3124,-3.3124,-3.3124,-3.3124,-3.3124,-3.3124,-3.3124,-3.3124,-3.3136,-3.3162,-3.3162,-3.3136,-3.3162,-3.3237,-3.3275,-3.3244,-3.3571,-3.4035,-3.4512,-2.3484,-2.312,-2.3095,-2.3095,-2.3035,-2.2567,-2.171,-2.0655,-1.9944,-1.9243,-1.8008,-1.8008,-1.8008,-1.8008,-1.8008,-1.8008,-1.8008,-1.8008,-1.8008,-1.8008,-1.8008,-1.8008,-1.8008,-1.8008,-1.8008,-1.8008,-1.8008,-1.8008,-1.8008,-1.8008,-1.8008,-1.8008,-1.8008,-1.8008,-1.8037,-1.8164,-1.8315,-1.8539,-1.8919,-1.9111,-1.9512,-1.9873,-2.0107,-2.0127,-2.04,-2.0537,-2.0556,-2.0595,-2.0595,-2.0615,-2.0615,-2.0615,-2.0615,-2.0615,-2.0615,-2.0713,-2.0957,-2.1229,-2.1504,-2.1865,-2.2383,-2.2886,-2.3033,-2.3101,-2.3387,-2.4135,-2.4755,-2.5504,-2.7035,-2.8275,-2.8607,-3.0198,-3.1135,-3.1712,-3.2265,-3.2805,-3.296,-3.3124,-3.3124,-3.3124,-3.3124,-3.3124,-3.3124,-3.3124,-3.3025,-3.284,-3.2939,-3.3124,-3.3124,-3.3124,-3.3124,-3.3124,-3.3124,-3.3124,-3.3124,-3.3124,-3.3124,-3.3124,-3.3124,-3.3124,-3.3124,-3.3124,-3.3124,-3.3124,-3.3149,-3.3199,-3.3338,-3.3458,-3.3432,-3.337,-3.3545,-3.3834,-3.4085,-3.4562,-3.4893,-2.3133,-2.3095,-2.3095,-2.3095,-2.2914,-2.1385,-2.0707,-2.0398,-1.8977,-1.8202,-1.8008,-1.8008,-1.8008,-1.8008,-1.8008,-1.8008,-1.8008,-1.8008,-1.8008,-1.8008,-1.8008,-1.8008,-1.8008,-1.8008,-1.8008,-1.8008,-1.8008,-1.8008,-1.8008,-1.8008,-1.8008,-1.8008,-1.8008,-1.8047,-1.8057,-1.8383,-1.8578,-1.8724,-1.9436,-1.9668,-1.9961,-2.0234,-2.0312,-2.0507,-2.0546,-2.0615,-2.0615,-2.0615,-2.0615,-2.0615,-2.0615,-2.0615,-2.0615,-2.0683,-2.0703,-2.0684,-2.1103,-2.1504,-2.1875,-2.2275,-2.2662,-2.3013,-2.3101,-2.3101,-2.3353,-2.4178,-2.5294,-2.6099,-2.7603,-2.8951,-2.9992,-3.1019,-3.1546,-3.2014,-3.2554,-3.296,-3.3074,-3.3124,-3.3124,-3.3124,-3.3124,-3.3124,-3.3124,-3.3124,-3.3124,-3.3081,-3.3081,-3.3124,-3.3124,-3.3124,-3.3124,-3.3124,-3.3124,-3.3124,-3.3124,-3.3124,-3.3124,-3.3124,-3.3124,-3.3124,-3.3124,-3.3124,-3.3124,-3.3149,-3.3312,-3.3445,-3.3684,-3.3909,-3.4022,-3.4186,-3.4412,-3.4675,-3.4831,-3.5102,-3.5479,-2.3095,-2.3095,-2.3095,-2.3095,-2.2944,-2.1939,-2.1132,-2.0365,-1.8877,-1.8008,-1.8008,-1.8008,-1.8008,-1.8008,-1.8008,-1.8008,-1.8008,-1.8008,-1.8008,-1.8008,-1.8008,-1.8008,-1.8008,-1.8008,-1.8008,-1.8008,-1.8008,-1.8008,-1.8008,-1.8008,-1.8008,-1.8008,-1.8086,-1.8184,-1.8344,-1.8617,-1.8792,-1.9346,-1.96,-1.9707,-2.0244,-2.0254,-2.0293,-2.0595,-2.0615,-2.0615,-2.0615,-2.0615,-2.0615,-2.0615,-2.0615,-2.0615,-2.0683,-2.0781,-2.0986,-2.1152,-2.1551,-2.2223,-2.2598,-2.2847,-2.2925,-2.3062,-2.3101,-2.3101,-2.3222,-2.4935,-2.5933,-2.6903,-2.8481,-2.9696,-3.0566,-3.1433,-3.2014,-3.2202,-3.2604,-3.2973,-3.3124,-3.3124,-3.3124,-3.3124,-3.3124,-3.3124,-3.3124,-3.3124,-3.3124,-3.3124,-3.3124,-3.3124,-3.3124,-3.3124,-3.3124,-3.3124,-3.3124,-3.3124,-3.3124,-3.3124,-3.3124,-3.3124,-3.3124,-3.3124,-3.3124,-3.3262,-3.3407,-3.3596,-3.3671,-3.3771,-3.4198,-3.46,-3.4856,-3.5082,-3.5182,-3.5265,-3.5353,-3.5629,-3.6019,-2.3095,-2.3095,-2.3095,-2.3095,-2.2914,-2.1928,-2.0814,-1.9661,-1.8496,-1.8008,-1.8008,-1.8008,-1.8008,-1.8008,-1.8008,-1.8008,-1.8008,-1.8008,-1.8008,-1.8008,-1.8008,-1.8008,-1.8008,-1.8008,-1.8008,-1.8008,-1.8008,-1.8008,-1.8008,-1.8008,-1.8115,-1.8223,-1.8232,-1.8598,-1.8841,-1.9065,-1.9189,-1.9678,-1.9863,-2.0059,-2.039,-2.0429,-2.0351,-2.0537,-2.0615,-2.0615,-2.0615,-2.0615,-2.0615,-2.0615,-2.0615,-2.0615,-2.0742,-2.0947,-2.1171,-2.1424,-2.1951,-2.2584,-2.2925,-2.3042,-2.3062,-2.3091,-2.3101,-2.3101,-2.3517,-2.5147,-2.6212,-2.7461,-2.9233,-3.0353,-3.1117,-3.1943,-3.2277,-3.2466,-3.2717,-3.3086,-3.3124,-3.3124,-3.3124,-3.3124,-3.3124,-3.3124,-3.3124,-3.3124,-3.3124,-3.3124,-3.3124,-3.3124,-3.3124,-3.3124,-3.3124,-3.3124,-3.3136,-3.3136,-3.3136,-3.3124,-3.3124,-3.3124,-3.325,-3.34,-3.352,-3.3721,-3.3909,-3.4073,-3.4198,-3.4424,-3.4914,-3.5257,-3.5554,-3.5717,-3.5793,-3.583,-3.5843,-3.6044,-3.6392,-2.3095,-2.3095,-2.3095,-2.3095,-2.2811,-2.1396,-1.9694,-1.8134,-1.8052,-1.8008,-1.8008,-1.8008,-1.8008,-1.8008,-1.8008,-1.8008,-1.8008,-1.8008,-1.8008,-1.8008,-1.8008,-1.8008,-1.8008,-1.8008,-1.8008,-1.8008,-1.8008,-1.8008,-1.8008,-1.8008,-1.8203,-1.8422,-1.8451,-1.888,-1.9268,-1.9473,-1.958,-1.9971,-2.0244,-2.0419,-2.0556,-2.0576,-2.0537,-2.0615,-2.0615,-2.0615,-2.0615,-2.0615,-2.0615,-2.0615,-2.0615,-2.0625,-2.0772,-2.1016,-2.1142,-2.1522,-2.2185,-2.2662,-2.3003,-2.3091,-2.3101,-2.3101,-2.3101,-2.3101,-2.3667,-2.4988,-2.6082,-2.736,-2.8958,-3.0484,-3.1768,-3.2126,-3.2528,-3.2742,-3.3011,-3.3124,-3.3124,-3.3124,-3.3124,-3.3124,-3.3124,-3.3124,-3.3124,-3.3124,-3.3124,-3.3124,-3.3124,-3.3124,-3.3124,-3.3124,-3.3124,-3.3124,-3.3136,-3.3119,-3.3187,-3.3312,-3.3495,-3.3621,-3.3784,-3.3947,-3.4098,-3.4236,-3.4424,-3.4587,-3.4738,-3.5052,-3.5504,-3.5868,-3.6204,-3.6304,-3.6157,-3.6157,-3.6094,-3.6157,-3.6417,-2.3095,-2.3095,-2.3095,-2.3095,-2.2854,-2.129,-1.9595,-1.811,-1.8008,-1.8008,-1.8008,-1.8008,-1.8008,-1.8008,-1.8008,-1.8008,-1.8008,-1.8008,-1.8008,-1.8008,-1.8008,-1.8008,-1.8008,-1.8008,-1.8008,-1.8008,-1.8008,-1.8008,-1.8008,-1.8008,-1.8027,-1.8139,-1.8539,-1.8997,-1.9394,-1.9658,-1.998,-2.0254,-2.0537,-2.0586,-2.0615,-2.0615,-2.0615,-2.0615,-2.0615,-2.0615,-2.0615,-2.0615,-2.0615,-2.0635,-2.0615,-2.0693,-2.1064,-2.1475,-2.1836,-2.2506,-2.2828,-2.2994,-2.3081,-2.3101,-2.3101,-2.3101,-2.3101,-2.3101,-2.3587,-2.4553,-2.5819,-2.7067,-2.8866,-3.0555,-3.1607,-3.2091,-3.2559,-3.2918,-3.3124,-3.3124,-3.3124,-3.3124,-3.3124,-3.3124,-3.3124,-3.3124,-3.3124,-3.3124,-3.3124,-3.3124,-3.3124,-3.3124,-3.3124,-3.3124,-3.3124,-3.3124,-3.3174,-3.3156,-3.3495,-3.3684,-3.396,-3.4198,-3.4349,-3.4474,-3.4562,-3.4713,-3.4881,-3.5152,-3.5378,-3.5692,-3.6056,-3.6355,-3.6417,-3.6417,-3.6342,-3.638,-3.6417,-3.6417,-3.6417,-2.3095,-2.3078,-2.2763,-2.2249,-2.1479,-2.0515,-1.9266,-1.8134,-1.8008,-1.8008,-1.8008,-1.8008,-1.8008,-1.8008,-1.8008,-1.8008,-1.8008,-1.8008,-1.8008,-1.8008,-1.8008,-1.8008,-1.8008,-1.8008,-1.8008,-1.8008,-1.8008,-1.8008,-1.8008,-1.8027,-1.8022,-1.8315,-1.8646,-1.9111,-1.9551,-1.9971,-2.0283,-2.0498,-2.0605,-2.0615,-2.0615,-2.0615,-2.0615,-2.0615,-2.0615,-2.0615,-2.0615,-2.0615,-2.0674,-2.0771,-2.082,-2.1045,-2.1424,-2.1914,-2.2353,-2.2896,-2.3033,-2.3062,-2.3101,-2.3101,-2.3101,-2.3101,-2.3101,-2.3101,-2.3622,-2.4492,-2.537,-2.6398,-2.8722,-3.062,-3.1329,-3.1963,-3.2543,-3.3124,-3.3124,-3.3124,-3.3124,-3.3124,-3.3124,-3.3124,-3.3124,-3.3124,-3.3124,-3.3124,-3.3124,-3.3124,-3.3124,-3.3124,-3.3124,-3.3124,-3.3124,-3.3124,-3.3144,-3.3219,-3.3646,-3.4098,-3.4299,-3.4587,-3.4843,-3.4956,-3.5006,-3.529,-3.5604,-3.5843,-3.6056,-3.6292,-3.6342,-3.6367,-3.6417,-3.6417,-3.6417,-3.6417,-3.6417,-3.6417,-3.6417,-2.3095,-2.3047,-2.2218,-2.1005,-1.9431,-1.9365,-1.8844,-1.8042,-1.8008,-1.8008,-1.8008,-1.8008,-1.8008,-1.8008,-1.8008,-1.8008,-1.8008,-1.8008,-1.8008,-1.8008,-1.8008,-1.8008,-1.8008,-1.8008,-1.8008,-1.8008,-1.8008,-1.8008,-1.8008,-1.8037,-1.8178,-1.8598,-1.9023,-1.9414,-1.9805,-2.0244,-2.0527,-2.0566,-2.0615,-2.0615,-2.0615,-2.0615,-2.0615,-2.0615,-2.0615,-2.0615,-2.0615,-2.0683,-2.0771,-2.1064,-2.1229,-2.1416,-2.1904,-2.2334,-2.2773,-2.2925,-2.3081,-2.3101,-2.3101,-2.3101,-2.3101,-2.3101,-2.3101,-2.3169,-2.3687,-2.436,-2.5104,-2.602,-2.8099,-2.9819,-3.0711,-3.203,-3.2902,-3.3124,-3.3124,-3.3124,-3.3124,-3.3124,-3.3124,-3.3124,-3.3124,-3.3124,-3.3124,-3.3124,-3.3124,-3.3124,-3.3124,-3.3124,-3.3287,-3.3287,-3.3338,-3.3325,-3.3357,-3.3596,-3.4161,-3.4525,-3.4613,-3.4889,-3.5316,-3.5495,-3.5604,-3.5918,-3.6355,-3.6367,-3.6317,-3.6355,-3.6405,-3.6417,-3.6417,-3.6417,-3.6417,-3.6417,-3.6417,-3.6417,-3.6417,-2.3095,-2.3035,-2.223,-2.0921,-1.9398,-1.9299,-1.8787,-1.8042,-1.8008,-1.8008,-1.8008,-1.8008,-1.8008,-1.8008,-1.8008,-1.8008,-1.8008,-1.8008,-1.8008,-1.8008,-1.8008,-1.8008,-1.8008,-1.8008,-1.8008,-1.8008,-1.8008,-1.8008,-1.8018,-1.8066,-1.8232,-1.8607,-1.9102,-1.9561,-1.9912,-2.0342,-2.0595,-2.0615,-2.0615,-2.0615,-2.0615,-2.0615,-2.0615,-2.0615,-2.0615,-2.0615,-2.0615,-2.0625,-2.084,-2.1093,-2.1171,-2.159,-2.2314,-2.2744,-2.2945,-2.3071,-2.3101,-2.3101,-2.3101,-2.3101,-2.3101,-2.3101,-2.314,-2.3369,-2.3722,-2.4295,-2.5068,-2.6005,-2.7262,-2.8856,-3.0405,-3.1952,-3.3124,-3.3124,-3.3124,-3.3124,-3.3124,-3.3124,-3.3124,-3.3124,-3.3124,-3.3124,-3.3124,-3.3124,-3.3124,-3.3124,-3.3124,-3.3224,-3.3558,-3.3709,-3.3847,-3.3847,-3.3759,-3.4035,-3.4613,-3.4989,-3.509,-3.5441,-3.5893,-3.6056,-3.6119,-3.6245,-3.6417,-3.6417,-3.6405,-3.6417,-3.6417,-3.6417,-3.6417,-3.6417,-3.6417,-3.6417,-3.6417,-3.6417,-3.6417,-2.3095,-2.2944,-2.1815,-2.0301,-1.8911,-1.8721,-1.8428,-1.8066,-1.8008,-1.8008,-1.8008,-1.8008,-1.8008,-1.8008,-1.8008,-1.8008,-1.8008,-1.8008,-1.8008,-1.8008,-1.8008,-1.8008,-1.8008,-1.8008,-1.8008,-1.8008,-1.8008,-1.8018,-1.7993,-1.8217,-1.8451,-1.8695,-1.9189,-1.9668,-1.998,-2.0322,-2.0615,-2.0615,-2.0615,-2.0615,-2.0615,-2.0615,-2.0615,-2.0615,-2.0615,-2.0615,-2.0615,-2.0654,-2.0977,-2.1504,-2.1863,-2.2214,-2.2711,-2.2945,-2.3062,-2.3091,-2.3101,-2.3101,-2.3101,-2.3101,-2.3101,-2.3101,-2.311,-2.3276,-2.3935,-2.4591,-2.5675,-2.6648,-2.7974,-2.9545,-3.0742,-3.2196,-3.2896,-3.3124,-3.3124,-3.3124,-3.3124,-3.3124,-3.3124,-3.3124,-3.3124,-3.3124,-3.3124,-3.3124,-3.3136,-3.3212,-3.3199,-3.347,-3.3822,-3.4236,-3.4361,-3.4474,-3.4437,-3.4587,-3.5044,-3.537,-3.5579,-3.5981,-3.6405,-3.6367,-3.6245,-3.6355,-3.6417,-3.6417,-3.6417,-3.6417,-3.6417,-3.6417,-3.6417,-3.6417,-3.6417,-3.6417,-3.6417,-3.6417,-3.6417,-2.2975,-2.2555,-2.1227,-1.9617,-1.8144,-1.8008,-1.8008,-1.8008,-1.8008,-1.8008,-1.8008,-1.8008,-1.8008,-1.8008,-1.8008,-1.8008,-1.8008,-1.8008,-1.8008,-1.8008,-1.8008,-1.8008,-1.8008,-1.8008,-1.8008,-1.8008,-1.8008,-1.8018,-1.8018,-1.8217,-1.8461,-1.8773,-1.928,-1.9855,-2.0078,-2.0351,-2.0615,-2.0615,-2.0615,-2.0615,-2.0615,-2.0615,-2.0615,-2.0615,-2.0615,-2.0615,-2.0615,-2.0742,-2.1114,-2.1787,-2.2448,-2.2799,-2.2955,-2.3062,-2.3071,-2.3101,-2.3101,-2.3101,-2.3101,-2.3101,-2.3101,-2.3101,-2.312,-2.3506,-2.4152,-2.5193,-2.625,-2.7584,-2.8932,-3.0022,-3.1223,-3.2152,-3.2754,-3.3124,-3.3124,-3.3124,-3.3124,-3.3124,-3.3124,-3.3124,-3.3124,-3.3124,-3.3124,-3.3124,-3.3212,-3.3244,-3.3483,-3.3822,-3.4198,-3.4663,-3.4989,-3.5165,-3.5253,-3.5466,-3.5633,-3.5768,-3.5943,-3.6094,-3.6417,-3.6417,-3.6417,-3.6417,-3.6417,-3.6417,-3.6417,-3.6417,-3.6417,-3.6417,-3.6417,-3.6417,-3.6417,-3.6417,-3.6417,-3.6417,-3.6417,-2.2279,-2.1037,-2.0707,-1.9617,-1.8168,-1.8008,-1.8008,-1.8008,-1.8008,-1.8008,-1.8008,-1.8008,-1.8008,-1.8008,-1.8008,-1.8008,-1.8008,-1.8008,-1.8008,-1.8008,-1.8008,-1.8008,-1.8008,-1.8008,-1.8008,-1.8047,-1.8076,-1.8037,-1.8291,-1.832,-1.8535,-1.9131,-1.9238,-1.9785,-2.0429,-2.0595,-2.0615,-2.0615,-2.0615,-2.0615,-2.0615,-2.0615,-2.0615,-2.0615,-2.0615,-2.0615,-2.0615,-2.0615,-2.1143,-2.1836,-2.2637,-2.2974,-2.3101,-2.3101,-2.3101,-2.3101,-2.3101,-2.3101,-2.3101,-2.3101,-2.3101,-2.313,-2.3276,-2.3769,-2.468,-2.5914,-2.7189,-2.8685,-2.9897,-3.0721,-3.1777,-3.2481,-3.3081,-3.3124,-3.3124,-3.3124,-3.3124,-3.3124,-3.3124,-3.3124,-3.3124,-3.3124,-3.3124,-3.3199,-3.3319,-3.347,-3.3771,-3.4161,-3.4831,-3.5207,-3.552,-3.573,-3.5918,-3.6153,-3.6267,-3.6119,-3.6267,-3.6367,-3.6417,-3.6417,-3.6417,-3.6417,-3.6417,-3.6417,-3.6417,-3.6417,-3.6417,-3.6417,-3.6417,-3.6417,-3.6417,-3.6417,-3.6417,-3.6417,-3.6417]},{"header":{"parameterUnit":"m.s-1","parameterCategory":1,"la1":31.0,"la2":29.5877,"lo1":-88.7671,"lo2":-86.6584,"dy":0.0162,"dx":0.0185,"nx":115,"ny":88,"refTime":"2026-04-12T12:00:00:Z","depth":0,"parameterNumber":3,"parameterNumberName":"V-component_of_WINDS"},"data":[0.0,0.0,0.0,0.0,0.0,0.0,0.0,0.0,0.0,0.0,0.0,0.0,0.0,0.0,0.0,0.0,0.0,0.0,0.0,0.0,0.0,0.0,0.0,0.0,0.0,0.0,0.0,0.0,0.0,0.0,0.0,0.0,0.0,0.0,0.0,0.0,0.0,0.0,0.0,0.0,0.0,0.0,0.0,0.0,0.0,0.0,0.0,0.0,0.0,0.0,0.0,0.0,0.0,0.0,0.0,0.0,0.0,0.0,0.0,0.0,0.0,0.0,0.0,0.0,0.0,0.0,0.0,0.0,0.0,0.0,0.0,0.0,0.0,0.0,0.0,0.0,0.0,0.0,0.0,0.0,0.0,0.0,0.0,0.0,0.0,0.0,0.0,0.0,0.0,0.0,0.0,0.0,0.0,0.0,0.0,0.0,0.0,0.0,0.0,0.0,0.0,0.0,0.0,0.0,0.0,0.0,0.0,0.0,0.0,0.0,0.0,0.0,0.0,0.0,0.0,0.0,0.0,0.0,0.0,0.0,0.0,0.0,0.0,0.0,0.0,0.0,0.0,0.0,0.0,0.0,0.0,0.0,0.0,0.0,0.0,0.0,0.0,0.0,0.0,0.0,0.0,0.0,0.0,0.0,0.0,0.0,0.0,0.0,0.0,0.0,0.0,0.0,0.0,0.0,0.0,0.0,0.0,0.0,0.0,0.0,0.0,0.0,0.0,0.0,0.0,0.0,0.0,0.0,0.0,0.0,0.0,0.0,0.0,0.0,0.0,0.0,0.0,0.0,0.0,0.0,0.0,0.0,0.0,0.0,0.0,0.0,0.0,0.0,0.0,0.0,0.0,0.0,0.0,0.0,0.0,0.0,0.0,0.0,0.0,0.0,0.0,0.0,0.0,0.0,0.0,0.0,0.0,0.0,0.0,0.0,0.0,0.0,0.0,0.0,0.0,0.0,0.0,0.0,0.0,0.0,0.0,0.0,0.0,0.0,0.0,0.0,0.0,0.0,0.0,0.0,0.0,0.0,0.0,0.0,0.0,0.0,0.0,0.0,0.0,0.0,0.0,0.0,0.0,0.0,0.0,0.0,0.0,0.0,0.0,0.0,0.0,0.0,0.0,0.0,0.0,0.0,0.0,0.0,0.0,0.0,0.0,0.0,0.0,0.0,0.0,0.0,0.0,0.0,0.0,0.0,0.0,0.0,0.0,0.0,0.0,0.0,0.0,0.0,0.0,0.0,0.0,0.0,0.0,0.0,0.0,0.0,0.0,0.0,0.0,0.0,0.0,0.0,0.0,0.0,0.0,0.0,0.0,0.0,0.0,0.0,0.0,0.0,0.0,0.0,0.0,0.0,0.0,0.0,0.0,0.0,0.0,0.0,0.0,0.0,0.0,0.0,0.0,0.0,0.0,0.0,0.0,0.0,0.0,0.0,0.0,0.0,0.0,0.0,0.0,0.0,0.0,0.0,0.0,0.0,0.0,0.0,0.0,0.0,0.0,0.0,0.0,0.0,0.0,0.0,0.0,0.0,0.0,0.0,0.0,0.0,0.0,0.0,0.0,0.0,0.0,0.0,0.0,0.0,0.0,0.0,0.0,0.0,0.0,0.0,0.0,0.0,0.0,0.0,0.0,0.0,0.0,0.0,0.0,0.0,0.0,0.0,0.0,0.0,0.0,0.0,0.0,0.0,0.0,0.0,0.0,0.0,0.0,0.0,0.0,0.0,0.0,0.0,0.0,0.0,0.0,0.0,0.0,0.0,0.0,0.0,0.0,0.0,0.0,0.0,0.0,0.0,0.0,0.0,0.0,0.0,0.0,0.0,0.0,0.0,0.0,0.0,0.0,0.0,0.0,0.0,0.0,0.0,0.0,0.0,0.0,0.0,0.0,0.0,0.0,0.0,0.0,0.0,0.0,0.0,0.0,0.0,0.0,0.0,0.0,0.0,0.0,0.0,0.0,0.0,0.0,0.0,0.0,0.0,0.0,0.0,0.0,0.0,0.0,0.0,0.0,0.0,0.0,0.0,0.0,0.0,0.0,0.0,0.0,0.0,0.0,0.0,0.0,0.0,0.0,0.0,0.0,0.0,0.0,0.0,0.0,0.0,0.0,0.0,0.0,0.0,0.0,0.0,0.0,0.0,0.0,0.0,0.0,0.0,0.0,0.0,0.0,0.0,0.0,0.0,0.0,0.0,0.0,0.0,0.0,0.0,0.0,0.0,0.0,0.0,0.0,0.0,0.0,0.0,0.0,0.0,0.0,0.0,0.0,0.0,0.0,0.0,0.0,0.0,0.0,0.0,0.0,0.0,0.0,0.0,0.0,0.0,0.0,0.0,0.0,0.0,0.0,0.0,0.0,0.0,0.0,0.0,0.0,0.0,0.0,0.0,0.0,0.0,0.0,0.0,0.0,0.0,0.0,0.0,0.0,0.0,0.0,0.0,0.0,0.0,0.0,0.0,0.0,0.0,0.0,0.0,0.0,0.0,0.0,0.0,0.0,0.0,0.0,0.0,0.0,0.0,0.0,0.0,0.0,0.0,0.0,0.0,0.0,0.0,0.0,0.0,0.0,0.0,0.0,0.0,0.0,0.0,0.0,0.0,0.0,0.0,0.0,0.0,0.0,0.0,0.0,0.0,0.0,0.0,0.0,0.0,0.0,0.0,0.0,0.0,0.0,0.0,0.0,0.0,0.0,0.0,0.0,0.0,0.0,0.0,0.0,0.0,0.0,0.0,0.0,0.0,0.0,0.0,0.0,0.0,0.0,0.0,0.0,0.0,0.0,0.0,0.0,0.0,0.0,0.0,0.0,0.0,0.0,0.0,0.0,0.0,0.0,0.0,0.0,0.0,0.0,0.0,0.0,0.0,0.0,0.0,0.0,0.0,0.0,0.0,0.0,0.0,0.0,0.0,0.0,0.0,0.0,0.0,0.0,0.0,0.0,0.0,0.0,0.0,0.0,0.0,0.0,0.0,0.0,0.0,0.0,0.0,0.0,0.0,0.0,0.0,0.0,0.0,0.0,0.0,0.0,0.0,0.0,0.0,0.0,0.0,0.0,0.0,0.0,0.0,0.0,0.0,0.0,0.0,0.0,0.0,0.0,0.0,0.0,0.0,0.0,0.0,0.0,0.0,0.0,0.0,0.0,0.0,0.0,0.0,0.0,0.0,0.0,0.0,0.0,0.0,0.0,0.0,0.0,0.0,0.0,0.0,0.0,0.0,0.0,0.0,0.0,0.0,0.0,0.0,0.0,0.0,0.0,0.0,0.0,0.0,0.0,0.0,0.0,0.0,0.0,0.0,0.0,0.0,0.0,0.0,0.0,0.0,0.0,0.0,0.0,0.0,0.0,0.0,0.0,0.0,0.0,0.0,0.0,0.0,0.0,0.0,0.0,0.0,0.0,0.0,0.0,0.0,0.0,0.0,0.0,0.0,0.0,0.0,0.0,0.0,0.0,0.0,0.0,0.0,0.0,0.0,0.0,0.0,0.0,0.0,0.0,0.0,0.0,0.0,0.0,0.0,0.0,0.0,0.0,0.0,0.0,0.0,0.0,0.0,0.0,0.0,0.0,0.0,0.0,0.0,0.0,0.0,0.0,0.0,0.0,0.0,0.0,0.0,0.0,0.0,0.0,0.0,0.0,0.0,0.0,0.0,0.0,0.0,0.0,0.0,0.0,0.0,0.0,0.0,0.0,0.0,0.0,0.0,0.0,0.0,0.0,0.0,0.0,0.0,0.0,0.0,0.0,0.0,0.0,0.0,0.0,0.0,0.0,0.0,0.0,0.0,0.0,0.0,0.0,0.0,0.0,0.0,0.0,0.0,0.0,0.0,0.0,0.0,0.0,0.0,0.0,0.0,0.0,0.0,0.0,0.0,0.0,0.0,0.0,0.0,0.0,0.0,0.0,0.0,0.0,0.0,0.0,0.0,0.0,0.0,0.0,0.0,0.0,0.0,0.0,0.0,0.0,0.0,0.0,0.0,0.0,0.0,0.0,0.0,0.0,0.0,0.0,0.0,0.0,0.0,0.0,0.0,0.0,0.0,0.0,0.0,0.0,0.0,0.0,0.0,0.0,0.0,0.0,0.0,0.0,0.0,0.0,0.0,0.0,0.0,0.0,0.0,0.0,0.0,0.0,0.0,0.0,0.0,0.0,0.0,0.0,0.0,0.0,0.0,0.0,0.0,0.0,0.0,0.0,0.0,0.0,0.0,0.0,0.0,0.0,0.0,0.0,0.0,0.0,0.0,0.0,0.0,0.0,0.0,0.0,0.0,-0.4067,0.0,0.0,0.0,0.0,0.0,0.0,0.0,0.0,0.0,0.0,0.0,0.0,0.0,0.0,0.0,0.0,0.0,0.0,0.0,0.0,0.0,0.0,0.0,0.0,0.0,0.0,0.0,0.0,0.0,0.0,0.0,0.0,0.0,0.0,0.0,0.0,0.0,0.0,0.0,0.0,0.0,0.0,0.0,0.0,0.0,0.0,0.0,0.0,0.0,0.0,0.0,0.0,0.0,0.0,0.0,0.0,0.0,0.0,0.0,0.0,0.0,0.0,0.0,0.0,0.0,0.0,0.0,0.0,0.0,0.0,0.0,0.0,0.0,0.0,0.0,0.0,0.0,0.0,0.0,0.0,0.0,0.0,0.0,0.0,0.0,0.0,0.0,0.0,0.0,0.0,0.0,0.0,0.0,0.0,0.0,0.0,0.0,0.0,0.0,0.0,0.0,0.0,0.0,0.0,0.0,0.0,0.0,0.0,0.0,0.0,0.0361,-0.1075,-0.2983,-0.4349,-0.5077,0.0,0.0,0.0,0.0,0.0,0.0,0.0,0.0,0.0,0.0,0.0,0.0,0.0,0.0,0.0,0.0,0.0,0.0,0.0,0.0,0.0,0.0,0.0,0.0,0.0,0.0,0.0,0.0,0.0,0.0,0.0,0.0,0.0,0.0,0.0,0.0,0.0,0.0,0.0,0.0,0.0,0.0,0.0,0.0,0.0,0.0,0.0,0.0,0.0,0.0,0.0,0.0,0.0,0.0,0.0,0.0,0.0,0.0,0.0,0.0,0.0,0.0,0.0,0.0,0.0,0.0,0.0,0.0,0.0,0.0,0.0,0.0,0.0,0.0,0.0,0.0,0.0,0.0,0.0,0.0,0.0,0.0,0.0,0.0,0.0,0.0,0.0,0.0,0.0,0.0,0.0,0.0,0.0,0.0,0.0,0.0,0.0,0.0,0.0,0.0,0.0,0.0,0.0,0.0,0.0,0.0,0.0,0.0,0.0,0.0,0.0,0.0,-0.3312,-0.4771,-0.6349,0.0,0.0,0.0,0.0,0.0,0.0,0.0,0.0,0.0,0.0,0.0,0.0,0.0,0.0,0.0,0.0,0.0,0.0,0.0,0.0,0.0,0.0,0.0,0.0,0.0,0.0,0.0,0.0,0.0,0.0,0.0,0.0,0.0,0.0,0.0,0.0,0.0,0.0,0.0,0.0,0.0,0.0,0.0,0.0,0.0,0.0,0.0,0.0,0.0,0.0,0.0,0.0,0.0,0.0,0.0,0.0,0.0,0.0,0.0,0.0,0.0,0.0,0.0,0.0,0.0,0.0,0.0,0.0,0.0,0.0,0.0,0.0,0.0,0.0,0.0,0.0,0.0,0.0,0.0,0.0,0.0,0.0,0.0,0.0,0.0,0.0,0.0,0.0,0.0,0.0,0.0,0.0,0.0,0.0,0.0,0.0,0.0,0.0,0.0,0.0,0.0,0.0,0.0,0.0,0.0,0.0,0.0,0.0,0.0,0.0,0.073,-0.1921,-0.333,0.0,-0.7427,0.0,0.0,0.0,0.0,0.0,0.0,0.0,0.0,0.0,0.0,0.0,0.0,0.0,0.0,0.0,0.0,0.0,0.0,0.0,0.0,0.0,0.0,0.0,0.0,0.0,0.0,0.0,0.0,0.0,0.0,0.0,0.0,0.0,0.0,0.0,0.0,0.0,0.0,0.0,0.0,0.0,0.0,0.0,0.0,0.0,0.0,0.0,0.0,0.0,0.0,0.0,0.0,0.0,0.0,0.0,0.0,0.0,0.0,0.0,0.0,0.0,0.0,0.0,0.0,0.0,0.0,0.0,0.0,0.0,0.0,0.0,0.0,0.0,0.0,0.0,0.0,0.0,0.0,0.0,0.0,0.0,0.0,0.0,0.0,0.0,0.0,0.0,0.0,0.0,0.0,0.0,0.0,0.0,0.0,0.0,0.0,0.0,0.0,0.0,0.0,0.0,0.0,0.0,0.0,0.0,0.0,0.0,0.0,0.0,0.0,0.1145,-0.3114,-0.5255,-0.6789,0.0,0.0,0.0,0.0,0.0,0.0,0.0,0.0,0.0,0.0,0.0,0.0,0.0,0.0,0.0,0.0,0.0,0.0,0.0,0.0,0.0,0.0,0.0,0.0,0.0,0.0,0.0,0.0,0.0,0.0,0.0,0.0,0.0,0.0,0.0,0.0,0.0,0.0,0.0,0.0,0.0,0.0,0.0,0.0,0.0,0.0,0.0,0.0,0.0,0.0,0.0,0.0,0.0,0.0,0.0,0.0,0.0,0.0,0.0,0.0,0.0,0.0,0.0,0.0,0.0,0.0,0.0,0.0,0.0,0.0,0.0,0.0,0.0,0.0,0.0,0.0,0.0,0.0,0.0,0.0,0.0,0.0,0.0,0.0,0.0,0.0,0.0,0.0,0.0,0.0,0.0,0.0,0.0,0.0,0.0,0.0,0.0,0.0,0.0,0.0,0.0,0.0,0.0,0.0,0.0,0.0,0.0,0.0,0.0,0.0,0.399,0.1451,-0.3779,-0.6585,-0.7902,-0.7611,0.0,0.0,0.0,0.0,0.0,0.0,0.0,0.0,0.0,0.0,0.0,0.0,0.0,0.0,0.0,0.0,0.0,0.0,0.0,0.0,0.0,0.0,0.0,0.0,0.0,0.0,0.0,0.0,0.0,0.0,0.0,0.0,0.0,0.0,0.0,0.0,0.0,0.0,0.0,0.0,0.0,0.0,0.0,0.0,0.0,0.0,0.0,0.0,0.0,0.0,0.0,0.0,0.0,0.0,0.0,0.0,0.0,0.0,0.0,0.0,0.0,0.0,0.0,0.0,0.0,0.0,0.0,0.0,0.0,0.0,0.0,0.0,0.0,0.0,0.0,0.0,0.0,0.0,0.0,0.0,0.0,0.0,0.0,0.0,0.0,0.0,0.0,0.0,0.0,0.0,0.0,0.0,0.0,0.0,0.0,0.0,0.0,0.0,0.0,0.0,0.0,0.0,0.0,0.0,0.0,0.0,0.0,0.0,0.0,0.3941,0.1391,-0.3822,-0.6595,-0.7899,0.0,0.0,0.0,0.0,0.0,0.0,0.0,0.0,0.0,0.0,0.0,0.0,0.0,0.0,0.0,0.0,0.0,0.0,0.0,0.0,0.0,0.0,0.0,0.0,0.0,0.0,0.0,0.0,0.0,0.0,0.0,0.0,0.0,0.0,0.0,0.0,0.0,0.0,0.0,0.0,0.0,0.0,0.0,0.0,0.0,0.0,0.0,0.0,0.0,0.0,0.0,0.0,0.0,0.0,0.0,0.0,0.0,0.0,0.0,0.0,0.0,0.0,0.0,0.0,0.0,0.0,0.0,0.0,0.0,0.0,0.0,0.0,0.0,0.0,0.0,0.0,0.0,0.0,0.0,0.0,0.0,0.0,0.0,0.0,0.0,0.0,0.0,0.0,0.0,0.0,0.0,0.0,0.0,0.0,0.0,0.0,0.0,0.0,0.0,0.0,0.0,0.0,0.0,0.0,0.0,0.0,0.0,0.0,0.0,0.4033,0.0667,-0.1998,-0.4004,-0.7205,-0.8892,0.0,0.0,0.0,0.0,0.0,0.0,0.0,0.0,0.0,0.0,0.0,0.0,0.0,0.0,0.0,0.0,0.0,0.0,0.0,0.0,0.0,0.0,0.0,0.0,0.0,0.0,0.0,0.0,0.0,0.0,0.0,0.0,0.0,0.0,0.0,0.0,0.0,0.0,0.0,0.0,0.0,0.0,0.0,0.0,0.0,0.0,0.0,0.0,0.0,0.0,0.0,0.0,0.0,0.0,0.0,0.0,0.0,0.0,0.0,0.0,0.0,0.0,0.0,0.0,0.0,0.0,0.0,0.0,0.0,0.0,0.0,0.0,0.0,0.0,0.0,0.0,0.0,0.0,0.0,0.0,0.0,0.0,0.0,0.0,0.0,0.0,0.0,0.0,0.0,0.0,0.0,0.0,0.0,0.0,0.0,0.0,0.0,0.0,0.0,0.0,0.0,0.0,0.0,0.0,0.0,0.0,0.0,0.0,0.0,0.4036,0.0,-0.3556,0.0,-0.7707,-0.955,0.0,0.0,0.0,0.0,0.0,0.0,0.0,0.0,0.0,0.0,0.0,0.0,0.0,0.0,0.0,0.0,0.0,0.0,0.0,0.0,0.0,0.0,0.0,0.0,0.0,0.0,0.0,0.0,0.0,0.0,0.0,0.0,0.0,0.0,0.0,0.0,0.0,0.0,0.0,0.0,0.0,0.0,0.0,0.0,0.0,0.0,0.0,0.0,0.0,0.0,0.0,0.0,0.0,0.0,0.0,0.0,0.0,0.0,0.0,0.0,0.0,0.0,0.0,0.0,0.0,0.0,0.0,0.0,0.0,0.0,0.0,0.0,0.0,0.0,0.0,0.0,0.0,0.0,0.0,0.0,0.0,0.0,0.0,0.0,0.0,0.0,0.0,0.0,0.0,0.0,0.0,0.0,0.0,0.0,0.0,0.0,0.0,0.0,0.0,0.0,0.0,0.0,0.0,0.0,0.0,0.0,0.0,0.0,0.9272,0.4114,0.005,-0.2704,-0.4014,-0.7941,-0.9816,0.0,0.0,0.0,0.0,0.0,0.0,0.0,0.0,0.0,0.0,0.0,0.0,0.0,0.0,0.0,0.0,0.0,0.0,0.0,0.0,0.0,0.0,0.0,0.0,0.0,0.0,0.0,0.0,0.0,0.0,0.0,0.0,0.0,0.0,0.0,0.0,0.0,0.0,0.0,0.0,0.0,0.0,0.0,0.0,0.0,0.0,0.0,0.0,0.0,0.0,0.0,0.0,0.0,0.0,0.0,0.0,0.0,0.0,0.0,0.0,0.0,0.0,0.0,0.0,0.0,0.0,0.0,0.0,0.0,0.0,0.0,0.0,0.0,0.0,0.0,0.0,0.0,0.0,0.0,0.0,0.0,0.0,0.0,0.0,0.0,0.0,0.0,0.0,0.0,0.0,0.0,0.0,0.0,0.0,0.0,0.0,0.0,0.0,0.0,0.0,0.0,0.0,0.0,0.0,0.0,0.0,0.0,0.0,0.0,0.4064,0.005,-0.2653,-0.4062,-0.8564,-1.0972,0.0,0.0,0.0,0.0,0.0,0.0,0.0,0.0,0.0,0.0,0.0,0.0,0.0,0.0,0.0,0.0,0.0,0.0,0.0,0.0,0.0,0.0,0.0,0.0,0.0,0.0,0.0,0.0,0.0,0.0,0.0,0.0,0.0,0.0,0.0,0.0,0.0,0.0,0.0,0.0,0.0,0.0,0.0,0.0,0.0,0.0,0.0,0.0,0.0,0.0,0.0,0.0,0.0,0.0,0.0,0.0,0.0,0.0,0.0,0.0,0.0,0.0,0.0,0.0,0.0,0.0,0.0,0.0,0.0,0.0,0.0,0.0,0.0,0.0,0.0,0.0,0.0,0.0,0.0,0.0,0.0,0.0,0.0,0.0,0.0,0.0,0.0,0.0,0.0,0.0,0.0,0.0,0.0,0.0,0.0,0.0,0.0,0.0,0.0,0.0,0.0,0.0,0.0,0.0,0.0,0.0,0.0,0.0,0.0,0.4055,0.0505,-0.2171,-0.3955,-0.9049,-1.1672,-1.1502,0.0,0.0,0.0,0.0,0.0,0.0,0.0,0.0,0.0,0.0,0.0,0.0,0.0,0.0,0.0,0.0,0.0,0.0,0.0,0.0,0.0,0.0,0.0,0.0,0.0,0.0,0.0,0.0,0.0,0.0,0.0,0.0,0.0,0.0,0.0,0.0,0.0,0.0,0.0,0.0,0.0,0.0,0.0,0.0,0.0,0.0,0.0,0.0,0.0,0.0,0.0,0.0,0.0,0.0,0.0,0.0,0.0,0.0,0.0,0.0,0.0,0.0,0.0,0.0,0.0,0.0,0.0,0.0,0.0,0.0,0.0,0.0,0.0,0.0,0.0,0.0,0.0,0.0,0.0,0.0,0.0,0.0,0.0,0.0,0.0,0.0,0.0,0.0,0.0,0.0,0.0,0.0,0.0,0.0,0.0,0.0,0.0,0.0,0.0,0.0,0.0,0.0,0.0,0.0,0.0,0.0,0.0,0.0,0.4185,0.1388,-0.1337,-0.3978,-0.9213,-1.187,0.0,0.0,0.0,0.0,0.0,0.0,0.0,0.0,0.0,0.0,0.0,0.0,0.0,0.0,0.0,0.0,0.0,0.0,0.0,0.0,0.0,0.0,0.0,0.0,0.0,0.0,0.0,0.0,0.0,0.0,0.0,0.0,0.0,0.0,0.0,0.0,0.0,0.0,0.0,0.0,0.0,0.0,0.0,0.0,0.0,0.0,0.0,0.0,0.0,0.0,0.0,0.0,0.0,0.0,0.0,0.0,0.0,0.0,0.0,0.0,0.0,0.0,0.0,0.0,0.0,0.0,0.0,0.0,0.0,0.0,0.0,0.0,0.0,0.0,0.0,0.0,0.0,0.0,0.0,0.0,0.0,0.0,0.0,0.0,0.0,0.0,0.0,0.0,0.0,0.0,0.0,0.0,0.0,0.0,0.0,0.0,0.0,0.0,0.0,0.0,0.0,0.0,0.0,0.0,0.0,0.0,0.0,0.0,0.0,0.5598,0.2808,-0.0371,-0.4055,-0.8422,-1.0665,0.0,0.0,0.0,0.0,0.0,0.0,0.0,0.0,0.0,0.0,0.0,0.0,0.0,0.0,0.0,0.0,0.0,0.0,0.0,0.0,0.0,0.0,0.0,0.0,0.0,0.0,0.0,0.0,0.0,0.0,0.0,0.0,0.0,0.0,0.0,0.0,0.0,0.0,0.0,0.0,0.0,0.0,0.0,0.0,0.0,0.0,0.0,0.0,0.0,0.0,0.0,0.0,0.0,0.0,0.0,0.0,0.0,0.0,0.0,0.0,0.0,0.0,0.0,0.0,0.0,0.0,0.0,0.0,0.0,0.0,0.0,0.0,0.0,0.0,0.0,0.0,0.0,0.0,0.0,0.0,0.0,0.0,0.0,0.0,0.0,0.0,0.0,0.0,0.0,0.0,0.0,0.0,0.0,0.0,0.0,0.0,0.0,0.0,0.0,0.0,0.0,0.0,0.0,0.0,0.0,0.0,0.0,0.0,1.0479,0.6918,0.3654,0.0266,-0.328,-0.7251,-0.9611,0.0,0.0,0.0,0.0,0.0,0.0,0.0,0.0,0.0,0.0,0.0,0.0,0.0,0.0,0.0,0.0,0.0,0.0,0.0,0.0,0.0,0.0,0.0,0.0,0.0,0.0,0.0,0.0,0.0,0.0,0.0,0.0,0.0,0.0,0.0,0.0,0.0,0.0,0.0,0.0,0.0,0.0,0.0,0.0,0.0,0.0,0.0,0.0,0.0,0.0,0.0,0.0,0.0,0.0,0.0,0.0,0.0,0.0,0.0,0.0,0.0,0.0,0.0,0.0,0.0,0.0,0.0,0.0,0.0,0.0,0.0,0.0,0.0,0.0,0.0,0.0,0.0,0.0,0.0,0.0,0.0,0.0,0.0,0.0,0.0,0.0,0.0,0.0,0.0,0.0,0.0,0.0,0.0,0.0,0.0,0.0,0.0,0.0,0.0,0.0,0.0,0.0,0.0,0.0,0.0,0.0,0.0,0.0,1.0888,0.8241,0.4275,0.0896,-0.195,-0.5884,-0.8656,0.0,0.0,0.0,0.0,0.0,0.0,0.0,0.0,0.0,0.0,0.0,0.0,0.0,0.0,0.0,0.0,0.0,0.0,0.0,0.0,0.0,0.0,0.0,0.0,0.0,0.0,0.0,0.0,0.0,0.0,0.0,0.0,0.0,0.0,0.0,0.0,0.0,0.0,0.0,0.0,0.0,0.0,0.0,0.0,0.0,0.0,0.0,0.0,0.0,0.0,0.0,0.0,0.0,0.0,0.0,0.0,0.0,0.0,0.0,0.0,0.0,0.0,0.0,0.0,0.0,0.0,0.0,0.0,0.0,0.0,0.0,0.0,0.0,0.0,0.0,0.0,0.0,0.0,0.0,0.0,0.0,0.0,0.0,0.0,0.0,0.0,0.0,0.0,0.0,0.0,0.0,0.0,0.0,0.0,0.0,0.0,0.0,0.0,0.0,0.0,0.0,0.0,0.0,0.0,0.0,0.0,0.0,0.0,1.1339,0.9493,0.5744,0.2328,-0.0581,-0.4584,-0.7346,0.0,0.0,0.0,0.0,0.0,0.0,0.0,0.0,0.0,0.0,0.0,0.0,0.0,0.0,0.0,0.0,0.0,0.0,0.0,0.0,0.0,0.0,0.0,0.0,0.0,0.0,0.0,0.0,0.0,0.0,0.0,0.0,0.0,0.0,0.0,0.0,0.0,0.0,0.0,0.0,0.0,0.0,0.0,0.0,0.0,0.0,0.0,0.0,0.7942,0.0,0.0,0.0,0.0,0.0,0.0,0.0,0.0,0.0,0.0,0.0,0.0,0.0,0.0,0.0,0.0,0.0,0.0,0.0,0.0,0.0,0.0,0.0,0.0,0.0,0.0,0.0,0.0,0.0,0.0,0.0,0.0,0.0,0.0,0.0,0.0,0.0,0.0,0.0,0.0,0.0,0.0,0.0,0.0,0.0,0.0,0.0,0.0,0.0,0.0,0.0,0.0,0.0,0.0,0.0,0.0,0.0,0.0,0.0,1.2294,1.0789,0.7664,0.4325,0.0927,-0.1903,-0.4583,0.0,0.0,0.0,0.0,0.0,0.0,0.0,0.0,0.0,0.0,0.0,0.0,0.0,0.0,0.0,0.0,0.0,0.0,0.0,0.0,0.0,0.0,0.0,0.0,0.0,0.0,0.0,0.0,0.0,0.0,0.0,0.0,0.0,0.0,0.0,0.0,0.0,0.0,0.0,0.0,0.0,0.0,0.0,0.0,0.0,0.0,0.0,0.0,0.0,0.0,0.0,0.0,0.0,0.0,0.0,0.0,0.0,0.0,0.0,0.0,0.0,0.0,0.0,0.0,0.0,0.0,0.0,0.0,0.0,0.0,0.0,0.0,0.0,0.0,0.0,0.0,0.0,0.0,0.0,0.0,0.0,0.0,0.0,0.0,0.0,0.0,0.0,0.0,0.0,0.0,0.0,0.0,0.0,0.0,0.0,0.0,0.0,0.0,0.0,0.0,0.0,0.0,0.0,0.0,0.0,0.0,0.0,1.4651,1.3343,1.2188,0.9469,0.6336,0.2997,0.1016,-0.1691,-0.5129,0.0,0.0,0.0,0.0,0.0,0.0,0.0,0.0,0.0,0.0,0.0,0.0,0.0,0.0,0.0,0.0,0.0,0.0,0.0,0.0,0.0,0.0,0.0,0.0,0.0,0.0,0.0,0.0,0.0,0.0,0.0,0.0,0.0,0.0,0.0,0.0,0.0,0.0,2.1571,1.8542,0.0,0.0,0.0,0.0,0.0,0.0,0.0,0.0,0.9658,0.0,0.0,0.0,0.0,0.0,0.0,0.0,0.0,0.0,0.0,0.0,0.0,0.0,0.0,0.0,0.0,0.0,0.0,0.0,0.0,0.0,0.0,0.0,0.0,0.0,0.0,0.0,0.0,0.0,0.0,0.0,0.0,0.0,0.0,0.0,0.0,0.0,0.0,0.0,0.0,0.0,0.0,0.0,0.0,0.0,0.0,0.0,0.0,0.0,0.0,0.0,0.0,0.0,0.0,0.0,0.0,1.7358,1.5067,1.3776,1.3536,0.9902,0.7687,0.6886,0.2453,-0.0302,-0.1006,0.0,0.0,0.0,0.0,0.0,0.0,0.0,0.0,0.0,0.0,0.0,0.0,0.0,0.0,0.0,0.0,0.0,0.0,0.0,0.0,0.0,0.0,0.0,0.0,0.0,0.0,0.0,0.0,0.0,0.0,0.0,0.0,0.0,0.0,0.0,0.0,0.0,0.0,0.0,2.0669,1.9335,0.0,0.0,0.0,0.0,0.0,0.0,0.0,0.0,1.2094,0.0,0.0,0.0,0.0,0.0,0.0,0.0,0.0,0.0,0.0,0.0,0.0,0.0,0.0,0.0,0.0,0.0,0.0,0.0,0.0,0.0,0.0,0.0,0.0,0.0,0.0,0.0,0.0,0.0,0.0,0.0,0.0,0.0,0.0,0.0,0.0,0.0,0.0,0.0,0.0,0.0,0.0,0.0,0.0,0.0,0.0,0.0,0.0,0.0,0.0,0.0,0.0,0.0,0.0,0.0,1.7684,1.5846,1.4555,1.3878,1.2168,1.0235,0.8149,0.5659,0.3681,0.0,0.0,0.0,0.0,0.0,0.0,0.0,0.0,0.0,0.0,0.0,0.0,0.0,0.0,0.0,0.0,0.0,0.0,0.0,0.0,0.0,0.0,0.0,0.0,0.0,0.0,0.0,0.0,0.0,0.0,0.0,0.0,0.0,0.0,0.0,0.0,0.0,0.0,0.0,0.0,2.1567,2.0874,1.9654,0.0,0.0,0.0,0.0,0.0,0.0,1.4234,1.3612,0.0,0.0,0.0,0.0,0.0,0.0,0.0,0.0,0.0,0.0,0.0,0.0,0.0,0.0,0.0,0.0,0.0,0.0,0.0,0.0,0.0,0.0,0.0,0.0,0.0,0.0,0.0,0.0,0.0,0.0,0.0,0.0,0.0,0.0,0.0,0.0,0.0,0.0,0.0,0.0,0.0,0.0,0.0,0.0,0.0,0.0,0.0,0.0,0.0,0.0,0.0,0.0,0.0,0.0,0.0,1.8048,1.685,1.5575,1.437,1.4218,1.2519,0.9063,0.8524,0.7132,0.0,0.0,0.0,0.0,0.0,0.0,0.0,0.0,0.0,0.0,0.0,0.0,0.0,0.0,0.0,0.0,0.0,0.0,0.0,0.0,0.0,0.0,0.0,0.0,0.0,0.0,0.0,0.0,0.0,0.0,0.0,0.0,0.0,0.0,0.0,0.0,0.0,0.0,0.0,0.0,0.0,2.2049,2.1128,2.0749,0.0,0.0,0.0,0.0,1.7043,1.6246,0.0,0.0,0.0,0.0,0.0,0.0,0.0,0.0,0.0,0.0,0.0,0.0,0.0,0.0,0.0,0.0,0.0,0.0,0.0,0.0,0.0,0.0,0.0,0.0,0.0,0.0,0.0,0.0,0.0,0.0,0.0,0.0,0.0,0.0,0.0,0.0,0.0,0.0,0.0,0.0,0.0,0.0,0.0,0.0,0.0,0.0,0.0,0.0,0.0,0.0,0.0,0.0,0.0,0.0,0.0,0.0,1.9306,1.8095,1.6897,1.5581,1.449,1.3141,1.1487,0.927,0.7282,0.0,0.0,0.0,0.0,0.0,0.0,0.0,0.0,0.0,0.0,0.0,0.0,0.0,0.0,0.0,0.0,0.0,0.0,0.0,0.0,0.0,0.0,0.0,0.0,0.0,0.0,0.0,0.0,0.0,0.0,0.0,0.0,0.0,0.0,0.0,0.0,0.0,0.0,0.0,0.0,0.0,2.325,2.2506,2.2229,2.1646,0.0,0.0,2.1505,2.0247,2.0256,0.0,0.0,0.0,0.0,0.0,0.0,0.0,0.0,0.0,0.0,0.0,0.0,0.0,0.0,0.0,0.0,0.0,0.0,0.0,0.0,0.0,0.0,0.0,0.0,0.0,0.0,0.0,0.0,0.0,0.0,0.0,0.0,0.0,0.0,0.0,0.0,0.0,0.0,0.0,0.0,0.0,0.0,0.0,0.0,0.0,0.0,0.0,0.0,0.0,0.0,0.0,0.0,0.0,0.0,0.0,2.0695,2.0173,1.9216,1.8449,1.7902,1.6843,1.5621,1.4182,1.2469,1.0516,0.0,0.0,0.0,0.0,0.0,0.0,0.0,0.0,0.0,0.0,0.0,0.0,0.0,0.0,0.0,0.0,0.0,0.0,0.0,0.0,0.0,0.0,0.0,0.0,0.0,0.0,0.0,0.0,0.0,0.0,0.0,0.0,0.0,0.0,0.0,0.0,0.0,0.0,0.0,0.0,0.0,0.0,2.5643,2.5581,0.0,0.0,0.0,2.4791,2.2612,0.0,0.0,0.0,0.0,0.0,0.0,0.0,0.0,0.0,0.0,0.0,0.0,0.0,0.0,0.0,0.0,0.0,0.0,0.0,0.0,0.0,0.0,0.0,0.0,0.0,0.0,0.0,0.0,0.0,0.0,0.0,0.0,0.0,0.0,0.0,0.0,0.0,0.0,0.0,0.0,0.0,0.0,0.0,0.0,0.0,0.0,0.0,0.0,0.0,0.0,0.0,0.0,0.0,0.0,0.0,0.0,0.0,2.0725,2.0205,1.9807,1.9497,1.8793,1.7761,1.6348,1.5168,0.0,0.0,0.0,0.0,0.0,0.0,0.0,0.0,0.0,0.0,0.0,0.0,0.0,0.0,0.0,0.0,0.0,0.0,0.0,0.0,0.0,0.0,0.0,0.0,0.0,0.0,0.0,1.4969,0.0,0.0,0.0,0.0,0.0,0.0,0.0,0.0,0.0,0.0,0.0,0.0,0.0,0.0,2.8019,2.7896,2.7873,2.7973,0.0,0.0,2.7195,2.5242,2.563,2.5129,0.0,0.0,0.0,0.0,0.0,0.0,0.0,0.0,0.0,0.0,0.0,0.0,0.0,0.0,0.0,0.0,0.0,0.0,0.0,0.0,0.0,0.0,0.0,0.0,0.0,0.0,0.0,0.0,0.0,0.0,0.0,0.0,0.0,0.0,0.0,0.0,0.0,0.0,0.0,0.0,0.0,0.0,0.0,0.0,0.0,0.0,0.0,0.0,0.0,0.0,0.0,0.0,0.0,0.0,0.0,2.0777,2.1015,2.0666,1.9542,1.9476,1.8794,1.7411,1.6019,1.4391,0.0,0.0,0.0,0.0,0.0,0.0,0.0,0.0,0.0,0.0,0.0,0.0,0.0,0.0,0.0,0.0,0.0,0.0,0.0,0.0,0.0,0.0,0.0,0.0,0.0,0.0,0.0,0.0,0.0,0.0,0.0,0.0,0.0,0.0,0.0,0.0,0.0,0.0,0.0,0.0,0.0,2.841,2.7941,2.7873,2.8096,0.0,0.0,2.803,2.8366,2.8811,2.8324,2.6044,0.0,0.0,0.0,0.0,0.0,0.0,0.0,0.0,0.0,0.0,0.0,0.0,0.0,0.0,0.0,0.0,0.0,0.0,0.0,0.0,0.0,0.0,0.0,0.0,0.0,0.0,0.0,0.0,0.0,0.0,0.0,0.0,0.0,0.0,0.0,0.0,0.0,0.0,0.0,0.0,0.0,0.0,0.0,0.0,0.0,0.0,0.0,0.0,0.0,0.0,0.0,0.0,0.0,2.191,2.147,2.2072,2.2183,2.1721,2.0989,2.0361,1.983,1.8322,1.6396,0.0,0.0,0.0,0.0,0.0,0.0,0.0,0.0,0.0,0.0,0.0,0.0,0.0,0.0,0.0,0.0,0.0,0.0,0.0,0.0,0.0,0.0,0.0,0.0,0.0,0.0,0.0,0.0,1.8175,1.977,2.1203,0.0,0.0,0.0,0.0,0.0,0.0,0.0,0.0,0.0,0.0,3.0392,3.0513,3.0537,0.0,0.0,3.0712,3.0264,2.9429,2.9695,2.9265,2.7095,2.7092,0.0,0.0,0.0,0.0,0.0,0.0,0.0,0.0,0.0,0.0,0.0,0.0,0.0,0.0,0.0,0.0,0.0,0.0,0.0,0.0,0.0,0.0,0.0,0.0,0.0,0.0,0.0,0.0,0.0,0.0,0.0,0.0,0.0,0.0,0.0,0.0,0.0,0.0,0.0,0.0,0.0,0.0,0.0,0.0,0.0,0.0,0.0,0.0,0.0,0.0,0.0,0.0,2.2236,2.1936,2.2909,2.3275,2.2916,2.2004,2.1493,2.1441,1.9965,1.8145,0.0,0.0,0.0,0.0,0.0,0.0,0.0,0.0,0.0,0.0,0.0,0.0,0.0,0.0,0.0,0.0,0.0,0.0,0.0,0.0,0.0,0.0,0.0,0.0,0.0,0.0,0.0,0.0,1.9942,2.148,2.2561,0.0,0.0,0.0,0.0,0.0,0.0,0.0,0.0,0.0,0.0,3.2288,3.2778,3.2857,3.2857,3.2817,3.2662,3.2186,3.1176,3.1477,3.1294,2.9555,0.0,0.0,0.0,0.0,0.0,0.0,0.0,0.0,0.0,0.0,0.0,0.0,0.0,0.0,0.0,0.0,0.0,0.0,0.0,0.0,0.0,0.0,0.0,0.0,0.0,0.0,0.0,0.0,0.0,0.0,1.8456,0.0,0.0,0.0,0.0,0.0,0.0,0.0,0.0,0.0,0.0,0.0,0.0,0.0,0.0,0.0,0.0,0.0,0.0,0.0,0.0,0.0,0.0,2.295,2.1967,2.3371,2.3607,2.2552,2.2077,2.1892,2.1882,2.0424,1.9412,1.9036,0.0,0.0,0.0,0.0,0.0,0.0,0.0,0.0,0.0,0.0,0.0,0.0,0.0,0.0,0.0,0.0,0.0,0.0,0.0,0.0,0.0,0.0,0.0,0.0,0.0,0.0,1.9616,2.1016,2.2178,0.0,0.0,0.0,0.0,0.0,0.0,0.0,0.0,0.0,0.0,3.3067,3.3873,3.4248,3.4355,3.4283,3.4235,3.3765,3.3545,3.4046,3.4673,3.4981,0.0,0.0,0.0,0.0,0.0,0.0,0.0,0.0,0.0,0.0,0.0,0.0,0.0,0.0,0.0,0.0,0.0,0.0,0.0,0.0,0.0,0.0,0.0,0.0,0.0,0.0,0.0,1.8718,1.8686,0.0,0.0,0.0,0.0,0.0,0.0,0.0,0.0,0.0,0.0,0.0,2.4365,2.4287,0.0,0.0,0.0,0.0,0.0,0.0,0.0,0.0,0.0,0.0,0.0,0.0,2.3118,2.3424,2.3532,2.341,2.3053,2.2305,2.2185,2.2788,2.206,2.0917,1.9285,0.0,0.0,0.0,0.0,0.0,0.0,0.0,0.0,0.0,0.0,0.0,0.0,0.0,0.0,0.0,0.0,0.0,0.0,0.0,0.0,0.0,0.0,0.0,0.0,0.0,2.13,0.0,0.0,0.0,0.0,0.0,0.0,0.0,0.0,0.0,0.0,0.0,3.1761,3.2837,3.3305,3.3731,3.4252,3.4317,3.4506,0.0,0.0,0.0,0.0,0.0,0.0,0.0,0.0,0.0,0.0,0.0,0.0,0.0,0.0,3.3002,3.1559,3.1135,3.1221,3.1811,0.0,0.0,0.0,0.0,0.0,0.0,0.0,0.0,0.0,0.0,0.0,0.0,0.0,0.0,2.1136,0.0,2.0227,0.0,0.0,0.0,0.0,0.0,0.0,0.0,0.0,2.6762,2.7122,2.7028,2.7609,2.7366,0.0,2.509,2.2923,0.0,0.0,0.0,0.0,0.0,0.0,0.0,0.0,2.3912,2.42,2.4172,2.382,2.3121,2.2689,2.2567,2.2851,2.2945,2.2216,2.0591,1.7852,1.6074,0.0,0.0,0.0,0.0,0.0,0.0,0.0,0.0,0.0,0.0,0.0,0.0,0.0,0.0,0.0,0.0,0.0,0.0,0.0,0.0,0.0,0.0,0.0,2.2849,0.0,0.0,0.0,0.0,0.0,0.0,0.0,0.0,0.0,3.2886,3.2911,3.324,3.4178,3.4481,3.4694,3.5022,0.0,0.0,0.0,0.0,0.0,0.0,0.0,3.5181,3.4405,3.5025,3.5546,3.5317,3.6122,3.6712,3.6499,0.0,0.0,3.446,3.3916,3.4,3.4748,3.5155,3.5308,3.4958,3.5308,3.5504,0.0,0.0,0.0,0.0,0.0,0.0,0.0,0.0,2.4891,2.4195,0.0,2.2665,0.0,0.0,0.0,0.0,0.0,2.6351,0.0,0.0,3.0344,3.0874,3.043,3.1251,3.0603,2.861,2.8091,2.6864,2.4897,2.3043,0.0,0.0,0.0,0.0,0.0,0.0,2.5277,2.4371,2.524,2.4771,2.2882,2.3251,2.3047,2.2188,2.3047,2.3374,2.2891,2.1006,1.9614,1.87,1.597,0.0,0.0,0.0,0.0,0.0,0.0,0.0,0.0,0.0,0.0,0.0,0.0,0.0,0.0,0.0,0.0,0.0,0.0,0.0,0.0,2.4254,0.0,0.0,0.0,0.0,0.0,0.0,0.0,0.0,0.0,0.0,3.3836,3.3623,3.4086,3.5741,0.0,0.0,0.0,0.0,3.6956,3.5789,3.5594,3.5654,3.5719,3.6723,3.7454,3.7443,0.0,0.0,3.8617,3.8981,3.9185,3.8592,3.8889,3.8745,3.6693,3.5909,3.5614,3.5614,3.5666,3.5575,3.5579,3.6133,3.6278,2.8005,0.0,0.0,0.0,0.0,2.6483,2.6673,2.687,2.6149,2.5845,2.5812,2.5054,0.0,0.0,0.0,0.0,0.0,0.0,2.8244,2.9265,2.9709,3.0144,3.0561,3.0788,3.0617,2.9997,2.9484,2.8939,2.8345,2.7451,2.5605,2.2974,0.0,0.0,0.0,0.0,2.5445,2.58,2.5433,2.4919,2.4374,2.3787,2.3708,2.412,2.442,2.4378,2.392,2.2081,2.0334,1.878,1.7277,0.0,0.0,0.0,0.0,0.0,0.0,0.0,0.0,0.0,0.0,0.0,0.0,0.0,0.0,0.0,0.0,0.0,0.0,0.0,2.369,2.5166,2.6178,0.0,0.0,0.0,0.0,0.0,0.0,0.0,0.0,0.0,3.6947,3.5821,3.5077,0.0,0.0,3.5844,3.5801,3.6342,3.6996,3.7684,3.7664,0.0,0.0,3.9191,3.9087,3.9235,3.9975,4.0635,4.0934,4.0634,4.0282,4.0067,3.9693,3.9177,3.8642,3.8362,3.8245,3.8231,3.8267,3.8267,3.8297,3.8392,3.8413,2.9294,2.781,2.781,2.7799,2.7799,2.7799,2.7934,2.814,2.7887,2.7799,2.7747,2.7047,2.6709,2.6656,2.6243,0.0,0.0,0.0,2.8657,2.943,3.0132,3.073,3.1198,3.1575,3.161,3.1322,3.0682,3.0227,2.9989,2.9341,2.7613,2.4973,0.0,0.0,2.6097,2.6099,2.6548,2.7404,2.6548,2.5881,2.5521,2.4565,2.4588,2.5546,2.5594,2.547,2.5152,2.3698,2.23,2.0965,1.9667,1.8345,0.0,0.0,0.0,0.0,0.0,0.0,0.0,0.0,0.0,0.0,0.0,2.3352,0.0,0.0,0.0,0.0,2.6354,2.6056,2.6056,2.7557,0.0,0.0,0.0,0.0,0.0,0.0,0.0,3.5645,3.6236,3.6913,3.809,3.7204,3.6612,3.7101,3.747,3.7587,3.7309,0.0,3.8521,3.9125,3.91,3.9413,4.0416,4.0373,4.034,4.0734,4.1116,4.1501,4.1885,4.1528,4.1113,4.0724,4.0274,3.9809,3.9481,3.9388,3.9388,3.9388,3.9388,3.9388,3.9388,3.9388,3.9388,2.9869,2.9895,2.9895,2.9869,2.9792,2.9779,2.9779,2.9779,2.9779,2.9779,2.9702,2.8676,2.8502,2.8825,2.7893,0.0,2.8205,2.8504,2.9,2.9595,3.126,3.204,3.2092,3.2936,3.3021,3.2422,3.1611,3.0939,3.0388,2.9611,2.8945,2.8446,2.8093,2.8252,2.887,2.8187,2.8201,2.8971,2.8201,2.7352,2.6425,2.5625,2.5604,2.6452,2.6487,2.6487,2.6452,2.5629,2.486,2.4265,2.2639,2.0881,1.9128,0.0,0.0,0.0,0.0,0.0,0.0,0.0,0.0,0.0,0.0,0.0,0.0,0.0,0.0,0.0,2.9724,0.0,3.0114,3.0807,0.0,0.0,0.0,3.3623,3.3728,3.5551,3.6846,3.6966,0.0,0.0,3.7972,3.8017,3.8503,3.9654,4.0388,4.065,4.0055,4.046,4.0795,4.0275,4.0182,4.0214,4.0679,4.1087,4.1621,4.2137,4.2221,4.23,4.2284,4.2029,4.1674,4.1013,4.069,4.0343,3.9538,3.9388,3.9388,3.9388,3.9388,3.9388,3.9388,3.9388,3.9388,3.0216,3.0871,3.0871,3.0457,2.9779,2.9779,2.9779,2.9779,2.9779,2.9779,2.9779,2.9534,2.9222,2.8888,2.8898,2.896,2.9134,2.9799,3.0311,3.0721,3.1136,3.1438,3.1664,3.1886,3.1884,3.175,3.153,3.1367,3.119,3.0999,3.0852,3.069,3.0031,2.9234,2.8446,2.8579,2.878,2.8989,2.8812,2.8252,2.7398,2.7178,2.6879,2.6487,2.6487,2.6487,2.6487,2.6267,2.5581,2.4379,2.3873,2.2937,2.1457,2.0982,0.0,0.0,0.0,0.0,0.0,0.0,0.0,0.0,0.0,2.5967,2.5918,0.0,2.8872,0.0,3.0848,3.1554,3.091,3.2541,0.0,0.0,3.4914,3.5644,3.6629,3.68,3.7206,3.8281,3.8521,3.8848,3.9343,3.9957,4.0453,4.0671,3.9948,3.9544,3.9941,4.057,4.1203,4.1635,4.1644,4.2017,4.3144,4.3633,4.3743,4.3956,4.3943,4.3989,4.396,4.2862,4.1949,4.1626,4.0585,3.9753,3.9445,3.9388,3.9388,3.9388,3.9388,3.9388,3.9388,3.9388,3.9388,3.0983,3.1829,3.1829,3.1499,3.102,3.0608,3.0419,3.0381,2.996,2.9779,2.9779,2.9528,2.9302,2.9111,2.9017,2.9215,2.9612,3.0187,3.057,3.0756,3.1107,3.1368,3.1496,3.1496,3.1496,3.1496,3.1197,3.1032,3.1032,3.0763,3.0778,3.1032,3.0601,3.0148,2.9691,2.9626,2.9766,3.0103,2.9452,2.8695,2.7862,2.7511,2.7008,2.627,2.6843,2.6889,2.625,2.6514,2.6327,2.5537,2.5187,2.4677,2.3875,2.3571,2.3413,0.0,0.0,0.0,0.0,0.0,0.0,0.0,0.0,0.0,0.0,0.0,2.973,3.1184,3.2848,3.3796,3.3648,3.5041,3.6114,3.6477,3.6922,3.7481,3.8221,3.8292,3.856,3.9335,3.9437,3.9587,3.9944,4.0404,4.0794,4.1038,4.0414,4.0306,4.1338,4.2144,4.2769,4.3227,4.3234,4.3439,4.4485,4.4598,4.4598,4.4598,4.4598,4.4598,4.457,4.3827,4.2939,4.2125,4.1196,4.0289,3.9574,3.9388,3.9388,3.9388,3.9388,3.9388,3.9388,3.9388,3.9388,3.1924,3.2784,3.2784,3.2841,3.289,3.196,3.1426,3.1143,3.0355,2.9857,2.9641,2.9101,2.9034,2.9271,2.8904,2.9139,2.9878,3.0254,3.045,3.0494,3.119,3.1496,3.1496,3.1496,3.1466,3.1346,3.0763,3.0462,3.0357,2.9849,2.9864,3.0357,3.0387,3.0687,3.1198,3.0558,3.0558,3.1213,2.9973,2.8925,2.8072,2.7472,2.6794,2.6135,2.7234,2.7291,2.6118,2.6595,2.6974,2.7094,2.6522,2.6228,2.6277,2.6228,2.6239,0.0,2.629,0.0,0.0,0.0,0.0,0.0,0.0,0.0,0.0,3.0153,3.096,3.3609,3.5061,3.613,3.6892,3.7629,3.8092,3.8121,3.8679,3.9059,3.9086,3.9679,4.0113,4.0113,4.0113,4.0113,4.0104,4.0113,4.0383,4.0881,4.1049,4.1478,4.279,4.3675,4.4232,4.4564,4.4598,4.4457,4.457,4.4598,4.4598,4.4598,4.4598,4.4598,4.4598,4.431,4.371,4.2347,4.1674,4.1028,3.9646,3.9388,3.9388,3.9388,3.9388,3.9388,3.9388,3.9388,3.9388,3.289,3.3739,3.3739,3.4211,3.4839,3.3891,3.2607,3.118,3.1007,3.0262,2.9089,2.8715,2.8625,2.8741,2.9577,3.0059,3.0244,3.0955,3.1292,3.1278,3.1453,3.1496,3.1496,3.1496,3.1212,3.0717,3.0539,3.0253,2.9759,2.9639,2.9666,2.9786,2.9771,2.9831,2.9939,0.0,0.0,0.0,2.9682,2.9135,2.8283,2.8111,2.7664,2.6838,2.7067,0.0,2.6808,2.6903,2.7239,2.7776,2.7667,0.0,0.0,0.0,0.0,0.0,0.0,0.0,0.0,0.0,0.0,0.0,3.0845,3.091,3.1285,3.2227,3.3282,3.4415,3.5766,3.6917,3.7699,3.8916,3.9679,3.9679,3.9799,3.9876,3.9876,4.002,4.0113,4.0113,4.0113,4.0113,4.0113,4.0113,4.0163,4.0367,4.0832,4.1271,4.1593,4.2844,4.3842,4.4418,4.453,4.4581,4.4598,4.4564,4.453,4.4598,4.4598,4.4598,4.4497,4.3456,4.2567,4.1997,4.0842,3.99,3.9445,3.9388,3.9388,3.9388,3.9388,3.9388,3.9388,3.9388,3.9388,3.3856,0.0,3.4758,3.5019,0.0,3.4953,3.3939,3.2558,3.2092,3.1114,2.9799,2.9348,2.9217,2.9417,3.0017,3.0524,3.0911,3.1322,3.1496,3.1496,3.1496,3.1496,3.1496,3.1496,3.1137,3.0492,3.0193,2.9741,2.9101,2.8768,2.8798,2.9101,2.9127,2.925,2.9592,2.958,2.9565,2.9606,2.9265,2.8884,2.8475,2.8417,2.7864,2.6835,0.0,0.0,0.0,0.0,0.0,0.0,0.0,0.0,0.0,0.0,0.0,3.0262,3.0354,3.0406,3.0425,3.1096,3.1784,3.2465,3.3197,3.3126,3.2146,3.3599,3.4742,3.5187,3.6522,3.7661,3.8421,3.9438,4.0113,4.0113,4.0113,4.0113,4.0113,4.0113,4.0113,4.0113,4.0113,4.0113,4.0113,4.0113,4.0113,4.0113,4.0417,4.0798,4.1271,4.2472,4.3589,4.3944,4.3995,4.3995,4.4012,4.4012,4.4198,4.4479,4.4598,4.4598,4.4598,4.3885,4.3031,4.2189,4.1262,4.0497,3.9589,3.9388,3.9388,3.9388,3.9388,3.9388,3.9388,3.9388,3.9388,3.4758,3.5504,3.5489,3.5489,3.5489,3.537,3.4768,3.383,0.0,0.0,0.0,3.0109,3.0045,3.0299,3.045,3.0866,3.1467,3.1496,3.1496,3.1496,3.1496,3.1496,3.1496,3.1496,3.1134,3.0478,2.9994,2.9426,2.8732,2.8082,2.8047,2.8548,2.8464,2.8734,2.9358,2.9468,2.9518,2.9542,2.9016,2.8743,2.8743,2.8684,2.8128,2.7041,2.8629,2.871,2.7097,2.7556,2.7921,2.8091,2.7985,2.8507,2.9781,3.0894,3.1782,3.2449,3.3035,3.3231,3.2967,3.3444,3.3811,3.3945,3.4964,3.491,3.3234,3.4632,3.5681,3.5892,3.7129,3.8193,3.8937,3.9673,4.0113,4.0113,4.0113,4.0113,4.0113,4.0113,4.0113,4.0113,4.0113,4.0113,4.0113,4.0113,4.0113,4.0113,4.0146,4.0358,4.1187,4.2446,4.3369,4.325,4.3521,4.3656,4.347,4.3656,4.3859,4.4496,4.4598,4.4598,4.457,4.4338,4.3575,4.2269,4.1804,4.086,3.9717,3.9388,3.9388,3.9388,3.9388,3.9388,3.9388,3.9388,3.9388,3.5359,3.5489,3.5489,3.5489,3.5459,3.4876,3.4215,3.3443,3.1811,3.064,2.995,3.0162,3.0249,3.0329,3.1014,3.1409,3.1496,3.1496,3.1496,3.1496,3.1496,3.1496,3.1496,3.1496,3.1132,3.0551,3.0407,3.0015,2.9288,2.8661,2.8429,2.8449,2.7996,2.8057,2.8629,2.9155,2.9416,2.9435,2.9324,2.9293,2.9277,2.9273,2.9187,2.9027,2.9236,2.9298,2.9004,2.9059,2.9406,2.9951,2.9982,3.0323,3.1077,3.1302,3.1718,3.2347,3.2508,3.3024,3.4136,3.4314,3.4639,3.5268,3.5509,3.5464,3.5227,3.5425,3.5898,3.6572,3.7385,3.821,3.8937,3.9673,4.0113,4.0113,4.0113,4.0113,4.0113,4.0113,4.0113,4.0113,4.0113,4.0113,4.0113,4.0113,4.0113,4.0113,4.0113,4.0367,4.1136,4.2446,4.3031,4.2811,4.3616,4.4012,4.3538,4.3978,4.4265,4.4564,4.4598,4.457,4.4468,4.3499,4.2536,4.2029,4.0943,3.9935,3.9424,3.9388,3.9388,3.9388,3.9388,3.9388,3.9388,3.9388,3.9388,3.5489,3.5459,3.51,3.516,3.5444,3.4803,3.3888,3.2915,3.209,3.1541,3.1255,3.1055,3.097,3.0999,3.1336,3.1496,3.1496,3.1496,3.1496,3.1496,3.1496,3.1301,3.1014,3.1306,3.093,3.0035,3.0291,3.0085,2.9418,2.9111,2.8973,2.8973,2.8693,2.8717,2.8996,2.9585,2.9892,2.987,2.9563,2.9406,2.9422,2.9717,2.9739,2.9406,2.9695,2.9717,2.9406,2.9406,2.9528,2.9847,3.0158,3.0482,3.0807,3.1472,3.221,3.2906,3.3311,3.3996,3.5042,3.5115,3.525,3.5566,3.5616,3.5616,3.5616,3.5616,3.5752,3.6163,3.7195,3.8041,3.8396,3.9436,4.0113,4.0113,4.0113,4.0113,4.0113,4.0113,4.0113,4.0113,4.0113,4.0113,4.0113,4.0113,4.0113,4.0113,4.0113,4.0265,4.0561,4.1508,4.2117,4.183,4.232,4.2709,4.2794,4.3081,4.3684,4.4429,4.4598,4.4384,4.4051,4.3061,4.2379,4.1478,4.0585,3.999,3.9538,3.9388,3.9388,3.9388,3.9388,3.9388,3.9388,3.9388,3.9388,3.5415,3.522,3.4728,3.4622,3.4786,3.4262,3.3365,3.2303,3.2258,3.2273,3.2183,3.172,3.1496,3.1496,3.1496,3.1496,3.1496,3.1496,3.1496,3.1496,3.1496,3.1222,3.0787,3.1183,3.0866,3.0043,3.0376,3.0306,2.9842,2.9673,2.9518,2.9429,2.9518,2.9607,2.9629,3.0225,3.0481,3.0477,3.0021,2.9805,2.9805,3.0272,3.0288,2.987,3.0251,3.0272,2.9827,2.9821,2.9805,2.9843,3.0251,3.0481,3.0535,3.1479,3.2378,3.3102,3.3846,3.4658,3.5498,3.5616,3.5616,3.5616,3.5616,3.5616,3.5616,3.5616,3.5616,3.5752,3.684,3.7702,3.8041,3.9039,3.991,4.0062,4.0113,4.0113,4.0113,4.0113,4.0113,4.0113,4.0113,4.0113,4.0113,4.0113,4.0113,4.0113,4.0113,4.0113,4.018,4.0612,4.0916,4.1052,4.1339,4.1914,4.2286,4.2726,4.3413,4.4479,4.4598,4.4224,4.3608,4.3216,4.2458,4.1113,4.0519,4.008,3.9517,3.9388,3.9388,3.9388,3.9388,3.9388,3.9388,3.9388,3.9388,3.513,3.4638,3.4503,3.3814,3.2841,3.2766,3.2332,3.166,3.16,3.16,3.1615,3.1525,3.1496,3.1496,3.1496,3.1496,3.1496,3.1496,3.1496,3.1496,3.1496,3.1447,3.1278,3.1365,3.1306,3.1085,3.1133,3.1075,3.0912,3.0456,2.9973,2.9518,2.9951,3.0208,3.0272,3.0818,3.1095,3.1095,3.1055,3.1035,3.1035,3.1075,3.1095,3.1035,3.1075,3.1095,3.0958,3.1035,3.1035,3.1035,3.1055,3.1112,3.1128,3.1238,3.165,3.2378,3.3119,3.4095,3.5414,3.5616,3.5616,3.5616,3.5616,3.5616,3.5616,3.5616,3.5616,3.5752,3.64,3.7195,3.7838,3.865,3.9394,3.9943,4.0079,4.0113,4.0113,4.0113,4.0113,4.0113,4.0113,4.0113,4.0113,4.0113,4.0113,4.0113,4.0113,4.0146,4.0231,4.0231,4.0383,4.0629,4.1779,4.2692,4.2591,4.3532,4.4073,4.4479,4.457,4.4109,4.3366,4.2552,4.1739,4.0724,4.0045,3.9574,3.9481,3.9388,3.9388,3.9388,3.9388,3.9388,3.9388,3.9388,3.9388,3.4158,3.3889,3.3484,3.2781,3.2004,3.2318,3.2108,3.1525,3.1496,3.1496,3.1496,3.1496,3.1496,3.1496,3.1496,3.1496,3.1496,3.1496,3.1496,3.1495,3.1457,3.1263,3.0918,3.1212,3.1137,3.0782,3.1066,3.1221,3.1182,3.0955,3.0699,3.0497,3.072,3.0838,3.0858,3.1075,3.119,3.119,3.119,3.119,3.119,3.119,3.119,3.119,3.119,3.119,3.119,3.119,3.119,3.119,3.119,3.119,3.119,3.119,3.1512,3.2293,3.3406,3.4303,3.4912,3.5368,3.5616,3.5616,3.5616,3.5616,3.5616,3.5616,3.5616,3.5684,3.6315,3.6948,3.7297,3.8278,3.9123,3.9469,3.9825,4.0113,4.0113,4.0113,4.0113,4.0113,4.0113,4.0113,4.0113,4.0113,4.0113,4.0113,4.0113,4.0265,4.0612,4.04,4.0316,4.0798,4.1931,4.2506,4.2422,4.2726,4.3572,4.4243,4.4167,4.3532,4.2676,4.1836,4.0961,4.0115,3.9666,3.9424,3.9424,3.9388,3.9388,3.9388,3.9388,3.9388,3.9388,3.9388,3.9388,3.338,3.314,3.2482,3.1944,3.1555,3.2004,3.1944,3.1525,3.1496,3.1496,3.1496,3.1496,3.1496,3.1496,3.1496,3.1406,3.1241,3.1227,3.1221,3.1222,3.1167,3.1011,3.0779,3.1112,3.1044,3.068,3.0992,3.119,3.119,3.119,3.119,3.119,3.119,3.119,3.119,3.119,3.119,3.119,3.119,3.119,3.119,3.119,3.119,3.119,3.119,3.119,3.119,3.119,3.119,3.119,3.119,3.119,3.119,3.119,3.1549,3.231,3.3491,3.4286,3.4489,3.5199,3.5616,3.5616,3.5616,3.5616,3.5616,3.5616,3.5616,3.565,3.6129,3.6524,3.6931,3.7939,3.8717,3.8988,3.9673,4.0096,4.0113,4.0113,4.0113,4.0113,4.0113,4.0113,4.0113,4.0113,4.0146,4.04,4.0451,4.0646,4.1255,4.1111,4.0959,4.1424,4.1982,4.2252,4.2337,4.2939,4.3409,4.363,4.3651,4.3,4.1965,4.108,4.0447,3.99,3.9553,3.9388,3.9388,3.9388,3.9388,3.9388,3.9388,3.9388,3.9388,3.9388,3.9388,3.314,3.2497,3.1809,3.1555,3.1511,3.1555,3.1555,3.1496,3.1496,3.1496,3.1496,3.1496,3.1496,3.1496,3.1496,3.1152,3.0627,3.0567,3.0582,3.0608,3.0583,3.0821,3.1231,3.1276,3.1236,3.1086,3.1151,3.119,3.119,3.119,3.119,3.119,3.119,3.119,3.119,3.119,3.119,3.119,3.119,3.119,3.119,3.119,3.119,3.119,3.119,3.119,3.119,3.119,3.119,3.119,3.119,3.119,3.119,3.119,3.1529,3.2242,3.3017,3.3778,3.4421,3.516,3.5616,3.5616,3.5616,3.5616,3.5616,3.5616,3.5616,3.5616,3.5684,3.6028,3.6654,3.7516,3.8278,3.887,3.9639,4.0045,4.0113,4.0113,4.0113,4.0113,4.0113,4.0113,4.0113,4.0113,4.04,4.0815,4.1068,4.1356,4.1914,4.21,4.21,4.2185,4.232,4.232,4.2439,4.3081,4.367,4.3676,4.3306,4.2724,4.1609,4.0622,4.0115,3.9722,3.9502,3.9373,3.9388,3.9388,3.9388,3.9388,3.9388,3.9388,3.9388,3.9388,3.9388,3.2064,3.1839,3.16,3.1496,3.1496,3.1496,3.1496,3.1496,3.1496,3.1496,3.1496,3.1496,3.1496,3.1496,3.1496,3.1122,3.0507,3.0103,3.0137,3.0443,3.0465,3.0733,3.1238,3.127,3.1241,3.1185,3.119,3.119,3.119,3.119,3.119,3.119,3.119,3.119,3.119,3.119,3.119,3.119,3.119,3.119,3.119,3.119,3.119,3.119,3.119,3.119,3.119,3.119,3.119,3.119,3.119,3.119,3.119,3.119,3.1292,3.1664,3.273,3.3525,3.388,3.494,3.5616,3.5616,3.5616,3.5616,3.5616,3.5616,3.5616,3.5616,3.5616,3.5791,3.6163,3.7144,3.8007,3.8362,3.9368,4.0113,4.0113,4.0113,4.0113,4.0113,4.0113,4.0113,4.0113,4.0113,4.0214,4.046,4.0899,4.1542,4.21,4.2303,4.2523,4.2895,4.3014,4.3014,4.3014,4.3352,4.3625,4.3287,4.2847,4.2029,4.1013,4.0185,3.961,3.9189,3.905,3.914,3.908,3.929,3.9284,3.9388,3.9388,3.9388,3.9388,3.9388,3.9388,3.1496,3.1496,3.1496,3.1496,3.1496,3.1496,3.1496,3.1496,3.1496,3.1496,3.1496,3.1496,3.1391,3.1152,3.1001,3.0537,2.9951,2.9855,2.998,3.0156,3.0311,3.069,3.1182,3.1231,3.119,3.119,3.119,3.119,3.119,3.119,3.119,3.119,3.119,3.119,3.119,3.119,3.119,3.119,3.119,3.119,3.119,3.119,3.119,3.119,3.119,3.119,3.119,3.119,3.119,3.119,3.119,3.119,3.119,3.119,3.119,3.1343,3.2577,3.3389,3.3575,3.4771,3.5616,3.5616,3.5616,3.5616,3.5616,3.5616,3.5616,3.5616,3.5616,3.5616,3.5887,3.6992,3.7905,3.8091,3.9208,4.0079,4.0113,4.0113,4.0113,4.0113,4.0113,4.0113,4.0113,4.0113,4.0367,4.0705,4.1271,4.1897,4.2777,4.3075,4.3166,4.3673,4.3792,4.3608,4.3378,4.3375,4.3107,4.2747,4.2157,4.1346,4.0603,3.9844,3.9206,3.8756,3.8571,3.8676,3.8856,3.908,3.926,3.9358,3.9388,3.9388,3.9388,3.9388,3.9388,3.1496,3.1496,3.1496,3.1496,3.1496,3.1496,3.1496,3.1496,3.1451,3.1421,3.1481,3.1466,3.1122,3.0612,3.0351,2.951,2.9222,3.0125,3.0206,2.961,3.0049,3.0622,3.1179,3.1185,3.119,3.119,3.119,3.119,3.119,3.119,3.119,3.119,3.119,3.119,3.119,3.119,3.119,3.119,3.119,3.119,3.119,3.119,3.119,3.119,3.119,3.119,3.119,3.119,3.119,3.119,3.119,3.119,3.119,3.119,3.119,3.141,3.2577,3.3322,3.3558,3.4771,3.5616,3.5616,3.5616,3.5616,3.5616,3.5616,3.5616,3.5616,3.5616,3.5616,3.5887,3.7043,3.7882,3.8058,3.9208,4.0062,4.0113,4.0113,4.0113,4.0113,4.0113,4.0113,4.0113,4.0214,4.0671,4.1576,4.2168,4.2692,4.3775,4.4107,4.4462,4.4513,4.4356,4.4097,4.3664,4.3229,4.2675,4.2141,4.1445,4.069,4.0095,3.9394,3.8945,3.8497,3.8167,3.8257,3.8646,3.8901,3.9275,3.9388,3.9388,3.9388,3.9388,3.9388,3.9388,3.1496,3.1496,3.1496,3.1496,3.1496,3.1496,3.1496,3.1436,3.1032,3.1062,3.1361,3.1002,3.0928,3.1234,3.1472,3.0998,3.0068,3.1148,3.096,2.9749,3.0038,3.0638,3.1095,3.119,3.119,3.119,3.119,3.119,3.119,3.119,3.119,3.119,3.119,3.119,3.119,3.119,3.119,3.119,3.119,3.119,3.119,3.119,3.119,3.119,3.119,3.119,3.119,3.119,3.119,3.119,3.119,3.119,3.119,3.119,3.119,3.1326,3.2577,3.3389,3.3575,3.4721,3.5616,3.5616,3.5616,3.5616,3.5616,3.5616,3.5616,3.5616,3.5616,3.5769,3.6451,3.7297,3.7905,3.7898,3.9191,4.0113,4.0113,4.0113,4.0113,4.0113,4.0113,4.0113,4.0214,4.0409,4.1001,4.1593,4.2405,4.3335,4.3724,4.4333,4.4581,4.4598,4.4514,4.415,4.3426,4.2614,4.1933,4.1445,4.0792,4.0309,3.9702,3.9313,3.8856,3.8272,3.7943,3.7958,3.8347,3.8841,3.9224,3.9388,3.9388,3.9388,3.9388,3.9388,3.9388,3.1496,3.1496,3.1496,3.1496,3.1496,3.1496,3.1496,3.1406,3.0778,3.0853,3.1241,3.0552,3.0511,3.1073,3.1366,3.1104,3.0602,3.1342,3.1078,3.0282,3.0438,3.0858,3.1171,3.119,3.119,3.119,3.119,3.119,3.119,3.119,3.119,3.119,3.119,3.119,3.119,3.119,3.119,3.119,3.119,3.119,3.119,3.119,3.119,3.119,3.119,3.119,3.119,3.119,3.119,3.119,3.119,3.119,3.119,3.119,3.119,3.1461,3.2493,3.3389,3.3541,3.4771,3.5616,3.5616,3.5616,3.5616,3.5616,3.5616,3.5616,3.5616,3.5887,3.6248,3.6812,3.7736,3.8244,3.8328,3.9385,4.0045,4.0113,4.0113,4.0113,4.0113,4.0113,4.0113,4.0248,4.0713,4.1305,4.1677,4.2642,4.3623,4.3809,4.4299,4.4468,4.444,4.4167,4.3621,4.2862,4.2062,4.1213,4.0656,4.0185,3.99,3.9466,3.9394,3.908,3.8108,3.7569,3.7614,3.7958,3.8856,3.9388,3.9388,3.9388,3.9388,3.9388,3.9388,3.9388,3.1496,3.1496,3.1496,3.1496,3.1496,3.1496,3.1496,3.1376,3.0717,3.0733,3.1032,3.0058,2.9925,3.0269,3.0297,3.0328,3.0482,3.0729,3.0997,3.1115,3.118,3.1171,3.119,3.119,3.119,3.119,3.119,3.119,3.119,3.119,3.119,3.119,3.119,3.119,3.119,3.119,3.119,3.119,3.1123,3.1072,3.1157,3.1089,3.114,3.1173,3.119,3.119,3.119,3.119,3.119,3.119,3.119,3.119,3.119,3.119,3.119,3.1258,3.2577,3.3254,3.3694,3.4771,3.56,3.5616,3.5616,3.5616,3.5616,3.5616,3.5667,3.5842,3.6332,3.6812,3.7218,3.8108,3.8853,3.9123,3.9706,4.0079,4.0113,4.0113,4.0113,4.0113,4.0113,4.0197,4.0333,4.0967,4.1711,4.2303,4.3064,4.3809,4.4231,4.4502,4.4525,4.427,4.3785,4.3,4.2221,4.1626,4.0792,4.0185,3.9773,3.9646,3.9266,3.914,3.905,3.8093,3.7464,3.7464,3.7853,3.8775,3.9328,3.9388,3.9388,3.9388,3.9388,3.9388,3.9388,3.1496,3.1496,3.1496,3.1496,3.1496,3.1496,3.1496,3.1346,3.0313,3.0223,3.0402,2.943,2.9492,3.0453,3.0802,3.1036,3.1176,3.1512,3.1496,3.1264,3.123,3.119,3.119,3.119,3.119,3.119,3.119,3.119,3.119,3.119,3.1173,3.119,3.1173,3.1173,3.119,3.1173,3.119,3.1106,3.0632,3.0717,3.1055,3.0683,3.0666,3.1157,3.119,3.119,3.119,3.119,3.119,3.119,3.119,3.119,3.119,3.1224,3.1258,3.1478,3.256,3.3423,3.3711,3.4793,3.5549,3.5616,3.5616,3.5616,3.5616,3.5616,3.5893,3.6315,3.6745,3.7263,3.8176,3.8727,3.9208,3.974,3.9977,4.0113,4.0113,4.0113,4.0113,4.0146,4.0527,4.0781,4.1068,4.1897,4.276,4.3115,4.3673,4.4265,4.453,4.457,4.4542,4.3844,4.3229,4.2379,4.1609,4.108,4.0466,3.9773,3.9481,3.9517,3.905,3.8616,3.8467,3.8018,3.7719,3.7629,3.8167,3.8931,3.9119,3.9388,3.9388,3.9388,3.9388,3.9388,3.9388,3.1496,3.1496,3.1496,3.1496,3.1496,3.1496,3.1496,3.1241,3.0178,2.9924,3.0113,2.913,2.9279,3.0427,3.0812,3.128,3.1707,3.181,3.1765,3.1698,3.1343,3.1207,3.119,3.119,3.119,3.119,3.119,3.119,3.119,3.119,3.1038,3.0835,3.1055,3.1038,3.0734,3.1072,3.119,3.1123,3.0768,3.0801,3.1106,3.0801,3.0801,3.114,3.119,3.119,3.119,3.119,3.119,3.119,3.119,3.119,3.1224,3.1532,3.165,3.1715,3.3034,3.3863,3.4066,3.4957,3.5549,3.5616,3.5616,3.5616,3.5684,3.5876,3.6383,3.6711,3.732,3.793,3.8363,3.8765,3.9303,3.9902,4.0113,4.0113,4.0113,4.0113,4.0113,4.0265,4.0696,4.1204,4.1255,4.254,4.3189,4.3538,4.4012,4.4367,4.4598,4.4542,4.4207,4.3426,4.2707,4.1933,4.1095,4.05,4.0185,3.9553,3.9239,3.9269,3.908,3.8497,3.8347,3.8227,3.7973,3.7958,3.8482,3.8945,3.9209,3.9388,3.9388,3.9388,3.9388,3.9388,3.9388,3.1496,3.1496,3.1496,3.1496,3.1496,3.1496,3.1421,3.1137,3.0103,2.9886,2.9988,2.9045,2.9257,3.0371,3.0446,3.1,3.2067,3.1526,3.1664,3.1701,3.1495,3.119,3.119,3.119,3.119,3.119,3.119,3.119,3.119,3.119,3.0869,3.0666,3.0987,3.0835,3.0666,3.092,3.1157,3.1157,3.0954,3.0954,3.1089,3.097,3.092,3.114,3.119,3.119,3.1224,3.1275,3.1326,3.119,3.119,3.1258,3.1376,3.2005,3.231,3.2598,3.3592,3.4387,3.4573,3.5131,3.5616,3.5616,3.5616,3.5684,3.5893,3.6349,3.6829,3.7286,3.8285,3.858,3.8519,3.8748,3.9347,3.9952,4.0113,4.0113,4.0113,4.0113,4.013,4.0265,4.0882,4.1255,4.1779,4.254,4.3544,4.3859,4.4237,4.4294,4.4281,4.4138,4.3545,4.2707,4.2062,4.1511,4.0706,3.9935,3.9702,3.9373,3.9155,3.9095,3.9215,3.8856,3.8601,3.8407,3.8272,3.8347,3.8646,3.9035,3.9298,3.9388,3.9388,3.9388,3.9388,3.9388,3.9388,3.1496,3.1496,3.1496,3.1496,3.1496,3.1496,3.1182,3.0657,2.9909,2.9633,2.9541,2.8841,2.9238,3.0326,3.0371,3.0721,3.1458,3.1275,3.1345,3.1343,3.1326,3.119,3.119,3.119,3.119,3.119,3.119,3.119,3.119,3.1173,3.1123,3.0987,3.0987,3.1106,3.097,3.1004,3.119,3.1106,3.07,3.0751,3.1021,3.0717,3.0717,3.1123,3.119,3.119,3.1326,3.1749,3.1785,3.136,3.1275,3.1562,3.1955,3.2259,3.2666,3.3237,3.3964,3.4523,3.4624,3.5199,3.5616,3.5616,3.5633,3.587,3.6502,3.6694,3.7405,3.82,3.8836,3.9159,3.9412,3.9673,3.9859,4.002,4.0113,4.013,4.013,4.013,4.04,4.0899,4.1576,4.2269,4.2817,4.3572,4.4164,4.4327,4.4271,4.4219,4.4006,4.3726,4.2939,4.2093,4.1576,4.0995,4.0289,3.9636,3.9433,3.9269,3.9095,3.8886,3.899,3.9125,3.8856,3.8721,3.8661,3.8796,3.896,3.9125,3.9388,3.9388,3.9388,3.9388,3.9388,3.9388,3.9388,3.1496,3.1496,3.1496,3.1316,3.1076,3.1002,3.0687,3.0028,2.9427,2.9284,2.9391,2.9069,2.9467,3.0309,3.058,3.0935,3.1131,3.119,3.119,3.1207,3.119,3.119,3.119,3.119,3.119,3.119,3.119,3.119,3.119,3.1157,3.1004,3.0768,3.1004,3.0937,3.0818,3.1021,3.1173,3.1157,3.0852,3.0835,3.1038,3.0852,3.0717,3.1123,3.119,3.119,3.1241,3.1921,3.2002,3.1884,3.2036,3.2188,3.2446,3.2953,3.3529,3.3931,3.4607,3.4996,3.5182,3.5346,3.5616,3.5616,3.5616,3.6079,3.6688,3.71,3.7828,3.8751,3.9317,3.9723,4.002,3.9636,3.9688,4.0045,4.0113,4.0248,4.0536,4.0612,4.073,4.1339,4.2134,4.2794,4.3521,4.4198,4.4479,4.4462,4.4395,4.4298,4.3697,4.3336,4.241,4.1642,4.1113,4.05,3.9809,3.937,3.9242,3.914,3.9065,3.8841,3.8766,3.8931,3.905,3.9005,3.899,3.9095,3.9209,3.9358,3.9388,3.9388,3.9388,3.9388,3.9388,3.9388,3.9388,3.1451,3.1361,3.1466,3.1047,3.0447,3.0462,3.0118,2.9385,2.8846,2.8981,2.9408,2.9441,2.9739,3.0435,3.0938,3.1171,3.119,3.119,3.119,3.119,3.119,3.119,3.119,3.119,3.119,3.119,3.119,3.119,3.119,3.1157,3.0987,3.0531,3.0869,3.0954,3.0615,3.0835,3.119,3.1173,3.1123,3.1106,3.1173,3.1123,3.1157,3.1173,3.119,3.119,3.1376,3.2005,3.2429,3.2361,3.322,3.3254,3.3136,3.3664,3.4607,3.4641,3.5211,3.543,3.5464,3.5566,3.5616,3.5616,3.5785,3.6197,3.6924,3.7686,3.843,3.9073,3.969,4.0011,4.0045,3.9688,3.961,3.9961,4.018,4.0544,4.1026,4.1244,4.1432,4.1813,4.2591,4.3267,4.3724,4.4265,4.4462,4.457,4.4485,4.4167,4.3532,4.2724,4.1739,4.0961,4.0413,4.0185,3.9574,3.9074,3.896,3.911,3.905,3.8901,3.8751,3.9005,3.923,3.9284,3.9313,3.9343,3.9343,3.9373,3.9388,3.9388,3.9388,3.9388,3.9388,3.9388,3.9448,3.1167,3.0717,3.1271,3.0808,2.9936,3.0268,2.9789,2.8861,2.8633,2.8912,2.9379,2.9448,3.0059,3.0818,3.1095,3.119,3.119,3.119,3.119,3.119,3.119,3.119,3.119,3.119,3.119,3.119,3.119,3.119,3.119,3.1173,3.1089,3.1021,3.1106,3.1038,3.1021,3.114,3.119,3.119,3.119,3.119,3.119,3.119,3.119,3.119,3.119,3.1241,3.1546,3.2442,3.2949,3.2581,3.4201,3.459,3.4303,3.4387,3.481,3.5233,3.5464,3.5616,3.5616,3.5616,3.5616,3.5735,3.6146,3.6907,3.7652,3.8345,3.8971,3.9605,3.9943,4.0113,4.0113,3.9859,3.9901,4.0206,4.0501,4.0871,4.1153,4.1527,4.2059,4.2456,4.307,4.3656,4.4045,4.4333,4.4479,4.4384,4.4064,4.3515,4.2754,4.1852,4.0826,4.0185,3.9646,3.9538,3.9424,3.8975,3.8721,3.908,3.9125,3.9065,3.902,3.9245,3.9409,3.9388,3.9388,3.9373,3.9373,3.9388,3.9388,3.9388,3.9388,3.9388,3.9388,3.9418,3.9768,3.0778,3.0522,3.0537,2.9968,2.922,2.937,2.8981,2.8235,2.842,2.8869,2.935,2.9739,3.0351,3.1015,3.119,3.119,3.119,3.119,3.119,3.119,3.119,3.119,3.119,3.119,3.119,3.119,3.119,3.119,3.119,3.119,3.119,3.1173,3.119,3.119,3.119,3.1173,3.119,3.119,3.119,3.119,3.119,3.119,3.119,3.119,3.1241,3.1393,3.1935,3.273,3.3423,3.3711,3.4827,3.5228,3.516,3.5098,3.5216,3.5532,3.5616,3.5616,3.5616,3.5633,3.5752,3.6231,3.662,3.7371,3.8176,3.8836,3.9343,3.9876,4.0113,4.0113,4.0113,4.0045,3.9901,3.9675,4.0121,4.0508,4.0687,4.1183,4.1904,4.2673,4.3002,4.3489,4.4333,4.4547,4.4581,4.4253,4.3756,4.2909,4.1997,4.1129,4.0205,3.9829,3.9424,3.9424,3.9388,3.9104,3.8811,3.908,3.923,3.917,3.9185,3.9364,3.9388,3.9388,3.9388,3.9388,3.9388,3.9388,3.9388,3.9388,3.9388,3.9388,3.9388,3.9493,3.9813,3.0357,3.0088,2.9729,2.9157,2.8487,2.8562,2.8336,2.7951,2.8301,2.8928,2.9591,3.0064,3.0601,3.1075,3.119,3.119,3.119,3.119,3.119,3.119,3.119,3.119,3.119,3.119,3.119,3.119,3.119,3.119,3.119,3.119,3.119,3.119,3.119,3.119,3.119,3.119,3.119,3.119,3.119,3.119,3.119,3.119,3.119,3.1241,3.1345,3.1735,3.2226,3.3203,3.388,3.4404,3.5098,3.56,3.56,3.56,3.56,3.5616,3.5616,3.5616,3.5616,3.5616,3.591,3.6586,3.6891,3.7736,3.8623,3.914,3.952,3.9977,3.9876,3.9782,3.9731,3.9679,3.9405,3.9281,3.9523,4.0004,4.0319,4.0782,4.1373,4.201,4.2534,4.3122,4.3798,4.3739,4.3575,4.3529,4.3,4.2252,4.1379,4.069,3.999,3.9646,3.9388,3.9388,3.9388,3.9388,3.9179,3.9224,3.9313,3.9284,3.9313,3.9373,3.9388,3.9388,3.9388,3.9388,3.9388,3.9388,3.9388,3.9388,3.9388,3.9388,3.9388,3.9478,3.9723,2.9849,2.8876,2.9382,2.8888,2.7914,2.8323,2.8505,2.8389,2.8487,2.9157,3.0107,3.0293,3.0679,3.1075,3.119,3.119,3.119,3.119,3.119,3.119,3.119,3.119,3.119,3.119,3.119,3.119,3.119,3.119,3.119,3.119,3.119,3.119,3.119,3.119,3.119,3.119,3.119,3.119,3.1207,3.1224,3.1224,3.1258,3.1343,3.141,3.1836,3.231,3.2666,3.3609,3.437,3.4573,3.5211,3.5566,3.5616,3.5616,3.5616,3.5616,3.5616,3.5616,3.5616,3.5718,3.6096,3.6891,3.7415,3.8142,3.8937,3.9605,3.991,4.0003,3.9542,3.9166,3.9102,3.8541,3.8443,3.8814,3.9271,3.9918,4.0388,4.0185,4.0796,4.1006,4.1429,4.2205,4.2939,4.2676,4.2458,4.2442,4.2236,4.1495,4.0844,4.0239,3.9829,3.9517,3.9388,3.9388,3.9388,3.9388,3.9388,3.9388,3.9388,3.9388,3.9388,3.9388,3.9388,3.9388,3.9388,3.9388,3.9388,3.9388,3.9388,3.9388,3.9388,3.9388,3.9388,3.9508,3.9664,2.9445,2.8607,2.8513,2.8139,2.766,2.7929,2.8207,2.8549,2.8873,2.9496,3.0272,3.0679,3.0975,3.1171,3.119,3.119,3.119,3.119,3.119,3.119,3.119,3.119,3.119,3.119,3.119,3.119,3.119,3.119,3.119,3.119,3.119,3.119,3.119,3.119,3.119,3.119,3.119,3.1309,3.1549,3.1562,3.1532,3.1918,3.2239,3.1904,3.2564,3.3055,3.3596,3.4037,3.4742,3.5013,3.5498,3.5583,3.5616,3.5616,3.5616,3.5616,3.5616,3.5616,3.565,3.6028,3.662,3.7364,3.8108,3.8853,3.9478,3.9876,4.0113,4.0096,3.9368,3.8951,3.8718,3.8218,3.803,3.8271,3.8843,3.9229,3.9716,3.9914,4.0015,4.017,4.0378,4.1129,4.1804,4.1901,4.1836,4.1965,4.1707,4.1046,4.05,4.001,3.9702,3.9445,3.9388,3.9388,3.9388,3.9388,3.9388,3.9388,3.9388,3.9388,3.9388,3.9388,3.9388,3.9388,3.9388,3.9388,3.9388,3.9388,3.9388,3.9388,3.9388,3.9388,3.9388,3.9448,3.9783,2.8951,2.8293,2.7809,2.7585,2.761,2.776,2.8189,2.8779,2.9377,2.9957,3.0497,3.0958,3.1171,3.119,3.119,3.119,3.119,3.119,3.119,3.119,3.119,3.119,3.119,3.119,3.119,3.119,3.119,3.119,3.119,3.119,3.119,3.119,3.119,3.119,3.119,3.119,3.119,3.1241,3.1887,3.1938,3.1816,3.2713,3.2882,3.2949,3.3271,3.3931,3.4426,3.4759,3.5165,3.5414,3.5566,3.5616,3.5616,3.5616,3.5616,3.5616,3.5616,3.5752,3.6028,3.6451,3.7144,3.7905,3.8785,3.9503,3.9893,4.0113,3.9901,3.9756,3.9022,3.858,3.8262,3.77,3.7607,3.7756,3.8207,3.8413,3.8722,3.9264,3.961,3.9737,3.9864,3.9884,4.05,4.0979,4.1213,4.1445,4.1129,4.0535,4.015,3.9758,3.961,3.9388,3.9388,3.9388,3.9388,3.9388,3.9388,3.9388,3.9388,3.9388,3.9388,3.9388,3.9388,3.9388,3.9388,3.9388,3.9388,3.9388,3.9388,3.9388,3.9388,3.9388,3.9403,3.9493,3.9978,2.8289,2.766,2.7615,2.7585,2.765,2.8213,2.8756,2.9309,2.993,3.0493,3.1015,3.1171,3.119,3.119,3.119,3.119,3.119,3.119,3.119,3.119,3.119,3.119,3.119,3.119,3.119,3.119,3.119,3.119,3.119,3.119,3.119,3.119,3.119,3.119,3.119,3.119,3.1292,3.1447,3.2005,3.2344,3.2446,3.3017,3.3406,3.3541,3.3981,3.4493,3.4556,3.5098,3.5453,3.5616,3.5616,3.5616,3.5616,3.5616,3.5616,3.5616,3.5791,3.6028,3.6451,3.6812,3.7212,3.8058,3.9022,3.991,4.0079,4.007,3.974,3.9086,3.8414,3.7645,3.7137,3.6715,3.6975,3.7482,3.8039,3.8596,3.8897,3.9197,3.9445,3.9424,3.9481,3.961,3.9631,4.0185,4.0447,4.0638,4.0447,3.99,3.9809,3.9517,3.9481,3.9388,3.9388,3.9388,3.9388,3.9388,3.9388,3.9388,3.9388,3.9388,3.9388,3.9388,3.9388,3.9388,3.9388,3.9388,3.9388,3.9388,3.9388,3.9388,3.9403,3.9448,3.9783,4.0068,4.0546,2.8188,2.76,2.7585,2.7585,2.7625,2.786,2.8496,2.9339,2.9651,3.0314,3.119,3.119,3.119,3.119,3.119,3.119,3.119,3.119,3.119,3.119,3.119,3.119,3.119,3.119,3.119,3.119,3.119,3.119,3.119,3.119,3.119,3.119,3.119,3.119,3.119,3.1275,3.1481,3.1853,3.2192,3.2479,3.3085,3.366,3.4083,3.4134,3.481,3.5148,3.5228,3.543,3.5566,3.5616,3.5616,3.5616,3.5616,3.5616,3.5616,3.5701,3.5977,3.6451,3.6863,3.7303,3.7973,3.908,3.9791,4.0113,4.0045,3.9688,3.9342,3.8663,3.779,3.695,3.6754,3.6615,3.6772,3.7364,3.8018,3.8721,3.911,3.9313,3.9388,3.9388,3.9388,3.9445,3.9445,3.9481,3.9681,3.9809,3.9589,3.9388,3.9388,3.9388,3.9388,3.9388,3.9388,3.9388,3.9388,3.9388,3.9388,3.9388,3.9388,3.9388,3.9388,3.9388,3.9388,3.9388,3.9403,3.9433,3.9433,3.9403,3.9433,3.9523,3.9568,3.9619,4.0008,4.0561,4.113,2.8049,2.7615,2.7585,2.7585,2.7635,2.7993,2.8614,2.9361,2.9848,3.0351,3.119,3.119,3.119,3.119,3.119,3.119,3.119,3.119,3.119,3.119,3.119,3.119,3.119,3.119,3.119,3.119,3.119,3.119,3.119,3.119,3.119,3.119,3.119,3.119,3.1241,3.1461,3.1802,3.2192,3.2852,3.3102,3.3795,3.4421,3.4827,3.4861,3.5334,3.5481,3.5515,3.5583,3.5583,3.5616,3.5616,3.5616,3.5616,3.5616,3.5616,3.5876,3.6299,3.6863,3.7246,3.7872,3.8768,3.974,3.9994,4.0113,3.9901,3.9385,3.8951,3.8442,3.7381,3.66,3.6615,3.6715,3.7105,3.7793,3.8452,3.9095,3.9194,3.9388,3.9388,3.9388,3.9388,3.9388,3.9388,3.9388,3.9445,3.9574,3.9517,3.9388,3.9388,3.9388,3.9388,3.9388,3.9388,3.9388,3.9388,3.9388,3.9388,3.9388,3.9388,3.9388,3.9388,3.9388,3.9388,3.9388,3.9418,3.9478,3.9642,3.9873,3.9843,3.9768,3.9978,4.0322,4.0621,4.119,4.1677,2.763,2.7585,2.7585,2.7585,2.7735,2.8834,2.93,2.954,3.0518,3.1055,3.119,3.119,3.119,3.119,3.119,3.119,3.119,3.119,3.119,3.119,3.119,3.119,3.119,3.119,3.119,3.119,3.119,3.119,3.119,3.119,3.119,3.119,3.119,3.1258,3.1275,3.1921,3.2259,3.2513,3.3749,3.4066,3.4573,3.5047,3.5182,3.543,3.5498,3.5616,3.5616,3.5616,3.5616,3.5616,3.5616,3.5616,3.5616,3.5735,3.5769,3.5825,3.6552,3.7246,3.7889,3.8582,3.9351,3.996,4.0113,4.0113,3.9944,3.9358,3.858,3.8064,3.7134,3.6642,3.6708,3.7049,3.7678,3.8153,3.8796,3.9194,3.9328,3.9388,3.9388,3.9388,3.9388,3.9388,3.9388,3.9388,3.9388,3.9424,3.9424,3.9388,3.9388,3.9388,3.9388,3.9388,3.9388,3.9388,3.9388,3.9388,3.9388,3.9388,3.9388,3.9388,3.9388,3.9388,3.9388,3.9418,3.9612,3.9858,4.0142,4.0412,4.0546,4.0741,4.101,4.1324,4.1602,4.1833,4.2282,2.7585,2.7585,2.7585,2.7585,2.771,2.8463,2.9019,2.9563,3.058,3.119,3.119,3.119,3.119,3.119,3.119,3.119,3.119,3.119,3.119,3.119,3.119,3.119,3.119,3.119,3.119,3.119,3.119,3.119,3.119,3.119,3.119,3.119,3.1326,3.1495,3.1853,3.2327,3.2632,3.3508,3.3947,3.4134,3.5064,3.5081,3.5148,3.5583,3.5616,3.5616,3.5616,3.5616,3.5616,3.5616,3.5616,3.5616,3.5735,3.5904,3.6349,3.6637,3.7422,3.8589,3.914,3.9673,3.9808,4.0045,4.0113,4.0113,4.002,3.8859,3.8177,3.7716,3.7033,3.6671,3.6588,3.7543,3.8153,3.8377,3.8856,3.9209,3.9388,3.9388,3.9388,3.9388,3.9388,3.9388,3.9388,3.9388,3.9388,3.9388,3.9388,3.9388,3.9388,3.9388,3.9388,3.9388,3.9388,3.9388,3.9388,3.9388,3.9388,3.9388,3.9388,3.9388,3.9388,3.9553,3.9813,4.0038,4.0127,4.0247,4.0756,4.1235,4.1632,4.1901,4.2021,4.2028,4.2132,4.2462,4.2925,2.7585,2.7585,2.7585,2.7585,2.7735,2.8448,2.9248,3.0059,3.0858,3.119,3.119,3.119,3.119,3.119,3.119,3.119,3.119,3.119,3.119,3.119,3.119,3.119,3.119,3.119,3.119,3.119,3.119,3.119,3.119,3.119,3.1376,3.1562,3.1579,3.2293,3.2716,3.3106,3.3237,3.4083,3.4404,3.4742,3.5228,3.5295,3.516,3.5481,3.5616,3.5616,3.5616,3.5616,3.5616,3.5616,3.5616,3.5616,3.5836,3.6282,3.6761,3.7202,3.8115,3.9216,3.9808,4.0011,4.0045,4.0096,4.0113,4.0113,3.9825,3.8723,3.8318,3.7796,3.7166,3.7068,3.7248,3.8237,3.8467,3.8691,3.899,3.9343,3.9388,3.9388,3.9388,3.9388,3.9388,3.9388,3.9388,3.9388,3.9388,3.9388,3.9388,3.9388,3.9388,3.9388,3.9388,3.9388,3.9403,3.9403,3.9403,3.9388,3.9388,3.9388,3.9538,3.9717,3.9948,4.0187,4.0412,4.0606,4.0756,4.1025,4.1609,4.2111,4.2372,4.2566,4.2656,4.2701,4.2716,4.2955,4.3275,2.7585,2.7585,2.7585,2.7585,2.7795,2.885,3.0038,3.1095,3.1188,3.119,3.119,3.119,3.119,3.119,3.119,3.119,3.119,3.119,3.119,3.119,3.119,3.119,3.119,3.119,3.119,3.119,3.119,3.119,3.119,3.119,3.1529,3.1989,3.2039,3.2784,3.3372,3.3728,3.3914,3.459,3.5064,3.5278,3.5515,3.5549,3.5481,3.5616,3.5616,3.5616,3.5616,3.5616,3.5616,3.5616,3.5616,3.5633,3.5887,3.64,3.6711,3.7371,3.8522,3.9351,3.9943,4.0096,4.0113,4.0113,4.0113,4.0113,3.9781,3.9035,3.876,3.8446,3.7996,3.8068,3.8281,3.8542,3.8766,3.902,3.9254,3.9388,3.9388,3.9388,3.9388,3.9388,3.9388,3.9388,3.9388,3.9388,3.9388,3.9388,3.9388,3.9388,3.9388,3.9388,3.9388,3.9388,3.9403,3.9469,3.9463,3.9612,3.9918,4.0068,4.0262,4.0457,4.0636,4.0801,4.1025,4.122,4.1399,4.1773,4.2312,4.2746,4.305,4.317,4.309,4.309,4.3015,4.309,4.3305,2.7585,2.7585,2.7585,2.7585,2.7785,2.8904,3.0102,3.1131,3.119,3.119,3.119,3.119,3.119,3.119,3.119,3.119,3.119,3.119,3.119,3.119,3.119,3.119,3.119,3.119,3.119,3.119,3.119,3.119,3.119,3.119,3.1224,3.1498,3.2192,3.2987,3.3592,3.4049,3.4607,3.5081,3.5481,3.5566,3.5616,3.5616,3.5616,3.5616,3.5616,3.5616,3.5616,3.5616,3.5616,3.565,3.5616,3.5752,3.6485,3.7195,3.7821,3.908,3.9639,3.9926,4.0079,4.0113,4.0113,4.0113,4.0113,4.0113,3.9942,3.9677,3.938,3.92,3.8921,3.8934,3.8944,3.9103,3.9148,3.923,3.9388,3.9388,3.9388,3.9388,3.9388,3.9388,3.9388,3.9388,3.9388,3.9388,3.9388,3.9388,3.9388,3.9388,3.9388,3.9388,3.9388,3.9388,3.9448,3.9514,3.9918,4.0142,4.0472,4.0756,4.0935,4.1085,4.119,4.1369,4.1662,4.1893,4.2162,4.2536,4.297,4.323,4.3305,4.3305,4.3215,4.326,4.3305,4.3305,4.3305,2.7585,2.7625,2.786,2.8222,2.8764,2.9435,3.0314,3.1095,3.119,3.119,3.119,3.119,3.119,3.119,3.119,3.119,3.119,3.119,3.119,3.119,3.119,3.119,3.119,3.119,3.119,3.119,3.119,3.119,3.119,3.1224,3.1295,3.1802,3.2378,3.3102,3.3863,3.459,3.5131,3.5414,3.56,3.5616,3.5616,3.5616,3.5616,3.5616,3.5616,3.5616,3.5616,3.5616,3.5718,3.5977,3.6062,3.6451,3.7202,3.7956,3.8717,3.9757,3.9994,4.0045,4.0113,4.0113,4.0113,4.0113,4.0113,4.0113,4.0103,3.9967,4.0111,4.0168,3.9897,3.9725,3.9741,3.9736,3.9566,3.9388,3.9388,3.9388,3.9388,3.9388,3.9388,3.9388,3.9388,3.9388,3.9388,3.9388,3.9388,3.9388,3.9388,3.9388,3.9388,3.9388,3.9388,3.9388,3.9499,3.9589,4.0098,4.0636,4.0876,4.122,4.1617,4.1752,4.1811,4.2058,4.2432,4.2716,4.297,4.3155,4.3215,4.3245,4.3305,4.3305,4.3305,4.3305,4.3305,4.3305,4.3305,2.7585,2.765,2.8247,2.9111,3.0208,3.0251,3.0601,3.1171,3.119,3.119,3.119,3.119,3.119,3.119,3.119,3.119,3.119,3.119,3.119,3.119,3.119,3.119,3.119,3.119,3.119,3.119,3.119,3.119,3.119,3.1241,3.1565,3.2293,3.2949,3.3626,3.4303,3.5064,3.5464,3.5532,3.5616,3.5616,3.5616,3.5616,3.5616,3.5616,3.5616,3.5616,3.5616,3.5735,3.5977,3.6485,3.6863,3.7094,3.7939,3.8684,3.9445,3.9808,4.0079,4.0113,4.0113,4.0113,4.0113,4.0113,4.0113,4.0231,4.0314,4.0641,4.0967,4.104,4.0789,4.0669,4.0663,3.9908,3.9472,3.9388,3.9388,3.9388,3.9388,3.9388,3.9388,3.9388,3.9388,3.9388,3.9388,3.9388,3.9388,3.9388,3.9388,3.9388,3.9582,3.9582,3.9642,3.9627,3.9753,4.0038,4.0711,4.1145,4.125,4.1579,4.2087,4.2396,4.2432,4.2806,4.323,4.3245,4.3185,4.323,4.329,4.3305,4.3305,4.3305,4.3305,4.3305,4.3305,4.3305,4.3305,2.7585,2.7635,2.8262,2.9196,3.023,3.0293,3.0658,3.1171,3.119,3.119,3.119,3.119,3.119,3.119,3.119,3.119,3.119,3.119,3.119,3.119,3.119,3.119,3.119,3.119,3.119,3.119,3.119,3.119,3.1207,3.1292,3.1579,3.231,3.3085,3.388,3.4489,3.5233,3.5583,3.5616,3.5616,3.5616,3.5616,3.5616,3.5616,3.5616,3.5616,3.5616,3.5616,3.5633,3.6096,3.6626,3.6761,3.7489,3.865,3.9394,3.9842,4.0062,4.0113,4.0113,4.0113,4.0113,4.0113,4.0113,4.018,4.0476,4.0881,4.1452,4.172,4.1718,4.1681,4.1596,4.1184,4.017,3.9388,3.9388,3.9388,3.9388,3.9388,3.9388,3.9388,3.9388,3.9388,3.9388,3.9388,3.9388,3.9388,3.9388,3.9388,3.9508,3.9993,4.0172,4.0337,4.0337,4.0232,4.0561,4.125,4.1698,4.1818,4.2237,4.2776,4.297,4.3045,4.3195,4.3305,4.3305,4.329,4.3305,4.3305,4.3305,4.3305,4.3305,4.3305,4.3305,4.3305,4.3305,4.3305,2.7585,2.771,2.8559,2.9607,3.0559,3.0699,3.0898,3.1134,3.119,3.119,3.119,3.119,3.119,3.119,3.119,3.119,3.119,3.119,3.119,3.119,3.119,3.119,3.119,3.119,3.119,3.119,3.119,3.1207,3.1244,3.1633,3.2039,3.2462,3.3237,3.4066,3.4607,3.5199,3.5616,3.5616,3.5616,3.5616,3.5616,3.5616,3.5616,3.5616,3.5616,3.5616,3.5616,3.5684,3.6332,3.7246,3.7963,3.8572,3.9436,3.9842,4.0045,4.0096,4.0113,4.0113,4.0113,4.0113,4.0113,4.0113,4.013,4.0417,4.0939,4.1436,4.1693,4.1729,4.1866,4.1805,4.0982,4.0025,3.9553,3.9388,3.9388,3.9388,3.9388,3.9388,3.9388,3.9388,3.9388,3.9388,3.9388,3.9388,3.9403,3.9493,3.9478,3.9888,4.0307,4.0801,4.095,4.1085,4.104,4.122,4.1856,4.2246,4.2402,4.288,4.329,4.3245,4.3195,4.323,4.3305,4.3305,4.3305,4.3305,4.3305,4.3305,4.3305,4.3305,4.3305,4.3305,4.3305,4.3305,4.3305,2.7685,2.7978,2.895,3.0064,3.1112,3.119,3.119,3.119,3.119,3.119,3.119,3.119,3.119,3.119,3.119,3.119,3.119,3.119,3.119,3.119,3.119,3.119,3.119,3.119,3.119,3.119,3.119,3.1207,3.1207,3.1633,3.2056,3.2598,3.3478,3.4477,3.4776,3.516,3.5616,3.5616,3.5616,3.5616,3.5616,3.5616,3.5616,3.5616,3.5616,3.5616,3.5616,3.5836,3.6479,3.7736,3.8979,3.9588,3.9859,4.0045,4.0062,4.0113,4.0113,4.0113,4.0113,4.0113,4.0113,4.0113,4.0146,4.051,4.1105,4.1416,4.1704,4.1773,4.19,4.1512,4.069,4.006,3.9646,3.9388,3.9388,3.9388,3.9388,3.9388,3.9388,3.9388,3.9388,3.9388,3.9388,3.9388,3.9493,3.9619,3.9903,4.0307,4.0756,4.1309,4.1698,4.1908,4.2013,4.2267,4.256,4.2626,4.2836,4.3015,4.3305,4.3305,4.3305,4.3305,4.3305,4.3305,4.3305,4.3305,4.3305,4.3305,4.3305,4.3305,4.3305,4.3305,4.3305,4.3305,4.3305,2.8198,2.9088,2.93,3.0064,3.1075,3.119,3.119,3.119,3.119,3.119,3.119,3.119,3.119,3.119,3.119,3.119,3.119,3.119,3.119,3.119,3.119,3.119,3.119,3.119,3.119,3.1258,3.1309,3.1241,3.1681,3.1732,3.2104,3.3136,3.3322,3.4269,3.5295,3.5583,3.5616,3.5616,3.5616,3.5616,3.5616,3.5616,3.5616,3.5616,3.5616,3.5616,3.5616,3.5616,3.6529,3.7821,3.9208,3.9893,4.0113,4.0113,4.0113,4.0113,4.0113,4.0113,4.0113,4.0113,4.0113,4.0163,4.0417,4.117,4.1587,4.1775,4.1868,4.1737,4.1626,4.1046,4.0309,3.9844,3.9424,3.9388,3.9388,3.9388,3.9388,3.9388,3.9388,3.9388,3.9388,3.9388,3.9388,3.9478,3.9709,3.9888,4.0247,4.0711,4.1602,4.2051,4.2425,4.2581,4.2806,4.2991,4.3125,4.3045,4.3125,4.3245,4.3305,4.3305,4.3305,4.3305,4.3305,4.3305,4.3305,4.3305,4.3305,4.3305,4.3305,4.3305,4.3305,4.3305,4.3305,4.3305,4.3305]}]]